[[{"header":{"parameterUnit":"m.s-1","parameterCategory":1,"la1":30.6,"la2":29.2853,"lo1":-89.7004,"lo2":-87.6739,"dx":0.0162,"dy":0.0183,"nx":112,"ny":82,"refTime":"2022-12-01T06:00:00:Z","depth":0,"parameterNumber":2,"parameterNumberName":"U-component_of_WINDS"},"data":[0.0,0.0,0.0,0.0,0.0,0.0,0.0,0.0,0.0,0.0,0.0,0.0,0.0,0.0,0.0,0.0,0.0,0.0,0.0,0.0,0.0,0.0,0.0,0.0,0.0,0.0,0.0,0.0,0.0,0.0,0.0,0.0,0.0,0.0,0.0,0.0,0.0,0.0,0.0,0.0,0.0,0.0,0.0,0.0,0.0,0.0,0.0,0.0,0.0,0.0,0.0,0.0,0.0,0.0,0.0,0.0,0.0,0.0,0.0,0.0,0.0,0.0,0.0,0.0,0.0,0.0,0.0,0.0,0.0,0.0,0.0,0.0,0.0,0.0,0.0,0.0,0.0,0.0,0.0,0.0,0.0,0.0,0.0,0.0,0.0,0.0,0.0,0.0,0.0,0.0,-2.5422,-2.6911,-2.7604,-2.7993,-2.7993,-2.73,-2.659,-2.5964,0.0,0.0,0.0,0.0,0.0,0.0,0.0,0.0,0.0,0.0,0.0,0.0,0.0,0.0,0.0,0.0,0.0,0.0,0.0,0.0,0.0,0.0,0.0,0.0,0.0,0.0,0.0,0.0,0.0,0.0,0.0,0.0,0.0,0.0,0.0,0.0,0.0,0.0,0.0,0.0,0.0,0.0,0.0,0.0,0.0,0.0,0.0,0.0,0.0,0.0,0.0,0.0,0.0,0.0,0.0,0.0,0.0,0.0,0.0,0.0,0.0,0.0,0.0,0.0,0.0,0.0,0.0,0.0,0.0,0.0,0.0,0.0,0.0,0.0,0.0,0.0,0.0,0.0,0.0,0.0,0.0,0.0,0.0,0.0,0.0,0.0,0.0,0.0,0.0,0.0,0.0,0.0,0.0,0.0,0.0,0.0,0.0,0.0,0.0,0.0,0.0,0.0,0.0,0.0,-2.6928,-2.8502,-2.8739,-2.884,-2.884,-2.8112,-2.7587,-2.7486,0.0,0.0,0.0,0.0,0.0,0.0,0.0,0.0,0.0,0.0,0.0,0.0,0.0,0.0,0.0,0.0,0.0,0.0,0.0,0.0,0.0,0.0,0.0,0.0,0.0,0.0,0.0,0.0,0.0,0.0,0.0,0.0,0.0,0.0,0.0,0.0,0.0,0.0,0.0,0.0,0.0,0.0,0.0,0.0,0.0,0.0,0.0,0.0,0.0,0.0,0.0,0.0,0.0,0.0,0.0,0.0,0.0,0.0,0.0,0.0,0.0,0.0,0.0,0.0,0.0,0.0,0.0,0.0,0.0,0.0,0.0,0.0,0.0,0.0,0.0,0.0,0.0,0.0,0.0,0.0,0.0,0.0,0.0,0.0,0.0,0.0,0.0,0.0,0.0,0.0,0.0,0.0,0.0,0.0,0.0,0.0,0.0,0.0,0.0,0.0,0.0,0.0,0.0,-2.6623,-2.7909,-2.9431,-2.96,-2.96,-2.96,-2.9262,-2.8703,-2.7858,-2.5761,0.0,0.0,0.0,0.0,0.0,0.0,0.0,0.0,0.0,0.0,0.0,0.0,0.0,0.0,0.0,0.0,0.0,0.0,0.0,0.0,0.0,0.0,0.0,0.0,0.0,0.0,0.0,0.0,0.0,0.0,0.0,0.0,0.0,0.0,0.0,0.0,0.0,0.0,0.0,0.0,0.0,0.0,0.0,0.0,0.0,0.0,0.0,0.0,0.0,0.0,0.0,0.0,0.0,0.0,0.0,0.0,0.0,0.0,0.0,0.0,0.0,0.0,0.0,0.0,0.0,0.0,0.0,0.0,0.0,0.0,0.0,0.0,0.0,0.0,0.0,0.0,0.0,0.0,0.0,0.0,0.0,0.0,0.0,0.0,0.0,0.0,0.0,0.0,0.0,0.0,0.0,0.0,0.0,0.0,0.0,0.0,0.0,0.0,0.0,0.0,0.0,0.0,-2.7909,-2.8939,-3.0446,-3.0615,-3.0615,-3.0615,-3.048,-2.9702,-2.8162,-2.6522,0.0,0.0,0.0,0.0,0.0,0.0,0.0,0.0,0.0,0.0,0.0,0.0,0.0,0.0,0.0,0.0,0.0,0.0,0.0,0.0,0.0,0.0,0.0,0.0,0.0,0.0,0.0,0.0,0.0,0.0,0.0,0.0,0.0,0.0,0.0,0.0,0.0,0.0,0.0,0.0,0.0,0.0,0.0,0.0,0.0,0.0,0.0,0.0,0.0,0.0,0.0,0.0,0.0,0.0,0.0,0.0,0.0,0.0,0.0,0.0,0.0,0.0,0.0,0.0,0.0,0.0,0.0,0.0,0.0,0.0,0.0,0.0,0.0,0.0,0.0,0.0,0.0,0.0,0.0,0.0,0.0,0.0,0.0,0.0,0.0,0.0,0.0,0.0,0.0,0.0,0.0,0.0,0.0,0.0,0.0,0.0,0.0,0.0,0.0,0.0,0.0,0.0,-2.9465,-3.0514,-3.1989,-3.2158,-3.2158,-3.2158,-3.1515,-3.048,-2.901,-2.6826,0.0,0.0,0.0,0.0,0.0,0.0,0.0,0.0,0.0,0.0,0.0,0.0,0.0,0.0,0.0,0.0,0.0,0.0,0.0,0.0,0.0,0.0,0.0,0.0,0.0,0.0,0.0,0.0,0.0,0.0,0.0,0.0,0.0,0.0,0.0,0.0,0.0,0.0,0.0,0.0,0.0,0.0,0.0,0.0,0.0,0.0,0.0,0.0,0.0,0.0,0.0,0.0,0.0,0.0,0.0,0.0,0.0,0.0,0.0,0.0,0.0,0.0,0.0,0.0,0.0,0.0,0.0,0.0,0.0,0.0,0.0,0.0,0.0,0.0,0.0,0.0,0.0,0.0,0.0,0.0,0.0,0.0,0.0,0.0,0.0,0.0,0.0,0.0,0.0,0.0,0.0,0.0,0.0,0.0,0.0,0.0,0.0,0.0,0.0,0.0,0.0,0.0,-3.004,-3.1157,-3.2192,-3.2733,-3.2983,-3.2983,-3.2327,-3.1447,-3.0465,0.0,0.0,0.0,0.0,0.0,0.0,0.0,0.0,0.0,0.0,0.0,0.0,0.0,0.0,0.0,0.0,0.0,0.0,0.0,0.0,0.0,0.0,0.0,0.0,0.0,0.0,0.0,0.0,0.0,0.0,0.0,0.0,0.0,0.0,0.0,0.0,0.0,0.0,0.0,0.0,0.0,0.0,0.0,0.0,0.0,0.0,0.0,0.0,0.0,0.0,0.0,0.0,0.0,0.0,0.0,0.0,0.0,0.0,0.0,0.0,0.0,0.0,0.0,0.0,0.0,0.0,0.0,0.0,0.0,0.0,0.0,0.0,0.0,0.0,0.0,0.0,0.0,0.0,0.0,0.0,0.0,0.0,0.0,0.0,0.0,0.0,0.0,0.0,0.0,0.0,0.0,0.0,0.0,0.0,0.0,0.0,0.0,0.0,0.0,0.0,0.0,0.0,-2.9059,-3.0635,-3.1921,-3.2903,-3.3457,-3.3761,-3.3761,-3.3288,-3.2496,-3.1258,0.0,0.0,0.0,0.0,0.0,0.0,0.0,0.0,0.0,0.0,0.0,0.0,0.0,0.0,0.0,0.0,0.0,0.0,0.0,0.0,0.0,0.0,0.0,0.0,0.0,0.0,0.0,0.0,0.0,0.0,0.0,0.0,0.0,0.0,0.0,0.0,0.0,0.0,0.0,0.0,0.0,0.0,0.0,0.0,0.0,0.0,0.0,0.0,0.0,0.0,0.0,0.0,0.0,0.0,0.0,0.0,0.0,0.0,0.0,0.0,0.0,0.0,0.0,0.0,0.0,0.0,0.0,0.0,0.0,0.0,0.0,0.0,0.0,0.0,0.0,0.0,0.0,0.0,0.0,0.0,0.0,0.0,0.0,0.0,0.0,0.0,0.0,0.0,0.0,0.0,0.0,0.0,0.0,0.0,0.0,0.0,0.0,0.0,0.0,0.0,0.0,0.0,-2.9837,-3.1413,-3.2903,-3.4336,-3.4506,-3.4527,-3.4527,-3.4506,-3.3558,0.0,0.0,0.0,0.0,0.0,0.0,0.0,0.0,0.0,0.0,0.0,0.0,0.0,0.0,0.0,0.0,0.0,0.0,0.0,0.0,0.0,0.0,0.0,0.0,0.0,0.0,0.0,0.0,0.0,0.0,0.0,0.0,0.0,0.0,0.0,0.0,0.0,0.0,0.0,0.0,0.0,0.0,0.0,0.0,0.0,0.0,0.0,0.0,0.0,0.0,0.0,0.0,0.0,0.0,0.0,0.0,0.0,0.0,0.0,0.0,0.0,0.0,0.0,0.0,0.0,0.0,0.0,0.0,0.0,0.0,0.0,0.0,0.0,0.0,0.0,0.0,0.0,0.0,0.0,0.0,0.0,0.0,0.0,0.0,0.0,0.0,0.0,0.0,0.0,0.0,0.0,0.0,0.0,0.0,0.0,0.0,0.0,0.0,0.0,0.0,0.0,0.0,0.0,-3.0649,-3.2611,-3.4201,-3.5182,-3.5791,-3.6118,-3.6118,-3.5588,-3.4573,-3.2848,0.0,0.0,0.0,0.0,0.0,0.0,0.0,0.0,0.0,0.0,0.0,0.0,0.0,0.0,0.0,0.0,0.0,0.0,0.0,0.0,0.0,0.0,0.0,0.0,0.0,0.0,0.0,0.0,0.0,0.0,0.0,0.0,0.0,0.0,0.0,0.0,0.0,0.0,0.0,0.0,0.0,0.0,0.0,0.0,0.0,0.0,0.0,0.0,0.0,0.0,0.0,0.0,0.0,0.0,0.0,0.0,0.0,0.0,0.0,0.0,0.0,0.0,0.0,0.0,0.0,0.0,0.0,0.0,0.0,0.0,0.0,0.0,0.0,0.0,0.0,0.0,0.0,0.0,0.0,0.0,0.0,0.0,0.0,0.0,0.0,0.0,0.0,0.0,0.0,0.0,0.0,0.0,0.0,0.0,0.0,0.0,0.0,0.0,0.0,0.0,0.0,0.0,-3.1867,-3.3761,-3.5351,-3.6377,-3.6941,-3.7246,-3.7246,-3.6535,-3.5554,-3.4349,0.0,0.0,0.0,0.0,0.0,0.0,0.0,0.0,0.0,0.0,0.0,0.0,0.0,0.0,0.0,0.0,0.0,0.0,0.0,0.0,0.0,0.0,0.0,0.0,0.0,0.0,0.0,0.0,0.0,0.0,0.0,0.0,0.0,0.0,0.0,0.0,0.0,0.0,0.0,0.0,0.0,0.0,0.0,0.0,0.0,0.0,0.0,0.0,0.0,0.0,0.0,0.0,0.0,0.0,0.0,0.0,0.0,0.0,0.0,0.0,0.0,0.0,0.0,0.0,0.0,0.0,0.0,0.0,0.0,0.0,0.0,0.0,0.0,0.0,0.0,0.0,0.0,0.0,0.0,0.0,0.0,0.0,0.0,0.0,0.0,0.0,0.0,0.0,0.0,0.0,0.0,0.0,0.0,0.0,0.0,0.0,0.0,0.0,0.0,0.0,0.0,0.0,-3.3322,-3.489,-3.6377,-3.7855,-3.8024,-3.8024,-3.8024,-3.7381,-3.6603,-3.5667,0.0,0.0,0.0,0.0,0.0,0.0,0.0,0.0,0.0,0.0,0.0,0.0,0.0,0.0,0.0,0.0,0.0,0.0,0.0,0.0,0.0,0.0,0.0,0.0,0.0,0.0,0.0,0.0,0.0,0.0,0.0,0.0,0.0,0.0,0.0,0.0,0.0,0.0,0.0,0.0,0.0,0.0,0.0,0.0,0.0,0.0,0.0,0.0,0.0,0.0,0.0,0.0,0.0,0.0,0.0,0.0,0.0,0.0,0.0,0.0,-3.0638,0.0,0.0,0.0,0.0,0.0,0.0,0.0,0.0,0.0,0.0,0.0,0.0,0.0,0.0,0.0,0.0,0.0,0.0,0.0,0.0,0.0,0.0,0.0,0.0,0.0,0.0,0.0,0.0,0.0,0.0,0.0,0.0,0.0,0.0,0.0,0.0,0.0,0.0,0.0,0.0,0.0,-3.4923,-3.6445,-3.7753,-3.8667,-3.8768,-3.8768,-3.8768,-3.8599,-3.7686,-3.5701,-3.516,0.0,0.0,0.0,0.0,0.0,0.0,0.0,0.0,0.0,0.0,0.0,0.0,0.0,0.0,0.0,0.0,0.0,0.0,0.0,0.0,0.0,0.0,0.0,0.0,0.0,0.0,0.0,0.0,0.0,0.0,0.0,0.0,0.0,0.0,0.0,0.0,0.0,0.0,0.0,0.0,0.0,0.0,0.0,0.0,0.0,0.0,0.0,0.0,0.0,0.0,0.0,0.0,0.0,0.0,0.0,0.0,0.0,0.0,0.0,0.0,-3.1298,0.0,0.0,0.0,0.0,0.0,0.0,0.0,0.0,0.0,0.0,0.0,0.0,0.0,0.0,0.0,0.0,0.0,0.0,0.0,0.0,0.0,0.0,0.0,0.0,0.0,0.0,0.0,0.0,0.0,0.0,0.0,0.0,0.0,0.0,0.0,0.0,0.0,0.0,0.0,0.0,-3.6512,-3.7719,-3.87,-3.9445,-3.9537,-3.9537,-3.9537,-3.9174,-3.8497,-3.7313,-3.6208,0.0,0.0,0.0,0.0,0.0,0.0,0.0,0.0,0.0,0.0,0.0,0.0,0.0,0.0,0.0,0.0,0.0,0.0,0.0,0.0,0.0,0.0,0.0,0.0,0.0,0.0,0.0,0.0,0.0,0.0,0.0,0.0,0.0,0.0,0.0,0.0,0.0,0.0,0.0,0.0,0.0,0.0,0.0,0.0,0.0,0.0,0.0,0.0,0.0,0.0,0.0,0.0,0.0,-3.7749,-3.8469,-3.9129,-3.9129,-3.9129,-3.8982,-3.6266,-3.4908,-3.4651,-3.4651,0.0,0.0,0.0,0.0,0.0,0.0,0.0,0.0,0.0,0.0,0.0,0.0,0.0,0.0,0.0,0.0,0.0,0.0,0.0,0.0,0.0,0.0,0.0,0.0,-3.1867,-3.1292,0.0,0.0,0.0,0.0,0.0,0.0,0.0,0.0,0.0,0.0,0.0,0.0,-3.7922,-3.8734,-3.9436,-4.0045,-4.0113,-4.0113,-4.0113,-3.9512,-3.914,-3.9005,-3.7246,-3.5757,0.0,0.0,0.0,0.0,0.0,0.0,0.0,0.0,0.0,0.0,0.0,0.0,0.0,0.0,0.0,0.0,0.0,0.0,0.0,0.0,0.0,0.0,0.0,0.0,0.0,0.0,0.0,0.0,0.0,0.0,0.0,0.0,-2.5411,-2.6319,0.0,0.0,0.0,0.0,0.0,0.0,0.0,0.0,0.0,0.0,0.0,0.0,0.0,-3.6303,-3.7734,-3.8762,-3.9313,-3.9439,-4.023,-4.0691,-4.0765,-4.0765,-4.0765,-4.0765,-4.0325,0.0,-3.8065,-3.8065,0.0,0.0,0.0,0.0,0.0,0.0,0.0,0.0,0.0,0.0,0.0,0.0,0.0,0.0,0.0,0.0,0.0,0.0,0.0,0.0,0.0,0.0,-3.3829,-3.3998,-3.4539,-3.489,0.0,-3.2408,-3.0615,-3.0615,-3.121,0.0,0.0,0.0,0.0,0.0,0.0,0.0,-3.8734,-3.9503,-4.0011,-4.0079,-4.0113,-4.0113,-4.0113,-4.0011,-3.9673,-3.9039,-3.87,-3.7618,-3.5532,-3.4573,0.0,0.0,0.0,0.0,0.0,0.0,0.0,0.0,0.0,0.0,0.0,0.0,0.0,0.0,0.0,0.0,0.0,0.0,0.0,0.0,0.0,0.0,0.0,0.0,0.0,0.0,0.0,0.0,0.0,-2.5742,-2.7053,-2.7849,-2.9072,-3.0001,0.0,0.0,0.0,0.0,0.0,0.0,0.0,0.0,0.0,-3.8285,-3.8322,-3.8872,-4.0031,-4.0414,-4.0818,-4.1258,-4.1625,-4.2029,-4.2433,-4.2433,-4.2433,-4.2433,-4.2433,-4.2066,-4.1332,-4.0414,-3.957,-3.8814,0.0,0.0,0.0,0.0,-3.6316,-3.6316,-3.6316,-3.6316,0.0,-3.5649,0.0,0.0,0.0,0.0,0.0,0.0,0.0,0.0,0.0,0.0,-3.5915,-3.6299,-3.6671,-3.6884,-3.6884,-3.5893,-3.4709,0.0,-3.3931,-3.4404,-3.5182,0.0,0.0,0.0,0.0,-3.8768,-3.9512,-4.0257,-4.0696,-4.0696,-4.1068,-4.1365,-4.1365,-4.0933,-4.0561,-4.0257,-3.9445,-3.8531,-3.755,-3.64,-3.4798,0.0,0.0,0.0,0.0,0.0,0.0,0.0,0.0,0.0,0.0,0.0,0.0,0.0,0.0,0.0,0.0,0.0,0.0,0.0,0.0,0.0,0.0,0.0,0.0,0.0,0.0,0.0,0.0,-2.7725,-2.9035,-2.9831,-3.1347,-3.2632,0.0,0.0,0.0,0.0,0.0,0.0,-3.7221,-3.8542,-3.968,-4.0487,-4.0487,-4.1001,-4.2012,-4.2012,-4.2416,-4.3204,-4.3204,-4.3534,-4.4085,-4.4085,-4.4085,-4.4085,-4.4085,-4.4085,-4.3975,-4.2396,-4.1368,-4.0781,-4.0598,-4.0157,-3.9606,-3.9386,-3.9313,-3.9313,-3.9313,-3.9313,-3.9266,-3.8919,-3.8333,-3.7715,-3.7369,0.0,0.0,0.0,0.0,-3.6503,-3.6954,-3.7235,-3.7506,-3.8058,-3.8328,-3.8464,-3.8464,-3.8599,-3.8261,0.0,-3.6343,-3.6671,-3.7269,0.0,0.0,0.0,-3.9546,-3.9817,-4.0587,-4.1136,-4.1474,-4.1474,-4.1982,-4.2286,-4.2286,-4.1813,-4.1407,-4.1204,-4.0155,-3.9377,-3.9005,-3.7946,-3.666,-3.5137,0.0,0.0,0.0,0.0,0.0,0.0,0.0,0.0,0.0,0.0,0.0,0.0,0.0,0.0,0.0,0.0,0.0,0.0,0.0,0.0,0.0,0.0,0.0,0.0,0.0,0.0,0.0,0.0,0.0,-3.2326,-3.383,0.0,0.0,0.0,0.0,-3.8395,-3.9239,-3.9732,-3.9732,-4.0524,-4.1352,-4.2139,-4.2176,-4.2947,-4.4507,-4.4525,-4.4929,-4.57,-4.57,-4.5736,-4.5773,-4.5773,-4.5773,-4.5773,-4.5773,-4.5773,-4.5663,-4.4048,-4.3368,-4.3258,-4.247,-4.2139,-4.2029,-4.1242,-4.0985,-4.0985,-4.0985,-4.0985,-4.0985,-4.0969,-4.0591,-4.004,-3.9585,-3.9408,0.0,0.0,-3.8551,-3.8432,-3.7986,-3.8362,-3.8903,-3.8937,-3.9503,-4.0011,-4.0011,-4.0527,-4.0392,0.0,-3.8362,-3.8836,-3.887,0.0,-4.0214,-4.0967,-4.1102,-4.1373,-4.2083,-4.2219,-4.2219,-4.2219,-4.2286,-4.2286,-4.2286,-4.2252,-4.1948,-4.1238,-4.1136,-4.046,-3.9039,-3.8937,-3.8217,-3.6728,-3.5148,0.0,0.0,0.0,0.0,0.0,0.0,0.0,0.0,0.0,0.0,0.0,0.0,0.0,0.0,0.0,0.0,0.0,0.0,0.0,0.0,0.0,0.0,0.0,0.0,0.0,0.0,0.0,0.0,-3.4835,-3.6413,0.0,-3.8542,-3.935,-3.9937,-4.0215,-4.1001,-4.1442,-4.1442,-4.269,-4.3553,-4.3864,-4.4342,-4.4892,-4.548,-4.548,-4.5626,-4.592,-4.6434,-4.6672,-4.6672,-4.7205,-4.7462,-4.7462,-4.7462,-4.7462,-4.7388,-4.6838,-4.5993,-4.5002,-4.4709,-4.4635,-4.4599,-4.4305,-4.4195,-4.4121,-4.359,-4.3407,-4.3333,-4.28,-4.2267,-4.1751,-4.1182,-4.1116,-4.1093,-4.0494,-4.0641,-4.0966,-4.0773,-4.0933,-4.1102,-4.1102,-4.1305,-4.1534,-4.1534,-4.1711,-4.1677,-4.0865,-4.0933,-4.1102,-4.1102,-4.1339,-4.1636,-4.188,-4.1914,-4.1982,-4.2252,-4.2726,-4.3031,-4.3031,-4.347,-4.3802,-4.3802,-4.3301,-4.2895,-4.2632,-4.2185,-4.1441,-4.046,-4.0426,-3.9715,-3.8251,-3.7686,-3.6806,0.0,0.0,0.0,0.0,0.0,0.0,0.0,0.0,0.0,0.0,0.0,0.0,0.0,0.0,0.0,0.0,0.0,0.0,0.0,0.0,0.0,0.0,0.0,0.0,0.0,-3.4431,-3.5973,-3.7331,-3.8689,-3.9827,-4.0634,-4.1185,-4.1719,-4.2269,-4.28,-4.324,-4.3497,-4.4525,-4.5112,-4.5112,-4.5883,-4.6434,-4.6728,-4.6985,-4.7278,-4.7572,-4.8086,-4.836,-4.836,-4.8893,-4.915,-4.915,-4.915,-4.915,-4.915,-4.915,-4.8526,-4.7462,-4.6617,-4.614,-4.5883,-4.5883,-4.5883,-4.5792,-4.5058,-4.482,-4.4673,-4.3902,-4.3431,-4.3069,-4.2654,-4.2668,-4.2623,-4.2021,-4.2219,-4.2542,-4.2366,-4.2286,-4.2354,-4.2625,-4.2658,-4.276,-4.2997,-4.3267,-4.3436,-4.3436,-4.2828,-4.2286,-4.2286,-4.2286,-4.2455,-4.3024,-4.3091,-4.3261,-4.3741,-4.4248,-4.4553,-4.4553,-4.5026,-4.5359,-4.5359,-4.4857,-4.435,-4.3842,-4.3335,-4.2625,-4.161,-4.1576,-4.1001,-3.9749,-3.9242,-3.8261,-3.6795,0.0,0.0,0.0,0.0,0.0,0.0,0.0,0.0,0.0,0.0,0.0,0.0,0.0,0.0,0.0,0.0,0.0,0.0,0.0,0.0,0.0,0.0,0.0,-3.6376,-3.7734,-3.9056,-3.9879,-4.0671,-4.1462,-4.2286,-4.2359,-4.302,-4.4618,-4.4745,-4.5112,-4.5883,-4.5957,-4.5993,-4.5993,-4.6782,-4.759,-4.8379,-4.9224,-5.0031,-5.0802,-5.0839,-5.0839,-5.0839,-5.0875,-5.0875,-5.0912,-5.0875,-5.0875,-5.0912,-5.0875,-5.0875,-5.0618,-4.814,-4.6764,-4.6067,-4.6067,-4.603,-4.592,-4.5349,-4.5111,-4.4973,-4.4316,-4.4115,-4.4137,-4.4069,-4.4105,-4.399,-4.3444,-4.3306,-4.3191,-4.2607,-4.2422,-4.2625,-4.3335,-4.3511,-4.3741,-4.4485,-4.5229,-4.5737,-4.5737,-4.3944,-4.2422,-4.2422,-4.2422,-4.2929,-4.4445,-4.4682,0.0,-4.6616,-4.6786,-4.6786,-4.6786,-4.6786,-4.6786,-4.6786,-4.6786,-4.6177,-4.475,-4.4649,-4.3972,-4.2422,-4.2354,-4.1982,-4.1271,-3.9817,-3.8328,-3.6897,0.0,0.0,0.0,0.0,0.0,0.0,0.0,0.0,0.0,0.0,0.0,0.0,0.0,0.0,0.0,0.0,0.0,0.0,0.0,0.0,0.0,-3.7367,-3.8028,-3.8028,-3.8909,-4.0084,-4.1479,-4.1846,-4.2506,-4.3901,-4.4048,-4.4488,-4.548,-4.5553,-4.592,-4.6709,-4.7315,-4.7902,-4.8489,-4.9334,-4.9884,-5.0105,-5.0362,-5.0582,-5.0802,-5.1389,-5.1683,-5.1683,-5.227,-5.2858,-5.3371,-5.2784,-5.2858,-5.3371,-5.2784,-5.2197,-5.1536,-5.0288,-4.9664,-4.9444,-4.9444,-4.9077,-4.8563,-4.839,-4.7909,-4.7262,-4.6593,-4.6735,-4.6861,-4.5455,-4.5744,-4.6372,-4.5294,-4.5409,-4.5762,-4.5625,-4.5568,-4.5602,-4.5805,-4.5872,-4.594,-4.6143,-4.6346,-4.6481,-4.6481,-4.5974,-4.5568,-4.5568,-4.5568,-4.5703,-4.6109,-4.6177,0.0,-4.6752,-4.6786,-4.6786,-4.6786,-4.6786,-4.6786,-4.6786,-4.6786,-4.6616,-4.621,-4.5669,-4.4959,-4.4005,-4.3403,-4.276,-4.2016,-4.1068,-4.0121,0.0,0.0,0.0,0.0,0.0,0.0,0.0,0.0,0.0,0.0,0.0,0.0,0.0,0.0,0.0,0.0,0.0,0.0,0.0,0.0,0.0,0.0,-3.946,-4.0194,-4.0194,-4.0598,-4.1515,-4.313,-4.3314,-4.3828,-4.5076,-4.5223,-4.57,-4.6838,-4.6911,-4.7425,-4.858,-4.9114,-4.9554,-5.0031,-5.0875,-5.1463,-5.1793,-5.216,-5.2491,-5.2821,-5.3261,-5.3503,-5.3518,-5.3995,-5.4473,-5.4876,-5.4399,-5.4473,-5.4876,-5.4399,-5.3922,0.0,0.0,0.0,0.0,0.0,-5.0508,-5.0048,-4.9789,-4.9341,-4.8759,-4.7806,-4.7759,-4.7829,-4.6411,-4.6596,-4.713,-4.6368,-4.6481,-4.6786,-4.6786,-4.6786,-4.6887,-4.7192,-4.7259,-4.7361,-4.7665,-4.7699,-4.7699,-4.7699,-4.7699,0.0,-4.7699,-4.7192,-4.6887,-4.7225,-4.7259,-4.7361,-4.7665,-4.7699,-4.7699,-4.7699,-4.7699,-4.7699,-4.7699,-4.7699,0.0,0.0,0.0,-4.6143,-4.5094,-4.4316,0.0,0.0,0.0,0.0,0.0,0.0,0.0,0.0,-3.7212,-3.6535,0.0,0.0,0.0,0.0,0.0,0.0,0.0,0.0,0.0,0.0,0.0,0.0,0.0,0.0,0.0,0.0,-4.1368,-4.2359,-4.2543,-4.258,-4.3094,-4.4507,-4.4764,-4.5186,-4.6067,-4.6177,-4.6838,-4.8453,-4.86,-4.926,-5.0839,0.0,0.0,0.0,0.0,-5.2674,-5.3482,-5.4179,-5.4876,-5.5596,-5.5596,-5.5596,-5.5596,-5.5596,-5.5669,-5.5721,-5.5647,-5.5669,-5.5721,-5.5647,-5.5596,-5.5412,-5.3225,-5.1977,-5.1353,-5.1353,-5.1353,-5.1255,-5.0679,0.0,0.0,-4.8855,-4.8429,-4.8266,-4.7525,-4.7352,-4.7378,-4.7323,-4.7293,-4.7293,-4.7293,-4.7293,-4.7462,-4.8108,-4.8244,-4.8446,-4.912,-4.9255,-4.9255,-4.9255,-4.9255,-4.9255,-4.9255,-4.8003,-4.7259,-4.7936,-4.8007,-4.8244,-4.8917,-4.9018,-4.9018,-4.9018,0.0,0.0,-4.9018,-4.9018,-4.8714,-4.8041,-4.7939,-4.7293,-4.5872,-4.5196,-4.4519,-4.3781,-4.2963,-4.2557,-4.2557,-4.2388,-4.2286,-4.2219,-3.9614,-3.8396,0.0,0.0,0.0,0.0,0.0,0.0,0.0,0.0,0.0,0.0,0.0,0.0,0.0,0.0,0.0,-4.1552,-4.2103,-4.2763,-4.4048,-4.4214,-4.4324,-4.4654,-4.5259,-4.625,-4.7682,-4.7829,-4.8526,-5.0178,-5.0325,-5.0729,-5.172,-5.1756,-5.2344,-5.3665,-5.3849,-5.4326,-5.5133,-5.528,-5.5427,-5.5596,0.0,0.0,-5.5596,-5.5596,-5.5941,-5.6528,-5.5868,-5.5978,-5.6528,-5.5868,-5.5596,-5.5559,-5.5082,-5.4803,-5.4656,-5.4656,-5.4656,-5.4656,-5.451,-5.409,-5.3446,-5.2582,-5.2286,-5.1983,-5.0741,-5.0772,0.0,-5.0527,-5.0371,-5.0371,-5.0371,-5.0371,-5.0405,-5.0541,-5.0543,-5.0608,-5.0744,-5.0745,-5.0745,-5.0745,-5.0745,-5.0745,-5.0745,-4.956,-4.8612,-4.8781,-4.8781,-4.8849,-4.8984,-4.9018,-4.9018,-4.9018,-4.9018,-4.9018,-4.9018,-4.9018,-4.8951,-4.8815,-4.824,-4.753,-4.6616,-4.6447,-4.6278,-4.6143,-4.4852,-4.4175,-4.4175,-4.2922,-4.2286,-4.2286,-4.1711,-4.1441,0.0,0.0,0.0,0.0,0.0,0.0,0.0,0.0,0.0,0.0,0.0,-3.8579,-4.0194,0.0,-4.1625,-4.324,-4.3497,-4.3938,-4.5149,-4.5993,-4.6342,-4.5938,-4.6617,-4.7572,-4.882,-4.9297,-5.0068,-5.1316,-5.1389,-5.194,-5.3151,-5.3188,-5.3739,-5.495,-5.4987,-5.539,-5.6198,-5.6198,-5.6381,-5.6785,-5.6785,-5.6785,-5.6785,-5.6785,-5.7005,-5.7373,-5.6969,-5.7042,-5.7373,-5.6969,-5.6785,-5.6785,-5.6785,-5.6308,-5.5596,-5.5596,-5.5596,-5.5596,-5.5596,-5.5336,-5.4929,-5.422,-5.3989,-5.3664,-5.223,-5.2054,-5.2205,-5.1407,-5.1185,-5.1185,-5.1185,-5.1185,-5.1185,-5.1185,-5.1185,-5.1185,-5.1185,-5.1185,-5.1185,-5.1185,-5.1185,-5.1185,-5.1185,-5.0608,-5.0101,-5.0101,-5.0101,-5.0101,-5.0101,-5.0101,-5.0101,-5.0101,-5.0101,-5.0101,-5.0101,-4.9763,-4.939,-4.9018,-4.8646,-4.8139,-4.7394,-4.7361,-4.7192,-4.6786,-4.6104,-4.5698,-4.5698,-4.4925,-4.4553,-4.4553,-4.4553,-4.3741,0.0,0.0,0.0,0.0,0.0,0.0,0.0,-3.6468,-3.7221,-3.8836,-3.9827,-4.0744,-4.2066,-4.2433,-4.302,-4.4434,-4.4691,-4.5039,-4.5993,-4.7388,-4.8122,-4.7626,-4.8306,-4.9114,-4.9978,-5.0655,-5.1426,-5.238,-5.2454,-5.3078,-5.4546,-5.462,-5.4987,-5.5794,-5.5831,-5.6198,-5.7042,-5.7042,-5.7373,-5.7997,-5.7997,-5.7997,-5.7997,-5.7997,-5.7997,-5.7997,-5.7997,-5.7997,-5.7997,-5.7997,-5.7997,-5.7997,-5.7997,-5.7189,-5.6073,-5.6073,-5.6073,-5.6073,-5.6073,-5.5984,-5.5766,-5.5233,-5.4849,-5.4375,-5.3178,-5.271,-5.2471,-5.1817,-5.1657,-5.1657,-5.1657,-5.1657,-5.1657,-5.1657,-5.1657,-5.1657,-5.1657,-5.1657,-5.1657,-5.1657,-5.1657,-5.1657,-5.1657,-5.1657,-5.1523,-5.1219,-5.1185,-5.1185,-5.1185,-5.1185,-5.1185,-5.1185,-5.1185,-5.1185,-5.1185,-5.0676,-5.0067,-4.9458,-4.9289,-4.8951,-4.8376,-4.8176,-4.7834,-4.7225,-4.709,-4.7022,-4.7022,-4.6853,-4.6786,-4.6786,-4.6786,-4.55,-3.5,-3.5553,-3.5881,-3.571,-3.5976,-3.6694,0.0,-3.8389,-3.8909,-4.0508,-4.1479,-4.2103,-4.2286,-4.2873,-4.3644,-4.4562,-4.4691,-4.5241,-4.6746,-4.7736,-4.8563,-4.9243,-5.0031,-5.0839,-5.1646,-5.1793,-5.2491,-5.4032,-5.4142,-5.4509,-5.5427,-5.5464,-5.5831,-5.6638,-5.6675,-5.7042,-5.785,-5.7886,-5.7923,-5.7997,-5.7997,-5.7997,-5.7997,-5.7997,-5.7997,-5.7997,-5.7997,-5.7997,-5.7997,-5.7997,-5.7997,-5.7997,-5.7997,-5.7886,-5.774,-5.774,-5.774,-5.774,-5.774,-5.7291,-5.6736,-5.6685,-5.5735,-5.4574,-5.4391,-5.3896,-5.3381,-5.328,-5.3247,-5.3247,-5.3247,-5.3247,-5.3247,-5.3247,-5.3247,-5.3247,-5.3247,-5.3247,-5.3247,-5.3247,-5.3247,-5.3247,-5.3247,-5.3247,-5.2773,-5.1388,-5.1185,-5.1185,-5.1185,-5.1185,-5.1185,-5.1185,-5.1185,-5.1185,-5.1185,-5.115,-5.1048,-5.0948,-5.0338,-4.9932,-4.9864,-4.9221,-4.8849,-4.8748,-4.8105,-4.78,-4.78,-4.7124,-4.6786,-4.6786,-4.6786,-4.6616,-3.6853,-3.733,-3.7795,-3.8201,-3.8524,-3.9059,-4.0118,-4.0588,-4.1001,-4.1662,-4.2433,-4.2983,-4.2983,-4.3644,-4.4452,-4.5259,-4.5792,-4.6672,-4.8306,-4.926,-5.0068,-5.0896,-5.172,-5.216,-5.2013,-5.2858,-5.3665,-5.4363,-5.484,-5.5464,-5.6271,-5.6308,-5.6675,-5.7483,-5.7483,-5.7666,-5.7997,-5.7997,-5.7997,-5.7997,-5.7997,-5.7997,-5.7997,-5.7997,-5.7997,-5.7997,-5.7997,-5.7997,-5.7997,-5.7997,-5.7997,-5.7997,-5.7997,-5.7997,-5.7997,-5.7997,-5.7997,-5.7997,-5.7997,-5.7797,-5.7474,-5.704,-5.6483,-5.5787,-5.4878,-5.4356,-5.4042,-5.3618,-5.3518,-5.3518,-5.3518,-5.3518,-5.3518,-5.3518,-5.3518,-5.3518,-5.3518,-5.3518,-5.3518,-5.3518,-5.3518,-5.3518,-5.3518,-5.3518,-5.3281,-5.2638,-5.2536,-5.2536,-5.2536,-5.2536,-5.2536,-5.2536,-5.2536,-5.2367,-5.1894,-5.186,-5.1657,-5.1251,-5.0913,-5.0744,-5.0744,-5.0439,-5.0304,-5.0304,-4.956,-4.9187,-4.9187,-4.8443,-4.8071,-4.8071,-4.8071,-4.8071,-3.9276,-3.9451,-3.9775,-4.0317,-4.0476,-4.0763,-4.1608,-4.2057,-4.2359,-4.258,-4.3094,-4.3588,-4.3791,-4.4305,-4.5039,-4.6067,-4.6709,-4.7663,-4.9353,-5.0288,-5.1096,-5.1903,-5.2894,-5.3298,-5.2711,-5.3702,-5.4583,-5.5023,-5.5611,-5.6271,-5.7079,-5.7152,-5.7409,-5.796,-5.7997,-5.7997,-5.7997,-5.7997,-5.7997,-5.7997,-5.7997,-5.7997,-5.7997,-5.7997,-5.7997,-5.7997,-5.7997,-5.7997,-5.7997,-5.7997,-5.7997,-5.7997,-5.7997,-5.7997,-5.7997,-5.7997,-5.7997,-5.7997,-5.7997,-5.7997,-5.7927,-5.7376,-5.7065,-5.6642,-5.5326,-5.4757,-5.4451,-5.3684,-5.3518,-5.3518,-5.3518,-5.3518,-5.3518,-5.3518,-5.3518,-5.3518,-5.3518,-5.3518,-5.3518,-5.3518,-5.3518,-5.3518,-5.3518,-5.3518,-5.3518,-5.3518,-5.3518,-5.3518,-5.3518,-5.3518,-5.3518,-5.3518,-5.3518,-5.3281,-5.2672,-5.2638,-5.2401,-5.1894,-5.1657,-5.1522,-5.1522,-5.1319,-5.1185,-5.1185,-5.0676,-5.0405,-5.0405,-4.9864,-4.9627,-4.9627,-4.9627,-4.9627,-4.2478,-4.2193,-4.192,-4.1638,-4.1317,-4.1295,-4.2083,-4.2286,-4.2506,-4.3294,-4.3478,-4.3718,-4.4525,-4.4654,-4.5205,-4.6819,-4.7076,-4.7663,-4.926,-5.0251,-5.1096,-5.1903,-5.3408,-5.4363,-5.4326,-5.4363,-5.506,-5.6602,-5.6748,-5.7116,-5.7923,-5.796,-5.796,-5.7997,-5.7997,-5.7997,-5.7997,-5.7997,-5.7997,-5.7997,-5.7997,-5.7997,-5.7997,-5.7997,-5.7997,-5.7997,-5.7997,-5.7997,-5.7997,-5.7997,-5.7997,-5.7997,-5.7997,-5.7997,-5.7997,-5.7997,-5.7997,-5.7997,-5.7997,-5.7997,-5.7997,-5.7973,-5.7474,-5.6721,-5.592,-5.5173,-5.4451,-5.3684,-5.3518,-5.3518,-5.3518,-5.3518,-5.3518,-5.3518,-5.3518,-5.3518,-5.3518,-5.3518,-5.3518,-5.3518,-5.3518,-5.3518,-5.3518,-5.3518,-5.3518,-5.3518,-5.3518,-5.3518,-5.3518,-5.3518,-5.3518,-5.3518,-5.3518,-5.3484,-5.3484,-5.345,-5.345,-5.345,-5.2706,-5.2266,-5.2266,-5.1589,-5.1185,-5.1185,-5.1151,-5.1183,-5.1183,-5.1117,-5.1117,-5.1117,-5.1117,-5.1117,-4.2869,-4.2906,-4.285,-4.2771,-4.2878,-4.305,-4.3088,-4.3094,-4.3167,-4.3441,-4.3901,-4.4378,-4.4654,-4.5572,-4.6452,-4.7003,-4.8049,-4.9114,-5.0215,-5.1059,-5.1903,-5.2711,-5.3739,-5.462,-5.5133,-5.5684,-5.6235,-5.6748,-5.7299,-5.7703,-5.7997,-5.7997,-5.7997,-5.7997,-5.7997,-5.7997,-5.7997,-5.7997,-5.7997,-5.7997,-5.7997,-5.7997,-5.7997,-5.7997,-5.7997,-5.7997,-5.7997,-5.7997,-5.7997,-5.7997,-5.7997,-5.7997,-5.7997,-5.7997,-5.7997,-5.7997,-5.7997,-5.7997,-5.7997,-5.7997,-5.7927,-5.7425,-5.7091,-5.6747,-5.5948,-5.5524,-5.5173,-5.4419,-5.4232,-5.4106,-5.3651,-5.3518,-5.3518,-5.3518,-5.3518,-5.3518,-5.3518,-5.3518,-5.3518,-5.3518,-5.3518,-5.3518,-5.3518,-5.3518,-5.3518,-5.3518,-5.3518,-5.3518,-5.3518,-5.3518,-5.3518,-5.3518,-5.3518,-5.3518,-5.3518,-5.3518,-5.3518,-5.3518,-5.3247,-5.3112,-5.3112,-5.2875,-5.2739,-5.2739,-5.2198,-5.1928,-5.1928,-5.1454,-5.1185,-5.1185,-5.1185,-5.1185,-4.3752,-4.3781,-4.373,-4.3598,-4.3801,-4.3927,-4.358,-4.3515,-4.3515,-4.3515,-4.3901,-4.4452,-4.5039,-4.5993,-4.6856,-4.7443,-4.8673,-4.9904,-5.0692,-5.1499,-5.2307,-5.3093,-5.4179,-5.5023,-5.5559,-5.6602,-5.7226,-5.7226,-5.7703,-5.7997,-5.7997,-5.7997,-5.7997,-5.7997,-5.7997,-5.7997,-5.7997,-5.7997,-5.7997,-5.7997,-5.7997,-5.7997,-5.7997,-5.7997,-5.7997,-5.7997,-5.7997,-5.7997,-5.7997,-5.7997,-5.7997,-5.7997,-5.7997,-5.7997,-5.7997,-5.7997,-5.7997,-5.7997,-5.7997,-5.7997,-5.7927,-5.7449,-5.7302,-5.7141,-5.6367,-5.6114,-5.5893,-5.4878,-5.4606,-5.4419,-5.3684,-5.3518,-5.3518,-5.3518,-5.3518,-5.3518,-5.3518,-5.3518,-5.3518,-5.3518,-5.3518,-5.3518,-5.3518,-5.3518,-5.3518,-5.3518,-5.3518,-5.3518,-5.3518,-5.3518,-5.3518,-5.3518,-5.3518,-5.3518,-5.3518,-5.3518,-5.3518,-5.3518,-5.3518,-5.3518,-5.3518,-5.3518,-5.3518,-5.3518,-5.2976,-5.2739,-5.2739,-5.2266,-5.2029,-5.2029,-5.2029,-5.2029,-4.5137,-4.4884,-4.4508,-4.4132,-4.4028,-4.3943,-4.358,-4.3515,-4.3515,-4.3515,-4.3551,-4.4011,-4.5553,-4.592,-4.6471,-4.8012,-4.9003,-4.9904,-5.0692,-5.1499,-5.2307,-5.3093,-5.462,-5.5596,-5.5596,-5.7042,-5.7997,-5.7997,0.0,-5.7997,-5.7997,-5.7997,-5.7997,-5.7997,-5.7997,-5.7997,-5.7997,-5.7997,-5.7997,-5.7997,-5.7997,-5.7997,-5.7997,-5.7997,-5.7997,-5.7997,-5.7997,-5.7997,-5.7997,-5.7997,-5.7997,-5.7997,-5.7997,-5.7997,-5.7997,-5.7997,-5.7997,-5.7997,-5.7997,-5.7997,-5.7997,-5.7997,-5.7997,-5.7881,-5.7141,-5.6964,-5.6642,-5.5089,-5.4634,-5.4482,-5.3684,-5.3518,-5.3518,-5.3518,-5.3518,-5.3518,-5.3518,-5.3518,-5.3518,-5.3518,-5.3518,-5.3518,-5.3518,-5.3518,-5.3518,-5.3518,-5.3518,-5.3518,-5.3518,-5.3518,-5.3518,-5.3518,-5.3518,-5.3518,-5.3518,-5.3518,-5.3518,-5.3518,-5.3518,-5.3518,-5.3518,-5.3518,-5.3518,-5.3518,-5.3518,-5.3518,-5.3518,-5.3518,-5.3518,-5.3518,-5.3518,-5.3518,-4.541,-4.5232,-4.4896,-4.4521,-4.4428,-4.4261,-4.3647,-4.3515,-4.3515,-4.3515,-4.3975,-4.4525,-4.4929,-4.5975,-4.6929,-4.7333,-4.8636,-4.9904,-5.0692,-5.1499,-5.2307,-5.3093,-5.462,-5.5596,-5.5596,-5.7042,-5.7997,-5.7997,-5.7997,-5.7997,-5.7997,-5.7997,-5.7997,-5.7997,-5.7997,-5.7997,-5.7997,-5.7997,-5.7997,-5.7997,-5.7997,-5.7997,-5.7997,-5.7997,-5.7997,-5.7997,-5.7997,-5.7997,-5.7997,-5.7997,-5.7997,-5.7997,-5.7997,-5.7997,-5.7997,-5.7997,-5.7997,-5.7997,-5.7997,-5.7997,-5.7997,-5.7997,-5.7997,-5.7973,-5.7774,-5.7726,-5.7425,-5.5865,-5.5437,-5.5114,-5.3815,-5.3518,-5.3518,-5.3518,-5.3518,-5.3518,-5.3518,-5.3518,-5.3518,-5.3518,-5.3518,-5.3518,-5.3518,-5.3518,-5.3518,-5.3518,-5.3518,-5.3518,-5.3518,-5.3518,-5.3518,-5.3518,-5.3518,-5.3518,-5.3518,-5.3518,-5.3518,-5.3518,-5.3518,-5.3518,-5.3518,-5.3518,-5.3518,-5.3518,-5.3518,-5.3518,-5.3518,-5.3518,-5.3518,-5.3518,-5.3518,-5.3518,-4.5351,-4.5243,-4.5011,-4.4701,-4.4612,-4.4425,-4.3681,-4.3515,-4.3515,-4.3515,-4.3864,-4.4268,-4.4635,-4.5425,-4.6269,-4.7003,-4.8196,-4.9444,-5.0618,-5.1499,-5.2307,-5.3093,-5.462,-5.5596,-5.5596,-5.7042,-5.7997,-5.7997,-5.7997,-5.7997,-5.7997,-5.7997,-5.7997,-5.7997,-5.7997,-5.7997,-5.7997,-5.7997,-5.7997,-5.7997,-5.7997,-5.7997,-5.7997,-5.7997,-5.7997,-5.7997,0.0,-5.7997,-5.7997,-5.7997,-5.7997,-5.7997,-5.7997,-5.7997,-5.7997,-5.7997,-5.7997,-5.7997,-5.7997,-5.7997,-5.7997,-5.7997,-5.7997,-5.7997,-5.7997,-5.7774,-5.7266,-5.6059,-5.5466,-5.4969,-5.3816,-5.3518,-5.3518,-5.3518,-5.3518,-5.3518,-5.3518,-5.3518,-5.3518,-5.3518,-5.3518,-5.3518,-5.3518,-5.3518,-5.3518,-5.3518,-5.3518,-5.3518,-5.3518,-5.3518,-5.3518,-5.3518,-5.3518,-5.3518,-5.3518,-5.3518,-5.3518,-5.3518,-5.3518,-5.3518,-5.3518,-5.3518,-5.3518,-5.3518,-5.3518,-5.3518,-5.3518,-5.3518,-5.3518,-5.3518,-5.3518,-5.3518,-4.5115,-4.5115,-4.5011,-4.4701,-4.4572,-4.4318,-4.3664,-4.3515,-4.3515,-4.3515,-4.3515,-4.3718,-4.4415,-4.4635,-4.5168,-4.6709,-4.7626,-4.8746,-5.0398,-5.1316,-5.2123,-5.2968,-5.4546,-5.5596,-5.5596,-5.7042,-5.7997,-5.7997,-5.7997,-5.7997,-5.7997,-5.7997,-5.7997,-5.7997,-5.7997,-5.7997,-5.7997,-5.7997,-5.7997,-5.7997,-5.7997,-5.7997,-5.7997,-5.7997,-5.7997,-5.7997,-5.7997,0.0,-5.7997,-5.7997,-5.7997,-5.7997,-5.7997,-5.7997,-5.7997,-5.7997,-5.7997,-5.7997,-5.7997,-5.7997,-5.7997,-5.7997,-5.7997,-5.7973,-5.7867,-5.7401,-5.6695,-5.5808,-5.5084,-5.4419,-5.3684,-5.3518,-5.3518,-5.3518,-5.3518,-5.3518,-5.3518,-5.3518,-5.3518,-5.3518,-5.3518,-5.3518,-5.3518,-5.3518,-5.3518,-5.3518,-5.3518,-5.3518,-5.3518,-5.3518,-5.3518,-5.3518,-5.3518,-5.3518,-5.3518,-5.3518,-5.3518,-5.3518,-5.3518,-5.3518,-5.3518,-5.3518,-5.3518,-5.3518,-5.3518,-5.3518,-5.3518,-5.3518,-5.3518,-5.3518,-5.3518,-5.3518,-4.5115,-4.5115,-4.5011,-4.4701,-4.4346,-4.402,-4.3597,-4.3515,-4.3515,-4.3515,-4.3515,-4.3551,-4.3681,-4.4268,-4.5002,-4.5957,-4.6782,-4.7902,-4.9574,-5.0508,-5.1316,-5.2087,-5.4237,-5.5596,-5.5596,-5.7042,-5.7997,-5.7997,-5.7997,-5.7997,-5.7997,-5.7997,-5.7997,-5.7997,-5.7997,-5.7997,-5.7997,-5.7997,-5.7997,-5.7997,-5.7997,-5.7997,-5.7997,-5.7997,-5.7997,-5.7997,-5.7997,0.0,-5.7997,-5.7997,-5.7997,-5.7997,-5.7997,-5.7997,-5.7997,-5.7997,-5.7997,-5.7997,-5.7997,-5.7997,-5.7997,-5.7997,-5.7997,-5.7904,-5.7277,-5.6989,-5.6616,-5.5208,-5.4695,-5.4419,-5.3684,-5.3518,-5.3518,-5.3518,-5.3518,-5.3518,-5.3518,-5.3518,-5.3518,-5.3518,-5.3518,-5.3518,-5.3518,-5.3518,-5.3518,-5.3518,-5.3518,-5.3518,-5.3518,-5.3518,-5.3518,-5.3518,-5.3518,-5.3518,-5.3518,-5.3518,-5.3518,-5.3518,-5.3518,-5.3518,-5.3518,-5.3518,-5.3518,-5.3518,-5.3518,-5.3518,-5.3518,-5.3518,-5.3518,-5.3518,-5.3518,-5.3518,-4.4931,-4.4966,-4.4966,-4.4414,-4.4132,-4.3927,-4.358,-4.3515,-4.3515,-4.3515,-4.3515,-4.3515,-4.3515,-4.3828,-4.4342,-4.5149,-4.5957,-4.7058,-4.8673,-4.9994,-5.1096,-5.1903,-5.4106,-5.5596,-5.5596,-5.7042,-5.7997,-5.7997,-5.7997,-5.7997,-5.7997,-5.7997,-5.7997,-5.7997,-5.7997,-5.7997,-5.7997,-5.7997,-5.7997,-5.7997,-5.7997,-5.7997,-5.7997,-5.7997,-5.7997,-5.7997,-5.7997,0.0,-5.7997,-5.7997,-5.7997,-5.7997,-5.7997,-5.7997,-5.7997,-5.7997,-5.7997,-5.7997,-5.7997,-5.7997,-5.7997,-5.7997,-5.7997,-5.795,-5.7607,-5.6902,-5.6122,-5.5379,-5.4637,-5.3946,-5.3584,-5.3518,-5.3518,-5.3518,-5.3518,-5.3518,-5.3518,-5.3518,-5.3518,-5.3518,-5.3518,-5.3518,-5.3518,-5.3518,-5.3518,-5.3518,-5.3518,-5.3518,-5.3518,-5.3518,-5.3518,-5.3518,-5.3518,-5.3518,-5.3518,-5.3518,-5.3518,-5.3518,-5.3518,-5.3518,-5.3518,-5.3518,-5.3518,-5.3518,-5.3518,-5.3518,-5.3518,-5.3518,-5.3518,-5.3518,-5.3518,-5.3518,-4.4751,-4.48,-4.4849,-4.4161,-4.3958,-4.3781,-4.3326,-4.3258,-4.3167,-4.302,-4.2983,-4.2983,-4.2983,-4.313,-4.3497,-4.4305,-4.5112,-4.6214,-4.7829,-4.9481,-5.0839,-5.1646,-5.4054,-5.5596,-5.5596,-5.7042,-5.7997,-5.7997,-5.7997,-5.7997,-5.7997,-5.7997,-5.7997,-5.7997,-5.7997,-5.7997,-5.7997,-5.7997,-5.7997,-5.7997,-5.7997,-5.7997,-5.7997,-5.7997,-5.7997,-5.7997,-5.7997,0.0,0.0,-5.7997,-5.7997,-5.7997,-5.7997,-5.7997,-5.7997,-5.7997,-5.7997,-5.7997,-5.7997,-5.7997,-5.7997,-5.7997,-5.7997,-5.7973,-5.7797,-5.6927,-5.5893,-5.5552,-5.4637,-5.3684,-5.3517,-5.3518,-5.3518,-5.3518,-5.3518,-5.3518,-5.3518,-5.3518,-5.3518,-5.3518,-5.3518,-5.3518,-5.3518,-5.3518,-5.3518,-5.3518,-5.3518,-5.3518,-5.3518,-5.3518,-5.3518,-5.3518,-5.3518,-5.3518,-5.3518,-5.3518,-5.3518,-5.3518,-5.3518,-5.3518,-5.3518,-5.3518,-5.3518,-5.3518,-5.3518,-5.3518,-5.3518,-5.3518,-5.3518,-5.3518,-5.3518,-5.3518,-4.4624,-4.4637,-4.4521,-4.4102,-4.3791,-4.3345,-4.2597,-4.2396,-4.2213,-4.1462,-4.1315,-4.1315,-4.1315,-4.1919,-4.2653,-4.3461,-4.4305,-4.5351,-4.6966,-4.8636,-5.0014,-5.0802,-5.3665,-5.5596,-5.5596,-5.7042,-5.7997,-5.7997,-5.7997,-5.7997,-5.7997,-5.7997,-5.7997,-5.7997,-5.7997,-5.7997,-5.7997,-5.7997,-5.7997,-5.7997,-5.7997,-5.7997,-5.7997,-5.7997,-5.7997,-5.7997,-5.7997,0.0,0.0,-5.7997,-5.7997,-5.7997,-5.7997,-5.7997,-5.7997,-5.7997,-5.7997,-5.7997,-5.7997,-5.7997,-5.7997,-5.7997,-5.7997,-5.7904,-5.7191,-5.6912,-5.651,-5.5089,-5.4606,-5.4359,-5.3651,-5.3518,-5.3518,-5.3518,-5.3518,-5.3518,-5.3518,-5.3518,-5.3518,-5.3518,-5.3518,-5.3518,-5.3518,-5.3518,-5.3518,-5.3518,-5.3518,-5.3518,-5.3518,-5.3518,-5.3518,-5.3518,-5.3518,-5.3518,-5.3518,-5.3518,-5.3518,-5.3518,-5.3518,-5.3518,-5.3518,-5.3518,-5.3518,-5.3518,-5.3518,-5.3518,-5.3518,-5.3518,-5.3518,-5.3518,-5.3518,-5.3518,-4.4726,-4.4612,-4.4428,-4.3871,-4.3229,-4.269,-4.2359,-4.1919,-4.1499,-4.1168,-4.1095,-4.1095,-4.1095,-4.1772,-4.2396,-4.2727,-4.3864,-4.5095,-4.6214,-4.8196,-4.9848,-5.0692,-5.3628,-5.5596,-5.5596,-5.7042,-5.7997,-5.7997,-5.7997,0.0,-5.7997,-5.7997,-5.7997,-5.7997,-5.7997,-5.7997,-5.7997,-5.7997,-5.7997,-5.7997,-5.7997,-5.7997,-5.7997,-5.7997,-5.7997,-5.7997,-5.7997,0.0,0.0,-5.7997,-5.7997,-5.7997,-5.7997,-5.7997,-5.7997,-5.7997,-5.7997,-5.7997,-5.7997,-5.7997,-5.7997,-5.7997,-5.7997,-5.795,-5.7655,-5.7277,-5.6783,-5.615,-5.5326,-5.4544,-5.4232,-5.3815,-5.3518,-5.3518,-5.3518,-5.3518,-5.3518,-5.3518,-5.3518,-5.3518,-5.3518,-5.3518,-5.3518,-5.3518,-5.3518,-5.3518,-5.3518,-5.3518,-5.3518,-5.3518,-5.3518,-5.3518,-5.3518,-5.3518,-5.3518,-5.3518,-5.3518,-5.3518,-5.3518,-5.3518,-5.3518,-5.3518,-5.3518,-5.3518,-5.3518,-5.3518,-5.3518,-5.3518,-5.3518,-5.3518,-5.3518,-5.3518,-4.4739,-4.4495,-4.4261,-4.3664,-4.291,-4.2249,-4.1992,-4.1332,-4.0634,-4.012,-4.023,-4.0341,-4.0084,-4.1075,-4.1956,-4.1956,-4.3314,-4.4709,-4.5736,-4.7755,-4.9554,-5.0655,-5.3628,-5.5596,-5.5596,-5.7042,-5.7997,-5.7997,-5.7997,0.0,-5.7997,-5.7997,-5.7997,-5.7997,-5.7997,-5.7997,-5.7997,-5.7997,-5.7997,-5.7997,-5.7997,-5.7997,-5.7997,-5.7997,-5.7997,-5.7997,-5.7997,0.0,0.0,-5.7997,-5.7997,-5.7997,-5.7997,-5.7997,-5.7997,-5.7997,-5.7997,-5.7997,-5.7997,-5.7997,-5.7997,-5.7997,-5.7997,-5.7997,-5.7997,-5.7655,-5.7166,-5.6964,-5.5787,-5.4575,-5.4328,-5.3881,-5.3518,-5.3518,-5.3518,-5.3518,-5.3518,-5.3518,-5.3518,-5.3518,-5.3518,-5.3518,-5.3518,-5.3518,-5.3518,-5.3518,-5.3518,-5.3518,-5.3518,-5.3518,-5.3518,-5.3518,-5.3518,-5.3518,-5.3518,-5.3518,-5.3518,-5.3518,-5.3518,-5.3518,-5.3518,-5.3518,-5.3518,-5.3518,-5.3518,-5.3518,-5.3518,-5.3518,-5.3518,-5.3518,-5.3518,-5.3518,-4.4612,-4.4304,-4.3943,-4.358,-4.291,-4.2103,-4.1279,-4.0487,-3.946,-3.786,-3.8175,-3.8469,-3.7676,-3.9496,-4.1095,-4.1095,-4.247,-4.4065,-4.5663,-4.7278,-4.893,-5.0618,-5.3628,-5.5596,-5.5596,-5.7042,-5.7997,-5.7997,-5.7997,0.0,-5.7997,-5.7997,-5.7997,-5.7997,-5.7997,-5.7997,-5.7997,-5.7997,-5.7997,-5.7997,-5.7997,-5.7997,-5.7997,-5.7997,-5.7997,0.0,0.0,0.0,0.0,-5.7997,-5.7997,-5.7997,-5.7997,-5.7997,-5.7997,-5.7997,-5.7997,-5.7997,-5.7997,-5.7997,-5.7997,-5.7997,-5.7997,-5.7997,-5.7997,-5.7997,-5.7821,-5.7091,-5.5787,-5.4419,-5.3684,-5.3518,-5.3518,-5.3518,-5.3518,-5.3518,-5.3518,-5.3518,-5.3518,-5.3518,-5.3518,-5.3518,-5.3518,-5.3518,-5.3518,-5.3518,-5.3518,-5.3518,-5.3518,-5.3518,-5.3518,-5.3518,-5.3518,-5.3518,-5.3518,-5.3518,-5.3518,-5.3518,-5.3518,-5.3518,-5.3518,-5.3518,-5.3518,-5.3518,-5.3518,-5.3518,-5.3518,-5.3518,-5.3518,-5.3518,-5.3518,-5.3518,-4.3227,-4.2949,-4.264,-4.2292,-4.143,-4.0598,-4.0341,-3.9349,-3.8321,-3.7647,-3.7866,-3.8025,-3.7573,-3.946,-4.1095,-4.1095,-4.2433,-4.4048,-4.5663,-4.7278,-4.893,-5.0618,-5.3628,-5.6014,-5.7116,-5.7703,-5.7997,-5.7997,0.0,0.0,-5.7997,-5.7997,-5.7997,-5.7997,-5.7997,-5.7997,-5.7997,-5.7997,-5.7997,-5.7997,-5.7997,-5.7997,-5.7997,-5.7997,-5.7997,0.0,0.0,0.0,0.0,-5.7997,-5.7997,-5.7997,-5.7997,-5.7997,-5.7997,-5.7997,-5.7997,-5.7997,-5.7997,-5.7997,-5.7997,-5.7997,-5.7997,-5.7997,-5.7997,-5.7997,-5.775,-5.6447,-5.5724,-5.5089,-5.3816,-5.3518,-5.3518,-5.3518,-5.3518,-5.3518,-5.3518,-5.3518,-5.3518,-5.3518,-5.3518,-5.3518,-5.3518,-5.3518,-5.3518,-5.3518,-5.3518,-5.3518,-5.3518,-5.3518,-5.3518,-5.3518,-5.3518,-5.3518,-5.3518,-5.3518,-5.3518,-5.3518,-5.3518,-5.3518,-5.3518,-5.3518,-5.3518,-5.3518,-5.3518,-5.3518,-5.3518,-5.3518,-5.3518,-5.3518,-5.3518,-5.3518,-4.2354,-4.2295,-4.1996,-4.1798,-4.0894,-4.0059,-4.0059,-3.9083,-3.8071,-3.761,-3.7889,-3.8071,-3.761,-3.946,-4.1095,-4.1095,-4.269,-4.4415,-4.57,-4.7572,-4.9738,-5.2307,-5.4363,-5.6235,-5.785,-5.7997,-5.7997,0.0,0.0,0.0,-5.7997,-5.7997,-5.7997,-5.7997,-5.7997,-5.7997,-5.7997,-5.7997,-5.7997,-5.7997,-5.7997,-5.7997,-5.7997,-5.7997,-5.7997,0.0,0.0,0.0,0.0,-5.7997,-5.7997,-5.7997,-5.7997,-5.7997,-5.7997,-5.7997,-5.7997,-5.7997,-5.7997,-5.7997,-5.7997,-5.7997,-5.7997,-5.7997,-5.7997,-5.7997,-5.7666,-5.6141,-5.5724,-5.535,-5.3881,-5.3518,-5.3518,-5.3518,-5.3518,-5.3518,-5.3518,-5.3518,-5.3518,-5.3518,-5.3518,-5.3518,-5.3518,-5.3518,-5.3518,-5.3518,-5.3518,-5.3518,-5.3518,-5.3518,-5.3518,-5.3518,-5.3518,-5.3518,-5.3518,-5.3518,-5.3518,-5.3518,-5.3518,-5.3518,-5.3518,-5.3518,-5.3518,-5.3518,-5.3518,-5.3518,-5.3518,-5.3518,-5.3518,-5.3518,-5.3518,-5.3518,0.0,-4.2079,-4.1857,-4.1832,-4.1025,-4.0207,-4.0207,-3.9408,0.0,-3.7684,-3.8162,-3.8529,-3.7728,-3.957,-4.1168,-4.1168,-4.315,-4.5002,-4.5847,-4.8178,-5.1226,-5.5155,-5.5596,-5.6235,-5.785,-5.7997,-5.7997,0.0,0.0,0.0,-5.7997,-5.7997,-5.7997,-5.7997,-5.7997,-5.7997,-5.7997,-5.7997,-5.7997,-5.7997,-5.7997,-5.7997,-5.7997,-5.7997,-5.7997,0.0,0.0,0.0,0.0,-5.7997,-5.7997,-5.7997,-5.7997,-5.7997,-5.7997,-5.7997,-5.7997,-5.7997,-5.7997,-5.7997,-5.7997,-5.7997,-5.7997,-5.7997,-5.7997,-5.7997,-5.7666,-5.6196,-5.5752,-5.5379,-5.3946,-5.3517,-5.3518,-5.3518,-5.3518,-5.3518,-5.3518,-5.3518,-5.3518,-5.3518,-5.3518,-5.3518,-5.3518,-5.3518,-5.3518,-5.3518,-5.3518,-5.3518,-5.3518,-5.3518,-5.3518,-5.3518,-5.3518,-5.3518,-5.3518,-5.3518,-5.3518,-5.3518,-5.3518,-5.3518,-5.3518,-5.3518,-5.3518,-5.3518,-5.3518,-5.3518,-5.3518,-5.3518,-5.3518,-5.3518,-5.3518,-5.3518,-3.9906,0.0,-4.049,-4.0231,-3.9777,-3.9378,0.0,-3.8863,-3.8278,-3.7896,-3.86,-3.9122,-3.8538,-4.0377,-4.2029,-4.2029,-4.3534,-4.5205,-4.6599,-4.9481,-5.2475,-5.5265,-5.5596,-5.6235,-5.785,-5.7997,0.0,0.0,0.0,-5.7997,-5.7997,-5.7997,-5.7997,-5.7997,-5.7997,-5.7997,-5.7997,-5.7997,-5.7997,-5.7997,-5.7997,-5.7997,-5.7997,-5.7997,-5.7997,0.0,0.0,0.0,-5.7997,-5.7997,-5.7997,-5.7997,-5.7997,-5.7997,-5.7997,-5.7997,-5.7997,-5.7997,-5.7997,-5.7997,-5.7997,-5.7997,-5.7997,-5.7997,-5.7997,-5.7997,-5.7797,-5.6876,-5.6141,-5.5495,-5.4575,-5.3913,-5.3518,-5.3518,-5.3518,-5.3518,-5.3518,-5.3518,-5.3518,-5.3518,-5.3518,-5.3518,-5.3518,-5.3518,-5.3518,-5.3518,-5.3518,-5.3518,-5.3518,-5.3518,-5.3518,-5.3518,-5.3518,-5.3518,-5.3518,-5.3518,-5.3518,-5.3518,-5.3518,-5.3518,-5.3518,-5.3518,-5.3518,-5.3518,-5.3518,-5.3518,-5.3518,-5.3518,-5.3518,-5.3518,-5.3518,-5.3518,-3.9092,-3.9775,-4.0194,-3.9893,-3.9709,-3.951,-3.9364,-3.9425,-3.9411,-3.9072,-3.9786,-4.0331,-3.9899,-4.1185,-4.2433,-4.28,-4.4195,-4.6104,-4.8434,-5.0949,-5.3298,-5.5376,-5.5941,-5.6638,0.0,0.0,0.0,0.0,0.0,-5.7997,-5.7997,-5.7997,-5.7997,-5.7997,-5.7997,-5.7997,-5.7997,-5.7997,-5.7997,-5.7997,-5.7997,-5.7997,-5.7997,-5.7997,-5.7997,0.0,0.0,0.0,-5.7997,-5.7997,-5.7997,-5.7997,-5.7997,-5.7997,-5.7997,-5.7997,-5.7997,-5.7997,-5.7997,-5.7997,-5.7997,-5.7997,-5.7997,-5.7997,-5.7997,-5.7997,-5.7821,-5.7091,-5.6313,-5.5552,-5.4787,-5.4042,-5.3518,-5.3518,-5.3518,-5.3518,-5.3518,-5.3518,-5.3518,-5.3518,-5.3518,-5.3518,-5.3518,-5.3518,-5.3518,-5.3518,-5.3518,-5.3518,-5.3518,-5.3518,-5.3518,-5.3518,-5.3518,-5.3518,-5.3518,-5.3518,-5.3518,-5.3518,-5.3518,-5.3518,-5.3518,-5.3518,-5.3518,-5.3518,-5.3518,-5.3518,-5.3518,-5.3518,-5.3518,-5.3518,-5.3518,-5.3518,-3.87,-3.99,-4.0606,-4.0139,-4.0052,-4.005,-3.9849,-4.0358,-4.084,-4.0632,-4.1208,-4.1698,-4.1323,-4.2029,-4.2873,-4.3571,-4.5259,-4.7535,-5.0545,-5.238,-5.3922,-5.5427,-5.6308,0.0,-5.7923,0.0,0.0,0.0,0.0,-5.7997,-5.7997,-5.7997,-5.7997,-5.7997,-5.7997,-5.7997,-5.7997,-5.7997,-5.7997,-5.7997,-5.7997,-5.7997,-5.7997,-5.7997,-5.7997,-5.7997,0.0,0.0,-5.7997,-5.7997,-5.7997,-5.7997,-5.7997,-5.7997,-5.7997,-5.7997,-5.7997,-5.7997,-5.7997,-5.7997,-5.7997,-5.7997,-5.7997,-5.7997,-5.7997,-5.7997,-5.7881,-5.7252,-5.6501,-5.5752,-5.5119,-5.4391,-5.3816,-5.3684,-5.3685,-5.3651,-5.3517,-5.3518,-5.3518,-5.3518,-5.3518,-5.3518,-5.3518,-5.3518,-5.3518,-5.3518,-5.3518,-5.3518,-5.3518,-5.3518,-5.3518,-5.3518,-5.3518,-5.3518,-5.3518,-5.3518,-5.3518,-5.3518,-5.3518,-5.3518,-5.3518,-5.3518,-5.3518,-5.3518,-5.3518,-5.3518,-5.3518,-5.3518,-5.3518,-5.3518,-5.3518,-5.3518,-3.8123,-3.9854,-4.1294,-4.0019,-3.9872,-4.0203,-4.0617,-4.075,-4.1016,-4.1695,-4.2258,-4.2492,-4.2169,-4.3351,-4.4361,-4.4525,-4.7058,-4.9684,-5.1536,-5.3188,-5.4546,-5.5486,0.0,-5.7116,0.0,0.0,0.0,0.0,0.0,-5.7997,-5.7997,-5.7997,-5.7997,-5.7997,-5.7997,-5.7997,-5.7997,-5.7997,-5.7997,-5.7997,-5.7997,-5.7997,-5.7997,-5.7997,-5.7997,-5.7997,0.0,-5.7997,-5.7997,-5.7997,-5.7997,-5.7997,-5.7997,-5.7997,-5.7997,-5.7997,-5.7997,-5.7997,-5.7997,-5.7997,-5.7997,-5.7997,-5.7997,-5.7997,-5.7997,-5.7997,-5.7973,-5.7844,-5.7266,-5.6668,-5.6589,-5.5956,-5.5203,-5.4575,-5.4419,-5.4264,-5.3651,-5.3518,-5.3518,-5.3518,-5.3518,-5.3518,-5.3518,-5.3518,-5.3518,-5.3518,-5.3518,-5.3518,-5.3518,-5.3518,-5.3518,-5.3518,-5.3518,-5.3518,-5.3518,-5.3518,-5.3518,-5.3518,-5.3518,-5.3518,-5.3518,-5.3518,-5.3518,-5.3518,-5.3518,-5.3518,-5.3518,-5.3518,-5.3518,-5.3518,-5.3518,-5.3518,-3.7853,-3.9508,-4.0978,-4.0397,-4.0816,-4.1369,-4.1318,-4.1731,-4.2209,-4.2439,-4.3005,-4.3472,-4.3566,-4.4195,-4.5149,-4.6415,-4.904,-5.1316,-5.2491,-5.4032,-5.5354,-5.6161,0.0,0.0,0.0,0.0,0.0,0.0,0.0,0.0,-5.7997,-5.7997,-5.7997,-5.7997,-5.7997,-5.7997,-5.7997,-5.7997,-5.7997,-5.7997,-5.7997,-5.7997,-5.7997,-5.7997,-5.7997,-5.7997,0.0,-5.7997,-5.7997,-5.7997,-5.7997,-5.7997,-5.7997,-5.7997,-5.7997,-5.7997,-5.7997,-5.7997,-5.7997,-5.7997,-5.7997,-5.7997,-5.7997,-5.7997,-5.7997,-5.7997,-5.7997,-5.7997,-5.7474,-5.6912,-5.6912,-5.6313,-5.5524,-5.4787,-5.4606,-5.4388,-5.3685,-5.3518,-5.3518,-5.3518,-5.3518,-5.3518,-5.3518,-5.3518,-5.3518,-5.3518,-5.3518,-5.3518,-5.3518,-5.3518,-5.3518,-5.3518,-5.3518,-5.3518,-5.3518,-5.3518,-5.3518,-5.3518,-5.3518,-5.3518,-5.3518,-5.3518,-5.3518,-5.3518,-5.3518,-5.3518,-5.3518,-5.3518,-5.3518,-5.3518,-5.3518,-5.3518,-3.8315,-3.9815,-4.1187,-4.1461,-4.1998,-4.2389,-4.1992,-4.2557,-4.323,-4.3342,-4.3779,-4.4325,-4.4872,-4.5296,-4.6361,-4.8783,-5.0912,-5.2564,-5.3371,-5.4876,-5.6088,-5.6748,-5.7519,0.0,0.0,0.0,0.0,0.0,0.0,0.0,-5.7997,-5.7997,-5.7997,-5.7997,-5.7997,-5.7997,-5.7997,-5.7997,-5.7997,-5.7997,-5.7997,-5.7997,-5.7997,-5.7997,-5.7997,-5.7997,-5.7997,-5.7997,-5.7997,-5.7997,-5.7997,-5.7997,-5.7997,-5.7997,-5.7997,-5.7997,-5.7997,-5.7997,-5.7997,-5.7997,-5.7997,-5.7997,-5.7997,-5.7997,-5.7997,-5.7997,-5.7997,-5.7997,-5.757,-5.7141,-5.7141,-5.6685,-5.6059,-5.5291,-5.5149,-5.4878,-5.3979,-5.375,-5.3684,-5.3517,-5.3518,-5.3518,-5.3518,-5.3518,-5.3518,-5.3518,-5.3518,-5.3518,-5.3518,-5.3518,-5.3518,-5.3518,-5.3518,-5.3518,-5.3518,-5.3518,-5.3518,-5.3518,-5.3518,-5.3518,-5.3518,-5.3518,-5.3518,-5.3518,-5.3518,-5.3518,-5.3518,-5.3518,-5.3518,-5.3518,-5.3518,-5.3518,-3.99,-4.1585,-4.3026,-4.3469,-4.3025,-4.2552,-4.2693,-4.2768,-4.3238,-4.4727,-4.4814,-4.4891,-4.5663,-4.7021,-4.8857,-5.1316,-5.2527,-5.3408,-5.4216,0.0,-5.6748,-5.6785,0.0,0.0,0.0,0.0,0.0,0.0,0.0,0.0,-5.7997,-5.7997,-5.7997,-5.7997,-5.7997,-5.7997,-5.7997,-5.7997,-5.7997,-5.7997,-5.7997,-5.7997,-5.7997,-5.7997,-5.7997,-5.7997,-5.7997,-5.7997,-5.7997,-5.7997,-5.7997,-5.7997,-5.7997,-5.7997,-5.7997,-5.7997,-5.7997,-5.7997,-5.7997,-5.7997,-5.7997,-5.7997,-5.7997,-5.7997,-5.7997,-5.7997,-5.7997,-5.7997,-5.7973,-5.7927,-5.7927,-5.7867,-5.7642,-5.6912,-5.6721,-5.6349,-5.4818,-5.4513,-5.4328,-5.3651,-5.3518,-5.3518,-5.3518,-5.3518,-5.3518,-5.3518,-5.3518,-5.3518,-5.3518,-5.3518,-5.3518,-5.3518,-5.3518,-5.3518,-5.3518,-5.3518,-5.3518,-5.3518,-5.3518,-5.3518,-5.3518,-5.3518,-5.3518,-5.3518,-5.3518,-5.3518,-5.3518,-5.3518,-5.3518,-5.3518,-5.3518,-5.3518,-4.0054,-4.1592,-4.291,-4.3639,-4.4197,-4.4461,-4.4027,-4.4101,-4.4528,-4.5406,-4.5514,-4.5847,-4.7168,-4.915,-5.1059,-5.2527,-5.3408,-5.4399,-5.5721,-5.6418,-5.7005,0.0,0.0,0.0,0.0,0.0,0.0,0.0,0.0,0.0,-5.7997,-5.7997,-5.7997,-5.7997,-5.7997,-5.7997,-5.7997,-5.7997,-5.7997,-5.7997,-5.7997,-5.7997,-5.7997,-5.7997,-5.7997,-5.7997,-5.7997,-5.7997,-5.7997,-5.7997,-5.7997,-5.7997,-5.7997,-5.7997,-5.7997,-5.7997,-5.7997,-5.7997,-5.7997,-5.7997,-5.7997,-5.7997,-5.7997,-5.7997,-5.7997,-5.7997,-5.7997,-5.7997,-5.7997,-5.7997,-5.7997,-5.7997,-5.7797,-5.7065,-5.6912,-5.6589,-5.5524,-5.4939,-5.4513,-5.4232,-5.4168,-5.4042,-5.3584,-5.3881,-5.4009,-5.3551,-5.3518,-5.3518,-5.3518,-5.3518,-5.3518,-5.3518,-5.3518,-5.3518,-5.3518,-5.3518,-5.3518,-5.3518,-5.3518,-5.3518,-5.3518,-5.3518,-5.3518,-5.3518,-5.3518,-5.3518,-5.3518,-5.3518,-5.3518,-5.3518,-5.3518,-5.3518,-4.0573,-4.1904,-4.2918,-4.3944,-4.5179,-4.5984,-4.5451,-4.5457,-4.5752,-4.6298,-4.6979,-4.7865,-4.9224,-5.1279,-5.2931,-5.3482,-5.4473,-5.5537,-5.6638,-5.7042,0.0,0.0,0.0,0.0,0.0,0.0,0.0,0.0,0.0,0.0,0.0,-5.7997,-5.7997,-5.7997,-5.7997,-5.7997,-5.7997,-5.7997,-5.7997,-5.7997,-5.7997,-5.7997,-5.7997,-5.7997,-5.7997,-5.7997,-5.7997,-5.7997,-5.7997,-5.7997,-5.7997,-5.7997,-5.7997,-5.7997,-5.7997,-5.7997,-5.7997,-5.7997,-5.7997,-5.7997,-5.7997,-5.7997,-5.7997,-5.7997,-5.7997,-5.7997,-5.7997,-5.7997,-5.7997,-5.7997,-5.7997,-5.7997,-5.7844,-5.7376,-5.7252,-5.704,-5.6259,-5.5667,-5.5267,-5.4999,-5.4969,-5.4787,-5.4264,-5.4419,-5.4419,-5.3913,-5.3651,-5.3518,-5.3518,-5.3518,-5.3518,-5.3518,-5.3518,-5.3518,-5.3518,-5.3518,-5.3518,-5.3518,-5.3518,-5.3518,-5.3518,-5.3518,-5.3518,-5.3518,-5.3518,-5.3518,-5.3518,-5.3518,-5.3518,-5.3518,-5.3518,-5.3518,-4.1705,-4.2785,-4.3449,-4.477,-4.6013,-4.6923,-4.6923,-4.6721,-4.677,-4.7537,-4.9381,-5.1059,-5.1867,-5.3335,-5.4399,-5.4436,-5.5757,-5.6822,-5.6822,0.0,0.0,0.0,0.0,0.0,0.0,0.0,0.0,0.0,0.0,0.0,0.0,-5.7997,-5.7997,-5.7997,-5.7997,-5.7997,-5.7997,-5.7997,-5.7997,-5.7997,-5.7997,-5.7997,-5.7997,-5.7997,-5.7997,-5.7997,-5.7997,-5.7997,-5.7997,-5.7997,-5.7997,-5.7997,-5.7997,-5.7997,-5.7997,-5.7997,-5.7997,-5.7997,-5.7997,-5.7997,-5.7997,-5.7997,-5.7997,-5.7997,-5.7997,-5.7997,-5.7997,-5.7997,-5.7997,-5.7997,-5.7997,-5.7997,-5.7997,-5.7997,-5.7997,-5.7797,-5.7065,-5.6912,-5.6668,-5.5865,-5.5724,-5.5724,-5.5724,-5.5084,-5.4637,-5.4606,-5.3979,-5.3518,-5.3518,-5.3518,-5.3518,-5.3518,-5.3518,-5.3518,-5.3518,-5.3518,-5.3518,-5.3518,-5.3518,-5.3518,-5.3518,-5.3518,-5.3518,-5.3518,-5.3518,-5.3518,-5.3518,-5.3518,-5.3518,-5.3518,-5.3518,-5.3518,-4.2194,-4.3245,-4.3876,-4.5151,-4.6444,-4.7448,-4.7703,-4.8161,-4.8787,-4.9695,-5.1008,-5.2174,-5.2737,-5.3702,-5.4766,-5.5904,-5.6492,-5.7005,0.0,0.0,0.0,0.0,0.0,0.0,0.0,0.0,0.0,0.0,0.0,0.0,0.0,-5.7997,-5.7997,-5.7997,-5.7997,-5.7997,-5.7997,-5.7997,-5.7997,-5.7997,-5.7997,-5.7997,-5.7997,-5.7997,-5.7997,-5.7997,-5.7997,-5.7997,-5.7997,-5.7997,-5.7997,-5.7997,-5.7997,-5.7997,-5.7997,-5.7997,-5.7997,-5.7997,-5.7997,-5.7997,-5.7997,-5.7997,-5.7997,-5.7997,-5.7997,-5.7997,-5.7997,-5.7997,-5.7997,-5.7997,-5.7997,-5.7997,-5.7997,-5.7997,-5.7997,-5.795,-5.7726,-5.7277,-5.6835,-5.6589,-5.6563,-5.6367,-5.5808,-5.6012,-5.5844,-5.4757,-5.4388,-5.4074,-5.3551,-5.3518,-5.3518,-5.3518,-5.3518,-5.3518,-5.3518,-5.3518,-5.3518,-5.3518,-5.3518,-5.3518,-5.3518,-5.3518,-5.3518,-5.3518,-5.3518,-5.3518,-5.3518,-5.3518,-5.3518,-5.3518,-5.3518,-5.3518,-4.2197,-4.3436,-4.4211,-4.516,-4.6597,-4.8175,-4.9548,-4.9886,-5.0193,-5.1074,-5.233,-5.3336,-5.3597,-5.4876,-5.6051,-5.6712,-5.7079,-5.7446,0.0,0.0,0.0,0.0,0.0,0.0,0.0,0.0,0.0,0.0,0.0,0.0,0.0,-5.7997,-5.7997,-5.7997,-5.7997,-5.7997,-5.7997,-5.7997,-5.7997,-5.7997,-5.7997,-5.7997,-5.7997,-5.7997,-5.7997,-5.7997,-5.7997,-5.7997,-5.7997,-5.7997,-5.7997,-5.7997,-5.7997,-5.7997,-5.7997,-5.7997,-5.7997,-5.7997,-5.7997,-5.7997,-5.7997,-5.7997,-5.7997,-5.7997,-5.7997,-5.7997,-5.7997,-5.7997,-5.7997,-5.7997,-5.7997,-5.7997,-5.7997,-5.7997,-5.7997,-5.7997,-5.7997,-5.7655,-5.7351,-5.7351,-5.7351,-5.7191,-5.6685,-5.6773,-5.6589,-5.5674,-5.4999,-5.4419,-5.3977,-5.3651,-5.3518,-5.3518,-5.3518,-5.3518,-5.3518,-5.3518,-5.3518,-5.3518,-5.3518,-5.3518,-5.3518,-5.3518,-5.3518,-5.3518,-5.3518,-5.3518,-5.3518,-5.3518,-5.3518,-5.3518,-5.3518,-5.3518,-4.1963,-4.3417,-4.4456,-4.4993,-4.6646,-4.8884,-5.1866,-5.1675,-5.1099,-5.2001,-5.3377,-5.4436,-5.4509,-5.6345,-5.7666,-5.7042,0.0,0.0,0.0,0.0,0.0,0.0,0.0,0.0,0.0,0.0,0.0,0.0,0.0,0.0,0.0,-5.7997,-5.7997,-5.7997,-5.7997,-5.7997,-5.7997,-5.7997,-5.7997,-5.7997,-5.7997,-5.7997,-5.7997,-5.7997,-5.7997,-5.7997,-5.7997,-5.7997,-5.7997,-5.7997,-5.7997,-5.7997,-5.7997,-5.7997,-5.7997,-5.7997,-5.7997,-5.7997,-5.7997,-5.7997,-5.7997,-5.7997,-5.7997,-5.7997,-5.7997,-5.7997,-5.7997,-5.7997,-5.7997,-5.7997,-5.7997,-5.7997,-5.7997,-5.7997,-5.7997,-5.7997,-5.7997,-5.7997,-5.7997,-5.7997,-5.7997,-5.7997,-5.7997,-5.7449,-5.6989,-5.6912,-5.5588,-5.4606,-5.4606,-5.3979,-5.3518,-5.3518,-5.3518,-5.3518,-5.3518,-5.3518,-5.3518,-5.3518,-5.3518,-5.3518,-5.3518,-5.3518,-5.3518,-5.3518,-5.3518,-5.3518,-5.3518,-5.3518,-5.3518,-5.3518,-5.3518,-5.3518,-4.2296,-4.3628,-4.45,-4.5293,-4.6819,-4.8795,-5.1433,-5.2106,-5.2428,-5.3236,-5.392,-5.4583,-5.5207,-5.6271,-5.7226,0.0,0.0,0.0,0.0,0.0,0.0,0.0,0.0,0.0,0.0,0.0,0.0,0.0,0.0,0.0,-5.7997,-5.7997,-5.7997,-5.7997,-5.7997,-5.7997,-5.7997,-5.7997,-5.7997,0.0,-5.7997,-5.7997,-5.7997,-5.7997,-5.7997,-5.7997,-5.7997,-5.7997,-5.7997,-5.7997,-5.7997,-5.7997,-5.7997,-5.7997,-5.7997,-5.7997,-5.7997,-5.7997,-5.7997,-5.7997,-5.7997,-5.7997,-5.7997,-5.7997,-5.7997,-5.7997,-5.7997,-5.7997,-5.7997,-5.7997,-5.7997,-5.7997,-5.7997,-5.7997,-5.7997,-5.7997,-5.7997,-5.7997,-5.7997,-5.7997,-5.7997,-5.7997,-5.7997,-5.7881,-5.7546,-5.6989,-5.5588,-5.4606,-5.4606,-5.3979,-5.3518,-5.3518,-5.3518,-5.3518,-5.3518,-5.3518,-5.3518,-5.3518,-5.3518,-5.3518,-5.3518,-5.3518,-5.3518,-5.3518,-5.3518,-5.3518,-5.3518,-5.3518,-5.3518,-5.3518,-5.3518,-5.3518,-4.2393,-4.3701,-4.4701,-4.6394,-4.7432,-4.8815,-5.1595,-5.242,-5.29,-5.3933,-5.4745,-5.5517,-5.6372,-5.6985,-5.7519,0.0,0.0,0.0,0.0,0.0,0.0,0.0,0.0,0.0,0.0,0.0,0.0,0.0,0.0,-5.7997,-5.7997,-5.7997,-5.7997,-5.7997,-5.7997,-5.7997,-5.7997,-5.7997,-5.7997,-5.7997,-5.7997,-5.7997,-5.7997,-5.7997,-5.7997,-5.7997,-5.7997,-5.7997,-5.7997,-5.7997,-5.7997,-5.7997,-5.7997,-5.7997,-5.7997,-5.7997,-5.7997,-5.7997,-5.7997,-5.7997,-5.7997,-5.7997,-5.7997,-5.7997,-5.7997,-5.7997,-5.7997,-5.7997,-5.7997,-5.7997,-5.7997,-5.7997,-5.7997,-5.7997,-5.7997,-5.7997,-5.7997,-5.7997,-5.7997,-5.7997,-5.7997,-5.7997,-5.7997,-5.7997,-5.7881,-5.7474,-5.6421,-5.5588,-5.5173,-5.4482,-5.3881,-5.3517,-5.3518,-5.3518,-5.3518,-5.3518,-5.3518,-5.3518,-5.3518,-5.3518,-5.3518,-5.3518,-5.3518,-5.3518,-5.3518,-5.3518,-5.3518,-5.3518,-5.3518,-5.3518,-5.3518,-5.3518,-4.2162,-4.3662,-4.5086,-4.7317,-4.8009,-4.8817,-5.1521,-5.245,-5.3047,-5.433,-5.5535,-5.6518,-5.7148,0.0,0.0,0.0,0.0,0.0,0.0,0.0,0.0,0.0,0.0,0.0,0.0,0.0,0.0,0.0,0.0,-5.7997,-5.7997,-5.7997,-5.7997,-5.7997,-5.7997,-5.7997,-5.7997,-5.7997,-5.7997,-5.7997,-5.7997,-5.7997,-5.7997,-5.7997,-5.7997,-5.7997,-5.7997,-5.7997,-5.7997,-5.7997,-5.7997,-5.7997,-5.7997,-5.7997,-5.7997,-5.7997,-5.7997,-5.7997,-5.7997,-5.7997,-5.7997,-5.7997,-5.7997,-5.7997,-5.7997,-5.7997,-5.7997,-5.7997,-5.7997,-5.7997,-5.7997,-5.7997,-5.7997,-5.7997,-5.7997,-5.7997,-5.7997,-5.7997,-5.7997,-5.7997,-5.7997,-5.7997,-5.7997,-5.7997,-5.7997,-5.7997,-5.7376,-5.6668,-5.5976,-5.5114,-5.4391,-5.375,-5.3584,-5.3518,-5.3518,-5.3518,-5.3518,-5.3518,-5.3518,-5.3518,-5.3518,-5.3518,-5.3518,-5.3518,-5.3518,-5.3518,-5.3518,-5.3518,-5.3518,-5.3518,-5.3518,-5.3518,-4.1277,-4.3662,-4.571,-4.6778,-4.7586,-4.851,-4.9995,-5.179,-5.3475,-5.4764,-5.5958,-5.6697,0.0,0.0,0.0,0.0,0.0,0.0,0.0,0.0,0.0,0.0,0.0,0.0,0.0,0.0,0.0,0.0,-5.7997,-5.7997,-5.7997,-5.7997,-5.7997,-5.7997,-5.7997,-5.7997,-5.7997,-5.7997,-5.7997,-5.7997,-5.7997,-5.7997,-5.7997,-5.7997,-5.7997,-5.7997,-5.7997,-5.7997,-5.7997,-5.7997,-5.7997,-5.7997,-5.7997,-5.7997,-5.7997,-5.7997,-5.7997,-5.7997,-5.7997,-5.7997,-5.7997,-5.7997,-5.7997,-5.7997,-5.7997,-5.7997,-5.7997,-5.7997,-5.7997,-5.7997,-5.7997,-5.7997,-5.7997,-5.7997,-5.7997,-5.7997,-5.7997,-5.7997,-5.7997,-5.7997,-5.7997,-5.7997,-5.7997,-5.7997,-5.7997,-5.7997,-5.7376,-5.6861,-5.6747,-5.5501,-5.4575,-5.4451,-5.3881,-5.3518,-5.3518,-5.3518,-5.3518,-5.3518,-5.3518,-5.3518,-5.3518,-5.3518,-5.3518,-5.3518,-5.3518,-5.3518,-5.3518,-5.3518,-5.3518,-5.3518,-5.3518,-5.3518,-4.17,-4.3662,-4.5201,-4.6547,-4.7509,-4.8433,-4.9728,-5.1671,-5.3426,-5.4218,-5.5744,-5.7111,0.0,0.0,0.0,0.0,0.0,0.0,0.0,0.0,0.0,0.0,0.0,0.0,0.0,0.0,0.0,0.0,-5.7997,-5.7997,-5.7997,-5.7997,-5.7997,-5.7997,-5.7997,-5.7997,-5.7997,-5.7997,-5.7997,-5.7997,-5.7997,-5.7997,-5.7997,-5.7997,-5.7997,-5.7997,-5.7997,-5.7997,-5.7997,-5.7997,-5.7997,-5.7997,-5.7997,-5.7997,-5.7997,-5.7997,-5.7997,-5.7997,-5.7997,-5.7997,-5.7997,-5.7997,-5.7997,-5.7997,-5.7997,-5.7997,-5.7997,-5.7997,-5.7997,-5.7997,-5.7997,-5.7997,-5.7997,-5.7997,-5.7997,-5.7997,-5.7997,-5.7997,-5.7997,-5.7997,-5.7997,-5.7997,-5.7997,-5.7997,-5.7997,-5.7997,-5.7726,-5.7376,-5.6964,-5.6322,-5.5731,-5.5262,-5.4544,-5.4106,-5.4106,-5.375,-5.3518,-5.3518,-5.3518,-5.3518,-5.3518,-5.3518,-5.3518,-5.3518,-5.3518,-5.3518,-5.3518,-5.3518,-5.3518,-5.3518,-5.3518,-5.3518,-4.17,-4.3355,-4.4624,-4.5893,-4.7009,-4.8107,-4.9258,-5.1114,-5.2756,0.0,-5.524,0.0,0.0,0.0,0.0,0.0,0.0,0.0,0.0,0.0,0.0,0.0,0.0,0.0,0.0,0.0,0.0,0.0,0.0,-5.8119,-5.7997,-5.7997,-5.7997,-5.7997,-5.7997,-5.7997,-5.7997,-5.7997,-5.7997,-5.7997,-5.7997,-5.7997,-5.7997,-5.7997,-5.7997,-5.7997,-5.7997,-5.7997,-5.7997,-5.7997,-5.7997,-5.7997,-5.7997,-5.7997,-5.7997,-5.7997,-5.7997,-5.7997,-5.7997,-5.7997,-5.7997,-5.7997,-5.7997,-5.7997,-5.7997,-5.7997,-5.7997,-5.7997,-5.7997,-5.7997,-5.7997,-5.7997,-5.7997,-5.7997,-5.7997,-5.7997,-5.7997,-5.7997,-5.7997,-5.7997,-5.7997,-5.7997,-5.7997,-5.7997,-5.7997,-5.7997,-5.7997,-5.7797,-5.7277,-5.7015,-5.6668,-5.6059,-5.5144,-5.4606,-5.4606,-5.3913,-5.3518,-5.3518,-5.3518,-5.3518,-5.3518,-5.3518,-5.3518,-5.3518,-5.3518,-5.3518,-5.3518,-5.3518,-5.3518,-5.3518,-5.3518,-5.3518,-4.04,-4.2439,-4.4316,-4.4393,-4.5701,-4.7192,-4.8029,-4.9577,-5.1279,-5.2913,-5.4577,0.0,0.0,0.0,0.0,0.0,0.0,0.0,0.0,0.0,0.0,0.0,0.0,0.0,0.0,0.0,0.0,0.0,0.0,-5.8482,-5.8042,-5.7997,-5.7997,-5.7997,-5.7997,-5.7997,-5.7997,-5.7997,-5.7997,-5.7997,-5.7997,-5.7997,-5.7997,-5.7997,-5.7997,-5.7997,-5.7997,-5.7997,-5.7997,-5.7997,-5.7997,-5.7997,-5.7997,-5.7997,-5.7997,-5.7997,-5.7997,-5.7997,-5.7997,-5.7997,-5.7997,-5.7997,-5.7997,-5.7997,-5.7997,-5.7997,-5.7997,-5.7997,-5.7997,-5.7997,-5.7997,-5.7997,-5.7997,-5.7997,-5.7997,-5.7997,-5.7997,-5.7997,-5.7997,-5.7997,-5.7997,-5.7997,-5.7997,-5.7997,-5.7997,-5.7997,-5.7997,-5.7997,-5.795,-5.7327,-5.6887,-5.6861,-5.5501,-5.4606,-5.4606,-5.3913,-5.3518,-5.3518,-5.3518,-5.3518,-5.3518,-5.3518,-5.3518,-5.3518,-5.3518,-5.3518,-5.3518,-5.3518,-5.3518,-5.3518,-5.3518,-5.3518,-3.9977,-4.1585,-4.297,-4.4047,-4.5624,-4.6962,-4.7269,-4.9086,-5.0866,-5.1471,0.0,0.0,0.0,0.0,0.0,0.0,0.0,0.0,0.0,0.0,0.0,0.0,0.0,0.0,0.0,0.0,0.0,0.0,0.0,0.0,-5.8461,-5.8164,-5.7997,-5.7997,-5.7997,-5.7997,-5.7997,-5.7997,-5.7997,-5.7997,-5.7997,-5.7997,-5.7997,-5.7997,-5.7997,-5.7997,-5.7997,-5.7997,-5.7997,-5.7997,-5.7997,-5.7997,-5.7997,-5.7997,-5.7997,-5.7997,-5.7997,-5.7997,-5.7997,-5.7997,-5.7997,-5.7997,-5.7997,-5.7997,-5.7997,-5.7997,-5.7997,-5.7997,-5.7997,-5.7997,-5.7997,-5.7997,-5.7997,-5.7997,-5.7997,-5.7997,-5.7997,-5.7997,-5.7997,-5.7997,-5.7997,-5.7997,-5.7997,-5.7997,-5.7997,-5.7997,-5.7997,-5.7997,-5.7997,-5.7774,-5.7631,-5.7631,-5.6223,-5.532,-5.532,-5.4203,-5.3518,-5.3518,-5.3518,-5.3518,-5.3518,-5.3518,-5.3518,-5.3518,-5.3518,-5.3518,-5.3518,-5.3518,-5.3518,-5.3518,-5.3518,-5.3518,-3.92,-4.0469,-4.1777,-4.347,-4.497,-4.6201,-4.6769,-4.8202,-4.9663,-5.0519,0.0,0.0,0.0,0.0,0.0,0.0,0.0,0.0,0.0,0.0,0.0,0.0,0.0,0.0,0.0,0.0,0.0,0.0,0.0,0.0,-5.8733,-5.826,-5.7997,-5.7997,-5.7997,-5.7997,-5.7997,-5.7997,-5.7997,-5.7997,-5.7997,-5.7997,-5.7997,-5.7997,-5.7997,-5.7997,-5.7997,-5.7997,-5.7997,-5.7997,-5.7997,-5.7997,-5.7997,-5.7997,-5.7997,-5.7997,-5.7997,-5.7997,-5.7997,-5.7997,-5.7997,-5.7997,-5.7997,-5.7997,-5.7997,-5.7997,-5.7997,-5.7997,-5.7997,-5.7997,-5.7997,-5.7997,-5.7997,-5.7997,-5.7997,-5.7997,-5.7997,-5.7997,-5.7997,-5.7997,-5.7997,-5.7997,-5.7997,-5.7997,-5.7997,-5.7997,-5.7997,-5.7997,-5.7997,-5.7997,-5.7997,-5.7997,-5.6632,-5.5724,-5.5724,-5.4359,-5.3518,-5.3518,-5.3518,-5.3518,-5.3518,-5.3518,-5.3518,-5.3518,-5.3518,-5.3518,-5.3518,-5.3518,-5.3518,-5.3518,-5.3518,-5.3518,0.0,0.0,0.0,-4.2624,-4.3701,-4.4739,-4.6432,-4.6846,-4.7586,-5.0096,0.0,0.0,0.0,0.0,0.0,0.0,0.0,0.0,0.0,0.0,0.0,0.0,0.0,0.0,0.0,0.0,0.0,0.0,0.0,-5.9176,-5.8736,-5.826,-5.7997,-5.7997,-5.7997,-5.7997,-5.7997,-5.7997,-5.7997,-5.7997,-5.7997,-5.7997,-5.7997,-5.7997,-5.7997,-5.7997,-5.7997,-5.7997,-5.7997,-5.7997,-5.7997,-5.7997,-5.7997,-5.7997,-5.7997,-5.7997,-5.7997,-5.7997,-5.7997,-5.7997,-5.7997,-5.7997,-5.7997,-5.7997,-5.7997,-5.7997,-5.7997,-5.7997,-5.7997,-5.7997,-5.7997,-5.7997,-5.7997,-5.7997,-5.7997,-5.7997,-5.7997,-5.7997,-5.7997,-5.7997,-5.7997,-5.7997,-5.7997,-5.7997,-5.7997,-5.7997,-5.7997,-5.7997,-5.7997,-5.7997,-5.7997,-5.7997,-5.6632,-5.5724,-5.5724,-5.4359,-5.3518,-5.3518,-5.3518,-5.3518,-5.3518,-5.3518,-5.3518,-5.3518,-5.3518,-5.3518,-5.3518,-5.3518,-5.3518,-5.3518,-5.3518,-5.3518,-3.8584,0.0,0.0,0.0,0.0,0.0,-4.4893,-4.6009,-4.7077,-4.7817,0.0,0.0,0.0,0.0,0.0,0.0,0.0,0.0,0.0,0.0,0.0,0.0,0.0,0.0,0.0,0.0,0.0,0.0,-5.9337,-5.899,-5.9194,-5.8439,-5.7997,-5.7997,-5.7997,-5.7997,-5.7997,-5.7997,-5.7997,-5.7997,-5.7997,-5.7997,-5.7997,-5.7997,-5.7997,-5.7997,-5.7997,-5.7997,-5.7997,-5.7997,-5.7997,-5.7997,-5.7997,-5.7997,-5.7997,-5.7997,-5.7997,-5.7997,-5.7997,-5.7997,-5.7997,-5.7997,-5.7997,-5.7997,-5.7997,-5.7997,-5.7997,-5.7997,-5.7997,-5.7997,-5.7997,-5.7997,-5.7997,-5.7997,-5.7997,-5.7997,-5.7997,-5.7997,-5.7997,-5.7997,-5.7997,-5.7997,-5.7997,-5.7997,-5.7997,-5.7997,-5.7997,-5.7997,-5.7997,-5.7997,-5.7997,-5.7997,-5.6632,-5.5724,-5.5724,-5.4359,-5.3518,-5.3518,-5.3518,-5.3518,-5.3518,-5.3518,-5.3518,-5.3518,-5.3518,-5.3518,-5.3518,-5.3518,-5.3518,-5.3518,-5.3518,-5.3518,-3.8938,-3.9015,-3.9238,-4.1277,0.0,0.0,-4.4124,-4.5086,-4.6009,0.0,0.0,0.0,0.0,0.0,0.0,0.0,0.0,0.0,0.0,0.0,0.0,0.0,0.0,0.0,0.0,0.0,0.0,-5.9531,-5.8685,-5.8381,-5.8796,-5.8304,-5.7997,-5.7997,-5.7997,-5.7997,-5.7997,-5.7997,-5.7997,-5.7997,-5.7997,-5.7997,-5.7997,-5.7997,-5.7997,-5.7997,-5.7997,-5.7997,-5.7997,-5.7997,-5.7997,-5.7997,-5.7997,-5.7997,-5.7997,-5.7997,-5.7997,-5.7997,-5.7997,-5.7997,-5.7997,-5.7997,-5.7997,-5.7997,-5.7997,-5.7997,-5.7997,-5.7997,-5.7997,-5.7997,-5.7997,-5.7997,-5.7997,-5.7997,-5.7997,-5.7997,-5.7997,-5.7997,-5.7997,-5.7997,-5.7997,-5.7997,-5.7997,-5.7997,-5.7997,-5.7997,-5.7997,-5.7997,-5.7997,-5.7997,-5.7997,-5.7997,-5.6632,-5.5724,-5.5724,-5.4359,-5.3518,-5.3518,-5.3518,-5.3518,-5.3518,-5.3518,-5.3518,-5.3518,-5.3518,-5.3518,-5.3518,-5.3518,-5.3518,-5.3518,-5.3518,-5.3518,-3.9207,-3.8815,-3.87,-4.1085,-4.1731,0.0,-4.3662,-4.4162,-4.4739,0.0,0.0,0.0,0.0,0.0,0.0,0.0,0.0,0.0,0.0,0.0,0.0,0.0,0.0,0.0,0.0,-5.7736,-5.7877,-5.8544,-5.7898,-5.765,-5.8006,-5.7997,-5.7997,-5.7997,-5.7997,-5.7997,-5.7997,-5.7997,-5.7997,-5.7997,-5.7997,-5.7997,-5.7997,-5.7997,-5.7997,-5.7997,-5.7997,-5.7997,-5.7997,-5.7997,-5.7997,-5.7997,-5.7997,-5.7997,-5.7997,-5.7997,-5.7997,-5.7997,-5.7997,-5.7997,-5.7997,-5.7997,-5.7997,-5.7997,-5.7997,-5.7997,-5.7997,-5.7997,-5.7997,-5.7997,-5.7997,-5.7997,-5.7997,-5.7997,-5.7997,-5.7997,-5.7997,-5.7997,-5.7997,-5.7997,-5.7997,-5.7997,-5.7997,-5.7997,-5.7997,-5.7997,-5.7997,-5.7997,-5.7997,-5.7997,-5.7997,-5.7997,-5.6632,-5.5724,-5.5724,-5.4359,-5.3518,-5.3518,-5.3518,-5.3518,-5.3518,-5.3518,-5.3518,-5.3518,-5.3518,-5.3518,-5.3518,-5.3518,-5.3518,-5.3518,-5.3518,-5.3518,-4.0208,-3.9669,-3.9323,-4.0477,-4.1277,0.0,-4.22,-4.3316,-4.4393,0.0,-4.5355,0.0,0.0,0.0,0.0,0.0,0.0,0.0,0.0,0.0,0.0,0.0,0.0,0.0,0.0,-5.6837,-5.7519,-5.7311,-5.7416,-5.765,-5.8006,-5.7997,-5.7997,-5.7997,-5.7997,-5.7997,-5.7997,-5.7997,-5.7997,-5.7997,-5.7997,-5.7997,-5.7997,-5.7997,-5.7997,-5.7997,-5.7997,-5.7997,-5.7997,-5.7997,-5.7997,-5.7997,-5.7997,-5.7997,-5.7997,-5.7997,-5.7997,-5.7997,-5.7997,-5.7997,-5.7997,-5.7997,-5.7997,-5.7997,-5.7997,-5.7997,-5.7997,-5.7997,-5.7997,-5.7997,-5.7997,-5.7997,-5.7997,-5.7997,-5.7997,-5.7997,-5.7997,-5.7997,-5.7997,-5.7997,-5.7997,-5.7997,-5.7997,-5.7997,-5.7997,-5.7997,-5.7997,-5.7997,-5.7997,-5.7997,-5.7997,-5.7997,-5.6632,-5.5724,-5.5724,-5.4359,-5.3518,-5.3518,-5.3518,-5.3518,-5.3518,-5.3518,-5.3518,-5.3518,-5.3518,-5.3518,-5.3518,-5.3518,-5.3518,-5.3518,-5.3518,-5.3518,-4.1162,-4.0546,-4.0015,-4.04,-4.0823,0.0,0.0,-4.247,-4.3162,-4.3624,-4.4047,-4.4624,0.0,0.0,0.0,0.0,0.0,0.0,0.0,0.0,0.0,0.0,0.0,0.0,0.0,-5.5071,-5.5768,-5.5951,-5.6715,-5.7205,-5.7395,-5.7776,-5.7997,-5.7997,-5.7997,-5.7997,-5.7997,-5.7997,-5.7997,-5.7997,-5.7997,-5.7997,-5.7997,-5.7997,-5.7997,-5.7997,-5.7997,-5.7997,-5.7997,-5.7997,-5.7997,-5.7997,-5.7997,-5.7997,-5.7997,-5.7997,-5.7997,-5.7997,-5.7997,-5.7997,-5.7997,-5.7997,-5.7997,-5.7997,-5.7997,-5.7997,-5.7997,-5.7997,-5.7997,-5.7997,-5.7997,-5.7997,-5.7997,-5.7997,-5.7997,-5.7997,-5.7997,-5.7997,-5.7997,-5.7997,-5.7997,-5.7997,-5.7997,-5.7997,-5.7997,-5.7997,-5.7997,-5.7997,-5.7997,-5.7997,-5.7997,-5.7997,-5.6978,-5.6313,-5.6313,-5.4944,-5.4042,-5.4042,-5.3684,-5.3518,-5.3518,-5.3518,-5.3518,-5.3518,-5.3518,-5.3518,-5.3518,-5.3518,-5.3518,-5.3518,-5.3518,-5.3518,-4.2162,-4.1546,-4.1016,-4.1016,-4.0862,-4.0931,0.0,0.0,0.0,-4.2701,0.0,0.0,0.0,0.0,0.0,0.0,0.0,0.0,0.0,0.0,0.0,0.0,0.0,0.0,0.0,-5.3386,-5.4116,-5.4837,-5.5838,-5.6566,-5.6785,-5.7409,-5.785,-5.7997,-5.7997,-5.7997,-5.7997,-5.7997,-5.7997,-5.7997,-5.7997,-5.7997,-5.7997,-5.7997,-5.7997,-5.7997,-5.7997,-5.7997,-5.7997,-5.7997,-5.7997,-5.7997,-5.7997,-5.7997,-5.7997,-5.7997,-5.7997,-5.7997,-5.7997,-5.7997,-5.7997,-5.7997,-5.7997,-5.7997,-5.7997,-5.7997,-5.7997,-5.7997,-5.7997,-5.7997,-5.7997,-5.7997,-5.7997,-5.7997,-5.7997,-5.7997,-5.7997,-5.7997,-5.7997,-5.7997,-5.7997,-5.7997,-5.7997,-5.7997,-5.7997,-5.7997,-5.7997,-5.7997,-5.7997,-5.7997,-5.7997,-5.7997,-5.7351,-5.6912,-5.6912,-5.5501,-5.4606,-5.4606,-5.3913,-5.3518,-5.3518,-5.3518,-5.3518,-5.3518,-5.3518,-5.3518,-5.3518,-5.3518,-5.3518,-5.3518,-5.3518,-5.3518,-4.3355,-4.2893,-4.2816,-4.2816,-4.2239,-4.17,-4.1769,0.0,-4.1808,-4.1923,0.0,-4.3124,-4.3201,0.0,0.0,0.0,0.0,0.0,-4.1554,-4.3393,0.0,0.0,0.0,0.0,0.0,0.0,-5.4002,-5.4425,-5.4931,-5.5677,-5.6734,-5.6895,-5.7262,-5.796,-5.7997,-5.7997,-5.7997,-5.7997,-5.7997,-5.7997,-5.7997,-5.7997,-5.7997,-5.7997,-5.7997,-5.7997,-5.7997,-5.7997,-5.7997,-5.7997,-5.7997,-5.7997,-5.7997,-5.7997,-5.7997,-5.7997,-5.7997,-5.7997,-5.7997,-5.7997,-5.7997,-5.7997,-5.7997,-5.7997,-5.7997,-5.7997,-5.7997,-5.7997,-5.7997,-5.7997,-5.7997,-5.7997,-5.7997,-5.7997,-5.7997,-5.7997,-5.7997,-5.7997,-5.7997,-5.7997,-5.7997,-5.7997,-5.7997,-5.7997,-5.7997,-5.7997,-5.7997,-5.7997,-5.7997,-5.7997,-5.7997,-5.7997,-5.7351,-5.6912,-5.6912,-5.5501,-5.4606,-5.4606,-5.3913,-5.3518,-5.3518,-5.3518,-5.3518,-5.3518,-5.3518,-5.3518,-5.3518,-5.3518,-5.3518,-5.3518,-5.3518,-5.3518,-4.5124,-4.4547,-4.4316,-4.3355,-4.2816,-4.2547,-4.2547,-4.2547,-4.2431,-4.1885,0.0,0.0,0.0,0.0,0.0,0.0,-4.2393,0.0,0.0,0.0,-4.4547,0.0,0.0,0.0,0.0,0.0,0.0,0.0,0.0,-5.442,-5.4715,-5.6051,-5.6969,-5.7299,-5.7776,-5.7997,-5.7997,-5.7997,-5.7997,-5.7997,-5.7997,-5.7997,-5.7997,-5.7997,-5.7997,-5.7997,-5.7997,-5.7997,-5.7997,-5.7997,-5.7997,-5.7997,-5.7997,-5.7997,-5.7997,-5.7997,-5.7997,-5.7997,-5.7997,-5.7997,-5.7997,-5.7997,-5.7997,-5.7997,-5.7997,-5.7997,-5.7997,-5.7997,-5.7997,-5.7997,-5.7997,-5.7997,-5.7997,-5.7997,-5.7997,-5.7997,-5.7997,-5.7997,-5.7997,-5.7997,-5.7997,-5.7997,-5.7997,-5.7997,-5.7997,-5.7997,-5.7997,-5.7997,-5.7997,-5.7997,-5.7997,-5.7997,-5.7726,-5.7522,-5.7522,-5.6527,-5.5928,-5.5928,-5.4822,-5.3946,-5.3551,-5.3518,-5.3518,-5.3518,-5.3518,-5.3518,-5.3518,-5.3518,-5.3518,-5.3518,-5.3518,-5.3518,-4.721,-4.6479,-4.5932,-4.4509,-4.397,-4.3701,-4.347,-4.3278,-4.2854,-4.1962,-4.1808,0.0,0.0,0.0,-4.1085,-4.1046,0.0,-4.1546,0.0,-4.1623,0.0,0.0,0.0,0.0,0.0,0.0,0.0,0.0,0.0,0.0,-5.3209,-5.506,-5.6345,-5.6785,-5.7373,-5.7776,-5.7997,-5.7997,-5.7997,-5.7997,-5.7997,-5.7997,-5.7997,-5.7997,-5.7997,-5.7997,-5.7997,-5.7997,-5.7997,-5.7997,-5.7997,-5.7997,-5.7997,-5.7997,-5.7997,-5.7997,-5.7997,-5.7997,-5.7997,-5.7997,-5.7997,-5.7997,-5.7997,-5.7997,-5.7997,-5.7997,-5.7997,-5.7997,-5.7997,-5.7997,-5.7997,-5.7997,-5.7997,-5.7997,-5.7997,-5.7997,-5.7997,-5.7997,-5.7997,-5.7997,-5.7997,-5.7997,-5.7997,-5.7997,-5.7997,-5.7997,-5.7997,-5.7997,-5.7997,-5.7997,-5.7997,-5.7997,-5.7997,-5.7997,-5.7997,-5.7327,-5.6809,-5.6589,-5.5495,-5.4575,-5.3815,-5.3816,-5.3684,-5.3518,-5.3518,-5.3518,-5.3518,-5.3518,-5.3518,-5.3518,-5.3518,-5.3518,-4.951,-4.8663,-4.7817,-4.7009,-4.6124,-4.5287,-4.4432,-4.3662,-4.2854,-4.1962,-4.1808,-4.1546,-4.0708,-3.99,-3.8584,-3.6154,-3.7123,0.0,0.0,0.0,0.0,0.0,0.0,0.0,0.0,0.0,0.0,0.0,0.0,0.0,-5.3193,-5.3995,-5.5207,-5.6748,-5.6822,-5.7226,-5.7997,-5.7997,-5.7997,-5.7997,-5.7997,-5.7997,-5.7997,-5.7997,-5.7997,-5.7997,-5.7997,-5.7997,-5.7997,-5.7997,-5.7997,-5.7997,-5.7997,-5.7997,-5.7997,-5.7997,-5.7997,-5.7997,-5.7997,-5.7997,-5.7997,-5.7997,-5.7997,-5.7997,-5.7997,-5.7997,-5.7997,-5.7997,-5.7997,-5.7997,-5.7997,-5.7997,-5.7997,-5.7997,-5.7997,-5.7997,-5.7997,-5.7997,-5.7997,-5.7997,-5.7997,-5.7997,-5.7997,-5.7997,-5.7997,-5.7997,-5.7997,-5.7997,-5.7997,-5.7997,-5.7997,-5.7997,-5.7997,-5.7997,-5.7997,-5.7327,-5.6589,-5.5808,-5.5695,-5.532,-5.4606,-5.4575,-5.4232,-5.3484,-5.3518,-5.3518,-5.3518,-5.3518,-5.3518,-5.3518,-5.3518,-5.3518,0.0,0.0,-4.9625,-4.8779,0.0,-4.7048,-4.6201,-4.5817,-4.5201,-4.3739,-4.3431,-4.3047,-4.1623,-4.1123,-4.0469,-3.9046,-3.8854,-3.8661,0.0,0.0,0.0,0.0,0.0,0.0,0.0,0.0,0.0,0.0,0.0,0.0,0.0,-5.2894,-5.4326,-5.5941,-5.6528,-5.7189,-5.7997,-5.7997,-5.7997,-5.7997,-5.7997,-5.7997,-5.7997,-5.7997,-5.7997,-5.7997,-5.7997,-5.7997,-5.7997,-5.7997,-5.7997,-5.7997,-5.7997,-5.7997,-5.7997,-5.7997,-5.7997,-5.7997,-5.7997,-5.7997,-5.7997,-5.7997,-5.7997,-5.7997,-5.7997,-5.7997,-5.7997,-5.7997,-5.7997,-5.7997,-5.7997,-5.7997,-5.7997,-5.7997,-5.7997,-5.7997,-5.7997,-5.7997,-5.7997,-5.7997,-5.7997,-5.7997,-5.7997,-5.7997,-5.7997,-5.7997,-5.7997,-5.7997,-5.7997,-5.7997,-5.7997,-5.7997,-5.7997,-5.7997,-5.7997,-5.7774,-5.729,-5.6563,-5.6474,-5.615,-5.535,-5.4878,-5.4482,-5.4232,-5.375,-5.375,-5.4232,-5.375,-5.375,-5.4232,-5.4232,-5.3979,-5.378,-5.2664,0.0,-5.0587,-4.9663,0.0,-4.7971,-4.7548,-4.6855,-4.5124,-4.4739,-4.4239,-4.2585,-4.2,-4.1508,-4.0631,-3.9823,-3.9092,0.0,-3.7661,0.0,0.0,0.0,0.0,0.0,0.0,0.0,0.0,0.0,0.0,0.0,0.0,-5.3371,-5.4693,-5.5794,-5.6748,-5.7556,-5.785,-5.7997,-5.7997,-5.7997,-5.7997,-5.7997,-5.7997,-5.7997,-5.7997,-5.7997,-5.7997,-5.7997,-5.7997,-5.7997,-5.7997,-5.7997,-5.7997,-5.7997,-5.7997,-5.7997,-5.7997,-5.7997,-5.7997,-5.7997,-5.7997,-5.7997,-5.7997,-5.7997,-5.7997,-5.7997,-5.7997,-5.7997,-5.7997,-5.7997,-5.7997,-5.7997,-5.7997,-5.7997,-5.7997,-5.7997,-5.7997,-5.7997,-5.7997,-5.7997,-5.7997,-5.7997,-5.7997,-5.7997,-5.7997,-5.7997,-5.7997,-5.7997,-5.7997,-5.7997,-5.7997,-5.7997,-5.7997,-5.7997,-5.7997,-5.7797,-5.7327,-5.7302,-5.6927,-5.6177,-5.5667,-5.5254,-5.4988,-5.4276,-5.4276,-5.4988,-5.4276,-5.4264,-5.4999,-5.4999,-5.4606]},{"header":{"parameterUnit":"m.s-1","parameterCategory":1,"la1":30.6,"la2":29.2853,"lo1":-89.7004,"lo2":-87.6739,"dx":0.0162,"dy":0.0183,"nx":112,"ny":82,"refTime":"2022-12-01T06:00:00:Z","depth":0,"parameterNumber":3,"parameterNumberName":"V-component_of_WINDS"},"data":[0.0,0.0,0.0,0.0,0.0,0.0,0.0,0.0,0.0,0.0,0.0,0.0,0.0,0.0,0.0,0.0,0.0,0.0,0.0,0.0,0.0,0.0,0.0,0.0,0.0,0.0,0.0,0.0,0.0,0.0,0.0,0.0,0.0,0.0,0.0,0.0,0.0,0.0,0.0,0.0,0.0,0.0,0.0,0.0,0.0,0.0,0.0,0.0,0.0,0.0,0.0,0.0,0.0,0.0,0.0,0.0,0.0,0.0,0.0,0.0,0.0,0.0,0.0,0.0,0.0,0.0,0.0,0.0,0.0,0.0,0.0,0.0,0.0,0.0,0.0,0.0,0.0,0.0,0.0,0.0,0.0,0.0,0.0,0.0,0.0,0.0,0.0,0.0,0.0,0.0,-1.464,-1.5498,-1.5937,-1.6202,-1.6202,-1.5762,-1.5352,-1.5028,0.0,0.0,0.0,0.0,0.0,0.0,0.0,0.0,0.0,0.0,0.0,0.0,0.0,0.0,0.0,0.0,0.0,0.0,0.0,0.0,0.0,0.0,0.0,0.0,0.0,0.0,0.0,0.0,0.0,0.0,0.0,0.0,0.0,0.0,0.0,0.0,0.0,0.0,0.0,0.0,0.0,0.0,0.0,0.0,0.0,0.0,0.0,0.0,0.0,0.0,0.0,0.0,0.0,0.0,0.0,0.0,0.0,0.0,0.0,0.0,0.0,0.0,0.0,0.0,0.0,0.0,0.0,0.0,0.0,0.0,0.0,0.0,0.0,0.0,0.0,0.0,0.0,0.0,0.0,0.0,0.0,0.0,0.0,0.0,0.0,0.0,0.0,0.0,0.0,0.0,0.0,0.0,0.0,0.0,0.0,0.0,0.0,0.0,0.0,0.0,0.0,0.0,0.0,0.0,-1.5547,-1.6414,-1.6551,-1.6609,-1.6609,-1.623,-1.5968,-1.5909,0.0,0.0,0.0,0.0,0.0,0.0,0.0,0.0,0.0,0.0,0.0,0.0,0.0,0.0,0.0,0.0,0.0,0.0,0.0,0.0,0.0,0.0,0.0,0.0,0.0,0.0,0.0,0.0,0.0,0.0,0.0,0.0,0.0,0.0,0.0,0.0,0.0,0.0,0.0,0.0,0.0,0.0,0.0,0.0,0.0,0.0,0.0,0.0,0.0,0.0,0.0,0.0,0.0,0.0,0.0,0.0,0.0,0.0,0.0,0.0,0.0,0.0,0.0,0.0,0.0,0.0,0.0,0.0,0.0,0.0,0.0,0.0,0.0,0.0,0.0,0.0,0.0,0.0,0.0,0.0,0.0,0.0,0.0,0.0,0.0,0.0,0.0,0.0,0.0,0.0,0.0,0.0,0.0,0.0,0.0,0.0,0.0,0.0,0.0,0.0,0.0,0.0,0.0,-1.5371,-1.6113,-1.6992,-1.709,-1.709,-1.709,-1.6894,-1.6613,-1.6124,-1.4911,0.0,0.0,0.0,0.0,0.0,0.0,0.0,0.0,0.0,0.0,0.0,0.0,0.0,0.0,0.0,0.0,0.0,0.0,0.0,0.0,0.0,0.0,0.0,0.0,0.0,0.0,0.0,0.0,0.0,0.0,0.0,0.0,0.0,0.0,0.0,0.0,0.0,0.0,0.0,0.0,0.0,0.0,0.0,0.0,0.0,0.0,0.0,0.0,0.0,0.0,0.0,0.0,0.0,0.0,0.0,0.0,0.0,0.0,0.0,0.0,0.0,0.0,0.0,0.0,0.0,0.0,0.0,0.0,0.0,0.0,0.0,0.0,0.0,0.0,0.0,0.0,0.0,0.0,0.0,0.0,0.0,0.0,0.0,0.0,0.0,0.0,0.0,0.0,0.0,0.0,0.0,0.0,0.0,0.0,0.0,0.0,0.0,0.0,0.0,0.0,0.0,0.0,-1.6113,-1.675,-1.7578,-1.7676,-1.7676,-1.7676,-1.7598,-1.7148,-1.63,-1.5312,0.0,0.0,0.0,0.0,0.0,0.0,0.0,0.0,0.0,0.0,0.0,0.0,0.0,0.0,0.0,0.0,0.0,0.0,0.0,0.0,0.0,0.0,0.0,0.0,0.0,0.0,0.0,0.0,0.0,0.0,0.0,0.0,0.0,0.0,0.0,0.0,0.0,0.0,0.0,0.0,0.0,0.0,0.0,0.0,0.0,0.0,0.0,0.0,0.0,0.0,0.0,0.0,0.0,0.0,0.0,0.0,0.0,0.0,0.0,0.0,0.0,0.0,0.0,0.0,0.0,0.0,0.0,0.0,0.0,0.0,0.0,0.0,0.0,0.0,0.0,0.0,0.0,0.0,0.0,0.0,0.0,0.0,0.0,0.0,0.0,0.0,0.0,0.0,0.0,0.0,0.0,0.0,0.0,0.0,0.0,0.0,0.0,0.0,0.0,0.0,0.0,0.0,-1.7012,-1.7617,-1.8422,-1.852,-1.852,-1.852,-1.8149,-1.7598,-1.6707,-1.5488,0.0,0.0,0.0,0.0,0.0,0.0,0.0,0.0,0.0,0.0,0.0,0.0,0.0,0.0,0.0,0.0,0.0,0.0,0.0,0.0,0.0,0.0,0.0,0.0,0.0,0.0,0.0,0.0,0.0,0.0,0.0,0.0,0.0,0.0,0.0,0.0,0.0,0.0,0.0,0.0,0.0,0.0,0.0,0.0,0.0,0.0,0.0,0.0,0.0,0.0,0.0,0.0,0.0,0.0,0.0,0.0,0.0,0.0,0.0,0.0,0.0,0.0,0.0,0.0,0.0,0.0,0.0,0.0,0.0,0.0,0.0,0.0,0.0,0.0,0.0,0.0,0.0,0.0,0.0,0.0,0.0,0.0,0.0,0.0,0.0,0.0,0.0,0.0,0.0,0.0,0.0,0.0,0.0,0.0,0.0,0.0,0.0,0.0,0.0,0.0,0.0,0.0,-1.7344,-1.7988,-1.8539,-1.8851,-1.9043,-1.9043,-1.8617,-1.811,-1.7545,0.0,0.0,0.0,0.0,0.0,0.0,0.0,0.0,0.0,0.0,0.0,0.0,0.0,0.0,0.0,0.0,0.0,0.0,0.0,0.0,0.0,0.0,0.0,0.0,0.0,0.0,0.0,0.0,0.0,0.0,0.0,0.0,0.0,0.0,0.0,0.0,0.0,0.0,0.0,0.0,0.0,0.0,0.0,0.0,0.0,0.0,0.0,0.0,0.0,0.0,0.0,0.0,0.0,0.0,0.0,0.0,0.0,0.0,0.0,0.0,0.0,0.0,0.0,0.0,0.0,0.0,0.0,0.0,0.0,0.0,0.0,0.0,0.0,0.0,0.0,0.0,0.0,0.0,0.0,0.0,0.0,0.0,0.0,0.0,0.0,0.0,0.0,0.0,0.0,0.0,0.0,0.0,0.0,0.0,0.0,0.0,0.0,0.0,0.0,0.0,0.0,0.0,-1.6777,-1.7642,-1.8383,-1.8948,-1.9316,-1.9492,-1.9492,-1.9219,-1.8715,-1.8047,0.0,0.0,0.0,0.0,0.0,0.0,0.0,0.0,0.0,0.0,0.0,0.0,0.0,0.0,0.0,0.0,0.0,0.0,0.0,0.0,0.0,0.0,0.0,0.0,0.0,0.0,0.0,0.0,0.0,0.0,0.0,0.0,0.0,0.0,0.0,0.0,0.0,0.0,0.0,0.0,0.0,0.0,0.0,0.0,0.0,0.0,0.0,0.0,0.0,0.0,0.0,0.0,0.0,0.0,0.0,0.0,0.0,0.0,0.0,0.0,0.0,0.0,0.0,0.0,0.0,0.0,0.0,0.0,0.0,0.0,0.0,0.0,0.0,0.0,0.0,0.0,0.0,0.0,0.0,0.0,0.0,0.0,0.0,0.0,0.0,0.0,0.0,0.0,0.0,0.0,0.0,0.0,0.0,0.0,0.0,0.0,0.0,0.0,0.0,0.0,0.0,0.0,-1.7227,-1.8091,-1.8948,-1.9824,-1.9922,-1.9884,-1.9884,-1.9922,-1.9375,0.0,0.0,0.0,0.0,0.0,0.0,0.0,0.0,0.0,0.0,0.0,0.0,0.0,0.0,0.0,0.0,0.0,0.0,0.0,0.0,0.0,0.0,0.0,0.0,0.0,0.0,0.0,0.0,0.0,0.0,0.0,0.0,0.0,0.0,0.0,0.0,0.0,0.0,0.0,0.0,0.0,0.0,0.0,0.0,0.0,0.0,0.0,0.0,0.0,0.0,0.0,0.0,0.0,0.0,0.0,0.0,0.0,0.0,0.0,0.0,0.0,0.0,0.0,0.0,0.0,0.0,0.0,0.0,0.0,0.0,0.0,0.0,0.0,0.0,0.0,0.0,0.0,0.0,0.0,0.0,0.0,0.0,0.0,0.0,0.0,0.0,0.0,0.0,0.0,0.0,0.0,0.0,0.0,0.0,0.0,0.0,0.0,0.0,0.0,0.0,0.0,0.0,0.0,-1.7695,-1.8828,-1.9746,-2.0312,-2.0664,-2.08,-2.08,-2.0547,-1.9961,-1.8965,0.0,0.0,0.0,0.0,0.0,0.0,0.0,0.0,0.0,0.0,0.0,0.0,0.0,0.0,0.0,0.0,0.0,0.0,0.0,0.0,0.0,0.0,0.0,0.0,0.0,0.0,0.0,0.0,0.0,0.0,0.0,0.0,0.0,0.0,0.0,0.0,0.0,0.0,0.0,0.0,0.0,0.0,0.0,0.0,0.0,0.0,0.0,0.0,0.0,0.0,0.0,0.0,0.0,0.0,0.0,0.0,0.0,0.0,0.0,0.0,0.0,0.0,0.0,0.0,0.0,0.0,0.0,0.0,0.0,0.0,0.0,0.0,0.0,0.0,0.0,0.0,0.0,0.0,0.0,0.0,0.0,0.0,0.0,0.0,0.0,0.0,0.0,0.0,0.0,0.0,0.0,0.0,0.0,0.0,0.0,0.0,0.0,0.0,0.0,0.0,0.0,0.0,-1.8398,-1.9492,-2.041,-2.1055,-2.1328,-2.1504,-2.1504,-2.1094,-2.0527,-1.9881,0.0,0.0,0.0,0.0,0.0,0.0,0.0,0.0,0.0,0.0,0.0,0.0,0.0,0.0,0.0,0.0,0.0,0.0,0.0,0.0,0.0,0.0,0.0,0.0,0.0,0.0,0.0,0.0,0.0,0.0,0.0,0.0,0.0,0.0,0.0,0.0,0.0,0.0,0.0,0.0,0.0,0.0,0.0,0.0,0.0,0.0,0.0,0.0,0.0,0.0,0.0,0.0,0.0,0.0,0.0,0.0,0.0,0.0,0.0,0.0,0.0,0.0,0.0,0.0,0.0,0.0,0.0,0.0,0.0,0.0,0.0,0.0,0.0,0.0,0.0,0.0,0.0,0.0,0.0,0.0,0.0,0.0,0.0,0.0,0.0,0.0,0.0,0.0,0.0,0.0,0.0,0.0,0.0,0.0,0.0,0.0,0.0,0.0,0.0,0.0,0.0,0.0,-1.9238,-2.0194,-2.1055,-2.1855,-2.1953,-2.1953,-2.1953,-2.1582,-2.1133,-2.0644,0.0,0.0,0.0,0.0,0.0,0.0,0.0,0.0,0.0,0.0,0.0,0.0,0.0,0.0,0.0,0.0,0.0,0.0,0.0,0.0,0.0,0.0,0.0,0.0,0.0,0.0,0.0,0.0,0.0,0.0,0.0,0.0,0.0,0.0,0.0,0.0,0.0,0.0,0.0,0.0,0.0,0.0,0.0,0.0,0.0,0.0,0.0,0.0,0.0,0.0,0.0,0.0,0.0,0.0,0.0,0.0,0.0,0.0,0.0,0.0,-1.1189,0.0,0.0,0.0,0.0,0.0,0.0,0.0,0.0,0.0,0.0,0.0,0.0,0.0,0.0,0.0,0.0,0.0,0.0,0.0,0.0,0.0,0.0,0.0,0.0,0.0,0.0,0.0,0.0,0.0,0.0,0.0,0.0,0.0,0.0,0.0,0.0,0.0,0.0,0.0,0.0,0.0,-2.0214,-2.1094,-2.1797,-2.2324,-2.2383,-2.2383,-2.2383,-2.2285,-2.1758,-2.0664,-2.0351,0.0,0.0,0.0,0.0,0.0,0.0,0.0,0.0,0.0,0.0,0.0,0.0,0.0,0.0,0.0,0.0,0.0,0.0,0.0,0.0,0.0,0.0,0.0,0.0,0.0,0.0,0.0,0.0,0.0,0.0,0.0,0.0,0.0,0.0,0.0,0.0,0.0,0.0,0.0,0.0,0.0,0.0,0.0,0.0,0.0,0.0,0.0,0.0,0.0,0.0,0.0,0.0,0.0,0.0,0.0,0.0,0.0,0.0,0.0,0.0,-1.143,0.0,0.0,0.0,0.0,0.0,0.0,0.0,0.0,0.0,0.0,0.0,0.0,0.0,0.0,0.0,0.0,0.0,0.0,0.0,0.0,0.0,0.0,0.0,0.0,0.0,0.0,0.0,0.0,0.0,0.0,0.0,0.0,0.0,0.0,0.0,0.0,0.0,0.0,0.0,0.0,-2.1134,-2.1777,-2.2344,-2.2773,-2.2769,-2.2769,-2.2769,-2.2617,-2.2227,-2.1543,-2.0957,0.0,0.0,0.0,0.0,0.0,0.0,0.0,0.0,0.0,0.0,0.0,0.0,0.0,0.0,0.0,0.0,0.0,0.0,0.0,0.0,0.0,0.0,0.0,0.0,0.0,0.0,0.0,0.0,0.0,0.0,0.0,0.0,0.0,0.0,0.0,0.0,0.0,0.0,0.0,0.0,0.0,0.0,0.0,0.0,0.0,0.0,0.0,0.0,0.0,0.0,0.0,0.0,0.0,-1.3693,-1.4001,-1.4242,-1.4242,-1.4242,-1.4188,-1.32,-1.2705,-1.2612,-1.2612,0.0,0.0,0.0,0.0,0.0,0.0,0.0,0.0,0.0,0.0,0.0,0.0,0.0,0.0,0.0,0.0,0.0,0.0,0.0,0.0,0.0,0.0,0.0,0.0,-1.8398,-1.8066,0.0,0.0,0.0,0.0,0.0,0.0,0.0,0.0,0.0,0.0,0.0,0.0,-2.1894,-2.2363,-2.2711,-2.3062,-2.3101,-2.3101,-2.3101,-2.2812,-2.2598,-2.2519,-2.1504,-2.0644,0.0,0.0,0.0,0.0,0.0,0.0,0.0,0.0,0.0,0.0,0.0,0.0,0.0,0.0,0.0,0.0,0.0,0.0,0.0,0.0,0.0,0.0,0.0,0.0,0.0,0.0,0.0,0.0,0.0,0.0,0.0,0.0,-0.9217,-0.9579,0.0,0.0,0.0,0.0,0.0,0.0,0.0,0.0,0.0,0.0,0.0,0.0,0.0,-1.3213,-1.3734,-1.4108,-1.4309,-1.4306,-1.4643,-1.4861,-1.4888,-1.4888,-1.4888,-1.4888,-1.4727,0.0,-1.3854,-1.3854,0.0,0.0,0.0,0.0,0.0,0.0,0.0,0.0,0.0,0.0,0.0,0.0,0.0,0.0,0.0,0.0,0.0,0.0,0.0,0.0,0.0,0.0,-1.9531,-1.9629,-1.9941,-2.0194,0.0,-1.8711,-1.7676,-1.7676,-1.7974,0.0,0.0,0.0,0.0,0.0,0.0,0.0,-2.2363,-2.275,-2.3042,-2.3081,-2.3101,-2.3101,-2.3101,-2.3042,-2.2847,-2.2539,-2.2344,-2.1719,-2.0566,-1.9961,0.0,0.0,0.0,0.0,0.0,0.0,0.0,0.0,0.0,0.0,0.0,0.0,0.0,0.0,0.0,0.0,0.0,0.0,0.0,0.0,0.0,0.0,0.0,0.0,0.0,0.0,0.0,0.0,0.0,-0.9337,-0.9846,-1.0171,-1.0581,-1.0883,0.0,0.0,0.0,0.0,0.0,0.0,0.0,0.0,0.0,-1.3935,-1.3948,-1.4148,-1.462,-1.471,-1.4856,-1.5017,-1.515,-1.5297,-1.5444,-1.5444,-1.5444,-1.5444,-1.5444,-1.5311,-1.5044,-1.471,-1.4402,-1.4079,0.0,0.0,0.0,0.0,-1.385,-1.385,-1.385,-1.385,0.0,-1.4268,0.0,0.0,0.0,0.0,0.0,0.0,0.0,0.0,0.0,0.0,-2.0683,-2.0957,-2.1172,-2.1349,-2.1349,-2.0723,-2.0039,0.0,-1.959,-1.9863,-2.0312,0.0,0.0,0.0,0.0,-2.2383,-2.2812,-2.3242,-2.3496,-2.3496,-2.3711,-2.3822,-2.3822,-2.3633,-2.3418,-2.3242,-2.2773,-2.2246,-2.168,-2.1016,-2.004,0.0,0.0,0.0,0.0,0.0,0.0,0.0,0.0,0.0,0.0,0.0,0.0,0.0,0.0,0.0,0.0,0.0,0.0,0.0,0.0,0.0,0.0,0.0,0.0,0.0,0.0,0.0,0.0,-1.0057,-1.0568,-1.0894,-1.141,-1.1877,0.0,0.0,0.0,0.0,0.0,0.0,-1.3547,-1.4028,-1.4442,-1.4736,-1.4736,-1.4923,-1.5343,-1.5343,-1.5491,-1.5725,-1.5725,-1.5845,-1.6046,-1.6046,-1.6046,-1.6046,-1.6046,-1.6046,-1.6005,-1.5431,-1.5057,-1.4843,-1.4776,-1.4616,-1.4416,-1.4335,-1.4309,-1.4309,-1.4309,-1.4309,-1.4437,-1.5135,-1.5342,-1.5718,-1.7924,0.0,0.0,0.0,0.0,-2.06,-2.1228,-2.1444,-2.16,-2.1973,-2.2129,-2.2207,-2.2207,-2.2285,-2.209,0.0,-2.1036,-2.1172,-2.1463,0.0,0.0,0.0,-2.2832,-2.2988,-2.3374,-2.375,-2.3945,-2.3945,-2.4238,-2.4414,-2.4414,-2.4141,-2.3906,-2.3789,-2.3184,-2.2734,-2.2519,-2.1853,-2.1112,-2.0235,0.0,0.0,0.0,0.0,0.0,0.0,0.0,0.0,0.0,0.0,0.0,0.0,0.0,0.0,0.0,0.0,0.0,0.0,0.0,0.0,0.0,0.0,0.0,0.0,0.0,0.0,0.0,0.0,0.0,-1.1806,-1.2355,0.0,0.0,0.0,0.0,-1.3975,-1.4282,-1.4412,-1.4412,-1.475,-1.5102,-1.5337,-1.5351,-1.5631,-1.6254,-1.6206,-1.6353,-1.6633,-1.6633,-1.6647,-1.666,-1.666,-1.666,-1.666,-1.666,-1.666,-1.662,-1.6032,-1.5731,-1.5691,-1.5458,-1.5337,-1.5297,-1.5062,-1.4968,-1.4968,-1.4968,-1.4968,-1.4968,-1.5013,-1.5683,-1.6739,-1.7884,-1.8272,0.0,0.0,-2.0015,-2.0327,-2.1546,-2.2148,-2.2461,-2.248,-2.275,-2.3042,-2.3042,-2.3398,-2.332,0.0,-2.2148,-2.2422,-2.2441,0.0,-2.3159,-2.3652,-2.373,-2.3887,-2.4297,-2.4375,-2.4375,-2.4375,-2.4414,-2.4414,-2.4414,-2.4394,-2.4219,-2.3809,-2.375,-2.3359,-2.2539,-2.248,-2.2009,-2.1151,-2.0293,0.0,0.0,0.0,0.0,0.0,0.0,0.0,0.0,0.0,0.0,0.0,0.0,0.0,0.0,0.0,0.0,0.0,0.0,0.0,0.0,0.0,0.0,0.0,0.0,0.0,0.0,0.0,0.0,-1.2679,-1.3253,0.0,-1.4028,-1.4322,-1.4536,-1.4687,-1.4923,-1.5084,-1.5084,-1.5538,-1.5906,-1.5965,-1.6139,-1.6339,-1.6553,-1.6553,-1.6607,-1.6714,-1.6901,-1.7045,-1.7045,-1.7181,-1.7275,-1.7275,-1.7275,-1.7275,-1.7248,-1.7048,-1.674,-1.638,-1.6273,-1.6246,-1.6233,-1.6126,-1.6086,-1.6059,-1.5919,-1.5852,-1.5826,-1.5578,-1.6331,-1.7508,-1.8713,-1.9777,-2.0881,-2.2101,-2.2644,-2.2942,-2.3363,-2.3633,-2.373,-2.373,-2.3848,-2.3919,-2.3919,-2.4082,-2.4062,-2.3594,-2.3633,-2.373,-2.373,-2.3867,-2.3978,-2.418,-2.4199,-2.4238,-2.4394,-2.4668,-2.4844,-2.4844,-2.5098,-2.5226,-2.5226,-2.5,-2.4766,-2.4675,-2.4355,-2.3926,-2.3359,-2.334,-2.293,-2.2029,-2.1758,-2.125,0.0,0.0,0.0,0.0,0.0,0.0,0.0,0.0,0.0,0.0,0.0,0.0,0.0,0.0,0.0,0.0,0.0,0.0,0.0,0.0,0.0,0.0,0.0,0.0,0.0,-1.2532,-1.3093,-1.3587,-1.4082,-1.4496,-1.479,-1.499,-1.5236,-1.5437,-1.5578,-1.5738,-1.5832,-1.6206,-1.642,-1.642,-1.67,-1.6901,-1.7007,-1.7101,-1.7208,-1.7315,-1.7502,-1.7661,-1.7661,-1.7796,-1.7889,-1.7889,-1.7889,-1.7889,-1.7889,-1.7889,-1.7662,-1.7275,-1.6967,-1.6794,-1.67,-1.67,-1.67,-1.6723,-1.7015,-1.7093,-1.7148,-1.7404,-1.8045,-1.8895,-1.972,-2.0695,-2.1835,-2.3054,-2.3583,-2.3886,-2.4275,-2.4414,-2.4453,-2.4609,-2.4629,-2.4687,-2.4824,-2.498,-2.5078,-2.5078,-2.4727,-2.4414,-2.4414,-2.4414,-2.4512,-2.4777,-2.4816,-2.4914,-2.5254,-2.5547,-2.5723,-2.5723,-2.5996,-2.6122,-2.6122,-2.5898,-2.5605,-2.5312,-2.5019,-2.4609,-2.4023,-2.4004,-2.3672,-2.2949,-2.2656,-2.209,-2.119,0.0,0.0,0.0,0.0,0.0,0.0,0.0,0.0,0.0,0.0,0.0,0.0,0.0,0.0,0.0,0.0,0.0,0.0,0.0,0.0,0.0,0.0,0.0,-1.324,-1.3734,-1.4215,-1.4466,-1.4803,-1.5142,-1.5391,-1.5418,-1.5658,-1.6295,-1.6286,-1.642,-1.67,-1.6727,-1.674,-1.674,-1.7085,-1.738,-1.7609,-1.7916,-1.821,-1.849,-1.8504,-1.8504,-1.8504,-1.8517,-1.8517,-1.8531,-1.8517,-1.8517,-1.8531,-1.8517,-1.8517,-1.8424,-1.7581,-1.7021,-1.6767,-1.6767,-1.6754,-1.6941,-1.8207,-1.8686,-1.8916,-2.0313,-2.0747,-2.0699,-2.0843,-2.086,-2.11,-2.2375,-2.2724,-2.3026,-2.4167,-2.4492,-2.4609,-2.5019,-2.5184,-2.5254,-2.5684,-2.6113,-2.6406,-2.6406,-2.5371,-2.4492,-2.4492,-2.4492,-2.4785,-2.5596,-2.5732,0.0,-2.6914,-2.7012,-2.7012,-2.7012,-2.7012,-2.7012,-2.7012,-2.7012,-2.666,-2.5771,-2.5713,-2.5323,-2.4492,-2.4453,-2.4238,-2.3828,-2.2988,-2.2129,-2.1249,0.0,0.0,0.0,0.0,0.0,0.0,0.0,0.0,0.0,0.0,0.0,0.0,0.0,0.0,0.0,0.0,0.0,0.0,0.0,0.0,0.0,-1.3601,-1.3841,-1.3841,-1.4162,-1.4589,-1.5097,-1.5231,-1.5471,-1.5979,-1.6032,-1.6192,-1.6553,-1.658,-1.6714,-1.7058,-1.7221,-1.7435,-1.7649,-1.7956,-1.8156,-1.8237,-1.833,-1.841,-1.849,-1.8704,-1.8811,-1.8811,-1.9025,-1.9239,-1.9426,-1.9212,-1.9239,-1.9426,-1.9212,-1.8998,-1.8758,-1.8303,-1.8076,-1.7996,-1.7996,-1.7862,-1.7675,-1.8032,-1.8091,-1.8142,-1.9598,-1.9358,-1.9052,-2.2109,-2.2496,-2.2367,-2.4721,-2.5561,-2.5891,-2.6209,-2.6309,-2.6328,-2.6445,-2.6484,-2.6523,-2.6641,-2.6758,-2.6836,-2.6836,-2.6543,-2.6309,-2.6309,-2.6309,-2.6387,-2.6621,-2.666,0.0,-2.6992,-2.7012,-2.7012,-2.7012,-2.7012,-2.7012,-2.7012,-2.7012,-2.6914,-2.668,-2.6367,-2.5957,-2.5343,-2.5059,-2.4687,-2.4258,-2.3711,-2.3164,0.0,0.0,0.0,0.0,0.0,0.0,0.0,0.0,0.0,0.0,0.0,0.0,0.0,0.0,0.0,0.0,0.0,0.0,0.0,0.0,0.0,0.0,-1.4362,-1.4629,-1.4629,-1.4776,-1.511,-1.5698,-1.5765,-1.5952,-1.6406,-1.646,-1.6633,-1.7048,-1.7074,-1.7261,-1.7742,-1.7876,-1.8036,-1.821,-1.8517,-1.8731,-1.8851,-1.8985,-1.9105,-1.9225,-1.9386,-1.9407,-1.9479,-1.9653,-1.9826,-1.9973,-1.98,-1.9826,-1.9973,-1.98,-1.9626,0.0,0.0,0.0,0.0,0.0,-1.8384,-1.8278,-1.8863,-1.894,-1.9145,-2.1222,-2.1326,-2.117,-2.4289,-2.4776,-2.46,-2.6167,-2.6836,-2.7012,-2.7012,-2.7012,-2.707,-2.7246,-2.7285,-2.7344,-2.7519,-2.7539,-2.7539,-2.7539,-2.7539,0.0,-2.7539,-2.7246,-2.707,-2.7266,-2.7285,-2.7344,-2.7519,-2.7539,-2.7539,-2.7539,-2.7539,-2.7539,-2.7539,-2.7539,0.0,0.0,0.0,-2.6641,-2.6035,-2.5586,0.0,0.0,0.0,0.0,0.0,0.0,0.0,0.0,-2.1484,-2.1094,0.0,0.0,0.0,0.0,0.0,0.0,0.0,0.0,0.0,0.0,0.0,0.0,0.0,0.0,0.0,0.0,-1.5057,-1.5418,-1.5484,-1.5498,-1.5685,-1.6254,-1.6348,-1.6446,-1.6767,-1.6807,-1.7048,-1.7635,-1.7689,-1.7929,-1.8504,0.0,0.0,0.0,0.0,-1.9172,-1.9466,-1.972,-1.9973,-2.0167,-2.0167,-2.0167,-2.0167,-2.0167,-2.0193,-2.0281,-2.0254,-2.0193,-2.0281,-2.0254,-2.0167,-2.01,-1.9372,-1.8918,-1.8691,-1.8691,-1.8691,-1.8845,-2.0027,0.0,0.0,-2.396,-2.4809,-2.5126,-2.682,-2.7201,-2.7079,-2.7253,-2.7305,-2.7305,-2.7305,-2.7305,-2.7402,-2.7845,-2.7924,-2.8041,-2.8359,-2.8437,-2.8437,-2.8437,-2.8437,-2.8437,-2.8437,-2.7715,-2.7285,-2.7676,-2.7787,-2.7924,-2.8242,-2.8301,-2.8301,-2.8301,0.0,0.0,-2.8301,-2.8301,-2.8125,-2.7806,-2.7748,-2.7305,-2.6484,-2.6094,-2.5703,-2.5341,-2.4805,-2.457,-2.457,-2.4473,-2.4414,-2.4375,-2.2871,-2.2168,0.0,0.0,0.0,0.0,0.0,0.0,0.0,0.0,0.0,0.0,0.0,0.0,0.0,0.0,0.0,-1.5124,-1.5324,-1.5565,-1.6032,-1.6147,-1.6187,-1.6308,-1.6473,-1.6834,-1.7355,-1.7408,-1.7662,-1.8263,-1.8317,-1.8464,-1.8824,-1.8838,-1.9052,-1.9533,-1.9599,-1.9773,-2.0067,-2.012,-2.0174,-2.0167,0.0,0.0,-2.0167,-2.0167,-2.0361,-2.0575,-2.0334,-2.0374,-2.0575,-2.0334,-2.0167,-2.0153,-1.998,-1.9947,-1.9893,-1.9893,-1.9893,-1.9893,-2.0177,-2.1171,-2.2549,-2.431,-2.4939,-2.5565,-2.8271,-2.8216,0.0,-2.8732,-2.9082,-2.9082,-2.9082,-2.9082,-2.9101,-2.918,-2.9254,-2.9219,-2.9297,-2.9372,-2.9372,-2.9372,-2.9372,-2.9372,-2.9372,-2.8613,-2.8066,-2.8164,-2.8164,-2.8203,-2.8281,-2.8301,-2.8301,-2.8301,-2.8301,-2.8301,-2.8301,-2.8301,-2.8262,-2.8184,-2.7851,-2.7441,-2.6914,-2.6816,-2.6719,-2.6641,-2.583,-2.544,-2.544,-2.4719,-2.4414,-2.4414,-2.4082,-2.3926,0.0,0.0,0.0,0.0,0.0,0.0,0.0,0.0,0.0,0.0,0.0,-1.4041,-1.4629,0.0,-1.515,-1.5738,-1.5832,-1.5992,-1.6433,-1.674,-1.6924,-1.6777,-1.6967,-1.7315,-1.7769,-1.7943,-1.8223,-1.8677,-1.8704,-1.8905,-1.9345,-1.9359,-1.9559,-2.0,-2.0013,-2.016,-2.0454,-2.0454,-2.0521,-2.0668,-2.0668,-2.0668,-2.0668,-2.0668,-2.0748,-2.0882,-2.0735,-2.0762,-2.0882,-2.0735,-2.0668,-2.0668,-2.0668,-2.0494,-2.0167,-2.0167,-2.0167,-2.0167,-2.0167,-2.0758,-2.1706,-2.3225,-2.3756,-2.4386,-2.7407,-2.7823,-2.7539,-2.9159,-2.9626,-2.9626,-2.9626,-2.9626,-2.9626,-2.9626,-2.9626,-2.9626,-2.9626,-2.9626,-2.9626,-2.9626,-2.9626,-2.9626,-2.9626,-2.9219,-2.8926,-2.8926,-2.8926,-2.8926,-2.8926,-2.8926,-2.8926,-2.8926,-2.8926,-2.8926,-2.8926,-2.873,-2.8516,-2.8301,-2.8086,-2.7793,-2.7363,-2.7344,-2.7246,-2.7012,-2.6551,-2.6317,-2.6317,-2.5937,-2.5723,-2.5723,-2.5723,-2.5254,0.0,0.0,0.0,0.0,0.0,0.0,0.0,-1.2512,-1.3547,-1.4135,-1.4496,-1.483,-1.5311,-1.5444,-1.5658,-1.6228,-1.6321,-1.6393,-1.674,-1.7248,-1.7515,-1.7393,-1.7582,-1.7876,-1.8129,-1.8437,-1.8718,-1.9065,-1.9092,-1.9319,-1.9853,-1.988,-2.0013,-2.0307,-2.0321,-2.0454,-2.0762,-2.0762,-2.0882,-2.1109,-2.1109,-2.1109,-2.1109,-2.1109,-2.1109,-2.1109,-2.1109,-2.1109,-2.1109,-2.1109,-2.1109,-2.1109,-2.1109,-2.0815,-2.034,-2.034,-2.034,-2.034,-2.034,-2.0584,-2.1058,-2.2315,-2.3141,-2.4138,-2.6586,-2.7585,-2.812,-2.9466,-2.9824,-2.9824,-2.9824,-2.9824,-2.9824,-2.9824,-2.9824,-2.9824,-2.9824,-2.9824,-2.9824,-2.9824,-2.9824,-2.9824,-2.9824,-2.9824,-2.9822,-2.9646,-2.9626,-2.9626,-2.9626,-2.9626,-2.9626,-2.9626,-2.9626,-2.9626,-2.9626,-2.9258,-2.8906,-2.8555,-2.8457,-2.8262,-2.793,-2.7885,-2.7617,-2.7266,-2.7187,-2.7148,-2.7148,-2.7051,-2.7012,-2.7012,-2.7012,-2.6269,-0.6211,-0.7072,-0.816,-0.9194,-1.0443,-1.1834,0.0,-1.3878,-1.4162,-1.4794,-1.5097,-1.5324,-1.5391,-1.5605,-1.5885,-1.6219,-1.6321,-1.6522,-1.7072,-1.7434,-1.7675,-1.7862,-1.821,-1.8504,-1.8798,-1.8851,-1.9105,-1.9666,-1.9706,-1.984,-2.0174,-2.0187,-2.0321,-2.0615,-2.0628,-2.0762,-2.1056,-2.1069,-2.1082,-2.1109,-2.1109,-2.1109,-2.1109,-2.1109,-2.1109,-2.1109,-2.1109,-2.1109,-2.1109,-2.1109,-2.1109,-2.1109,-2.1109,-2.1069,-2.1015,-2.1015,-2.1015,-2.1015,-2.1015,-2.1992,-2.3284,-2.3407,-2.54,-2.7807,-2.8163,-2.9263,-3.0509,-3.0684,-3.0742,-3.0742,-3.0742,-3.0742,-3.0742,-3.0742,-3.0742,-3.0742,-3.0742,-3.0742,-3.0742,-3.0742,-3.0742,-3.0742,-3.0742,-3.0742,-3.0469,-2.9744,-2.9626,-2.9626,-2.9626,-2.9626,-2.9626,-2.9626,-2.9626,-2.9626,-2.9626,-2.9531,-2.9473,-2.9489,-2.9062,-2.8828,-2.8789,-2.8418,-2.8203,-2.8144,-2.7773,-2.7598,-2.7598,-2.7207,-2.7012,-2.7012,-2.7012,-2.6914,-0.6498,-0.7552,-0.8726,-0.9215,-1.091,-1.2644,-1.3423,-1.4224,-1.4923,-1.5164,-1.5444,-1.5645,-1.5645,-1.5885,-1.6179,-1.6473,-1.6723,-1.7045,-1.7582,-1.7929,-1.8223,-1.8462,-1.8824,-1.8985,-1.8931,-1.9239,-1.9533,-1.9786,-1.996,-2.0187,-2.0481,-2.0494,-2.0628,-2.0922,-2.0922,-2.0989,-2.1109,-2.1109,-2.1109,-2.1109,-2.1109,-2.1109,-2.1109,-2.1109,-2.1109,-2.1109,-2.1109,-2.1109,-2.1109,-2.1109,-2.1109,-2.1109,-2.1109,-2.1109,-2.1109,-2.1109,-2.1109,-2.1109,-2.1109,-2.1538,-2.2278,-2.3263,-2.4486,-2.594,-2.7811,-2.8902,-2.9648,-3.0645,-3.0898,-3.0898,-3.0898,-3.0898,-3.0898,-3.0898,-3.0898,-3.0898,-3.0898,-3.0898,-3.0898,-3.0898,-3.0898,-3.0898,-3.0898,-3.0898,-3.0762,-3.0391,-3.0332,-3.0332,-3.0332,-3.0332,-3.0332,-3.0332,-3.0332,-3.0234,-2.9961,-2.9941,-2.9824,-2.959,-2.9394,-2.9297,-2.9297,-2.9121,-2.9043,-2.9043,-2.8613,-2.8398,-2.8398,-2.7969,-2.7754,-2.7754,-2.7754,-2.7754,-0.7368,-0.8476,-0.9687,-1.0099,-1.1894,-1.359,-1.3771,-1.4636,-1.5418,-1.5498,-1.5685,-1.5811,-1.5939,-1.6126,-1.6393,-1.6767,-1.7058,-1.7407,-1.7902,-1.8303,-1.8597,-1.8891,-1.9252,-1.9399,-1.9185,-1.9546,-1.9867,-2.0027,-2.0241,-2.0481,-2.0775,-2.0802,-2.0895,-2.1096,-2.1109,-2.1109,-2.1109,-2.1109,-2.1109,-2.1109,-2.1109,-2.1109,-2.1109,-2.1109,-2.1109,-2.1109,-2.1109,-2.1109,-2.1109,-2.1109,-2.1109,-2.1109,-2.1109,-2.1109,-2.1109,-2.1109,-2.1109,-2.1109,-2.1109,-2.1109,-2.1299,-2.2529,-2.3201,-2.4116,-2.691,-2.8051,-2.8724,-3.045,-3.0898,-3.0898,-3.0898,-3.0898,-3.0898,-3.0898,-3.0898,-3.0898,-3.0898,-3.0898,-3.0898,-3.0898,-3.0898,-3.0898,-3.0898,-3.0898,-3.0898,-3.0898,-3.0898,-3.0898,-3.0898,-3.0898,-3.0898,-3.0898,-3.0898,-3.0762,-3.041,-3.0391,-3.0254,-2.9961,-2.9824,-2.9746,-2.9746,-2.9629,-2.9626,-2.9626,-2.9258,-2.9101,-2.9101,-2.8789,-2.8652,-2.8652,-2.8652,-2.8652,-0.9077,-1.0324,-1.1527,-1.278,-1.4025,-1.503,-1.5265,-1.5391,-1.5471,-1.5704,-1.5771,-1.5912,-1.6206,-1.6308,-1.6509,-1.7099,-1.7192,-1.7407,-1.7929,-1.829,-1.8597,-1.8891,-1.9439,-1.9786,-1.9773,-1.9786,-2.004,-2.0601,-2.0655,-2.0788,-2.1082,-2.1096,-2.1096,-2.1109,-2.1109,-2.1109,-2.1109,-2.1109,-2.1109,-2.1109,-2.1109,-2.1109,-2.1109,-2.1109,-2.1109,-2.1109,-2.1109,-2.1109,-2.1109,-2.1109,-2.1109,-2.1109,-2.1109,-2.1109,-2.1109,-2.1109,-2.1109,-2.1109,-2.1109,-2.1109,-2.1109,-2.1172,-2.2278,-2.3931,-2.5558,-2.7134,-2.8724,-3.045,-3.0898,-3.0898,-3.0898,-3.0898,-3.0898,-3.0898,-3.0898,-3.0898,-3.0898,-3.0898,-3.0898,-3.0898,-3.0898,-3.0898,-3.0898,-3.0898,-3.0898,-3.0898,-3.0898,-3.0898,-3.0898,-3.0898,-3.0898,-3.0898,-3.0898,-3.0879,-3.0879,-3.0859,-3.0859,-3.0859,-3.043,-3.0176,-3.0176,-2.9785,-2.9626,-2.9626,-2.9607,-2.9551,-2.9551,-2.9587,-2.9587,-2.9587,-2.9587,-2.9587,-0.8333,-0.9856,-1.1682,-1.2113,-1.3263,-1.4509,-1.547,-1.5685,-1.5712,-1.5758,-1.5979,-1.6152,-1.6308,-1.6643,-1.6965,-1.7166,-1.7488,-1.7876,-1.8277,-1.8584,-1.8891,-1.9185,-1.9559,-1.988,-2.0067,-2.0267,-2.0468,-2.0655,-2.0855,-2.1002,-2.1109,-2.1109,-2.1109,-2.1109,-2.1109,-2.1109,-2.1109,-2.1109,-2.1109,-2.1109,-2.1109,-2.1109,-2.1109,-2.1109,-2.1109,-2.1109,-2.1109,-2.1109,-2.1109,-2.1109,-2.1109,-2.1109,-2.1109,-2.1109,-2.1109,-2.1109,-2.1109,-2.1109,-2.1109,-2.1109,-2.1299,-2.2404,-2.3139,-2.3869,-2.5497,-2.6409,-2.7134,-2.8783,-2.9216,-2.953,-3.0587,-3.0898,-3.0898,-3.0898,-3.0898,-3.0898,-3.0898,-3.0898,-3.0898,-3.0898,-3.0898,-3.0898,-3.0898,-3.0898,-3.0898,-3.0898,-3.0898,-3.0898,-3.0898,-3.0898,-3.0898,-3.0898,-3.0898,-3.0898,-3.0898,-3.0898,-3.0898,-3.0898,-3.0742,-3.0664,-3.0664,-3.0527,-3.0449,-3.0449,-3.0137,-2.998,-2.998,-2.9707,-2.9626,-2.9626,-2.9626,-2.9626,-0.8703,-1.0057,-1.1871,-1.2347,-1.3183,-1.422,-1.5486,-1.5784,-1.5784,-1.5784,-1.5979,-1.6179,-1.6393,-1.674,-1.7112,-1.7326,-1.7716,-1.8102,-1.845,-1.8744,-1.9038,-1.939,-1.972,-2.0027,-2.0153,-2.0601,-2.0828,-2.0828,-2.1002,-2.1109,-2.1109,-2.1109,-2.1109,-2.1109,-2.1109,-2.1109,-2.1109,-2.1109,-2.1109,-2.1109,-2.1109,-2.1109,-2.1109,-2.1109,-2.1109,-2.1109,-2.1109,-2.1109,-2.1109,-2.1109,-2.1109,-2.1109,-2.1109,-2.1109,-2.1109,-2.1109,-2.1109,-2.1109,-2.1109,-2.1109,-2.1299,-2.2341,-2.2716,-2.3014,-2.4655,-2.513,-2.5619,-2.7811,-2.8426,-2.8783,-3.045,-3.0898,-3.0898,-3.0898,-3.0898,-3.0898,-3.0898,-3.0898,-3.0898,-3.0898,-3.0898,-3.0898,-3.0898,-3.0898,-3.0898,-3.0898,-3.0898,-3.0898,-3.0898,-3.0898,-3.0898,-3.0898,-3.0898,-3.0898,-3.0898,-3.0898,-3.0898,-3.0898,-3.0898,-3.0898,-3.0898,-3.0898,-3.0898,-3.0898,-3.0586,-3.0449,-3.0449,-3.0176,-3.0039,-3.0039,-3.0039,-3.0039,-0.9903,-1.0828,-1.2134,-1.344,-1.3776,-1.4172,-1.5486,-1.5784,-1.5784,-1.5784,-1.5798,-1.6019,-1.658,-1.6714,-1.6914,-1.7475,-1.7836,-1.8102,-1.845,-1.8744,-1.9038,-1.939,-1.988,-2.0167,-2.0167,-2.0762,-2.1109,-2.1109,0.0,-2.1109,-2.1109,-2.1109,-2.1109,-2.1109,-2.1109,-2.1109,-2.1109,-2.1109,-2.1109,-2.1109,-2.1109,-2.1109,-2.1109,-2.1109,-2.1109,-2.1109,-2.1109,-2.1109,-2.1109,-2.1109,-2.1109,-2.1109,-2.1109,-2.1109,-2.1109,-2.1109,-2.1109,-2.1109,-2.1109,-2.1109,-2.1109,-2.1109,-2.1109,-2.1425,-2.3014,-2.345,-2.4116,-2.7391,-2.8289,-2.8664,-3.045,-3.0898,-3.0898,-3.0898,-3.0898,-3.0898,-3.0898,-3.0898,-3.0898,-3.0898,-3.0898,-3.0898,-3.0898,-3.0898,-3.0898,-3.0898,-3.0898,-3.0898,-3.0898,-3.0898,-3.0898,-3.0898,-3.0898,-3.0898,-3.0898,-3.0898,-3.0898,-3.0898,-3.0898,-3.0898,-3.0898,-3.0898,-3.0898,-3.0898,-3.0898,-3.0898,-3.0898,-3.0898,-3.0898,-3.0898,-3.0898,-3.0898,-0.8775,-0.946,-1.0779,-1.2086,-1.2425,-1.3006,-1.5296,-1.5784,-1.5784,-1.5784,-1.6005,-1.6206,-1.6353,-1.679,-1.7139,-1.7286,-1.7702,-1.8102,-1.845,-1.8744,-1.9038,-1.939,-1.988,-2.0167,-2.0167,-2.0762,-2.1109,-2.1109,-2.1109,-2.1109,-2.1109,-2.1109,-2.1109,-2.1109,-2.1109,-2.1109,-2.1109,-2.1109,-2.1109,-2.1109,-2.1109,-2.1109,-2.1109,-2.1109,-2.1109,-2.1109,-2.1109,-2.1109,-2.1109,-2.1109,-2.1109,-2.1109,-2.1109,-2.1109,-2.1109,-2.1109,-2.1109,-2.1109,-2.1109,-2.1109,-2.1109,-2.1109,-2.1109,-2.1172,-2.1601,-2.1727,-2.2404,-2.568,-2.6591,-2.7254,-3.0138,-3.0898,-3.0898,-3.0898,-3.0898,-3.0898,-3.0898,-3.0898,-3.0898,-3.0898,-3.0898,-3.0898,-3.0898,-3.0898,-3.0898,-3.0898,-3.0898,-3.0898,-3.0898,-3.0898,-3.0898,-3.0898,-3.0898,-3.0898,-3.0898,-3.0898,-3.0898,-3.0898,-3.0898,-3.0898,-3.0898,-3.0898,-3.0898,-3.0898,-3.0898,-3.0898,-3.0898,-3.0898,-3.0898,-3.0898,-3.0898,-3.0898,-0.9072,-0.941,-1.0288,-1.156,-1.1901,-1.2581,-1.5201,-1.5784,-1.5784,-1.5784,-1.5965,-1.6112,-1.6246,-1.6589,-1.6898,-1.7166,-1.7542,-1.7996,-1.8424,-1.8744,-1.9038,-1.939,-1.988,-2.0167,-2.0167,-2.0762,-2.1109,-2.1109,-2.1109,-2.1109,-2.1109,-2.1109,-2.1109,-2.1109,-2.1109,-2.1109,-2.1109,-2.1109,-2.1109,-2.1109,-2.1109,-2.1109,-2.1109,-2.1109,-2.1109,-2.1109,0.0,-2.1109,-2.1109,-2.1109,-2.1109,-2.1109,-2.1109,-2.1109,-2.1109,-2.1109,-2.1109,-2.1109,-2.1109,-2.1109,-2.1109,-2.1109,-2.1109,-2.1109,-2.1109,-2.1601,-2.2702,-2.5253,-2.653,-2.7632,-3.0216,-3.0898,-3.0898,-3.0898,-3.0898,-3.0898,-3.0898,-3.0898,-3.0898,-3.0898,-3.0898,-3.0898,-3.0898,-3.0898,-3.0898,-3.0898,-3.0898,-3.0898,-3.0898,-3.0898,-3.0898,-3.0898,-3.0898,-3.0898,-3.0898,-3.0898,-3.0898,-3.0898,-3.0898,-3.0898,-3.0898,-3.0898,-3.0898,-3.0898,-3.0898,-3.0898,-3.0898,-3.0898,-3.0898,-3.0898,-3.0898,-3.0898,-1.0002,-1.0002,-1.0288,-1.156,-1.2047,-1.2813,-1.5248,-1.5784,-1.5784,-1.5784,-1.5784,-1.5912,-1.6166,-1.6246,-1.6496,-1.7058,-1.7393,-1.7742,-1.8343,-1.8677,-1.8971,-1.9279,-1.9853,-2.0167,-2.0167,-2.0762,-2.1109,-2.1109,-2.1109,-2.1109,-2.1109,-2.1109,-2.1109,-2.1109,-2.1109,-2.1109,-2.1109,-2.1109,-2.1109,-2.1109,-2.1109,-2.1109,-2.1109,-2.1109,-2.1109,-2.1109,-2.1109,0.0,-2.1109,-2.1109,-2.1109,-2.1109,-2.1109,-2.1109,-2.1109,-2.1109,-2.1109,-2.1109,-2.1109,-2.1109,-2.1109,-2.1109,-2.1109,-2.1172,-2.1348,-2.2466,-2.3993,-2.5802,-2.7314,-2.8783,-3.045,-3.0898,-3.0898,-3.0898,-3.0898,-3.0898,-3.0898,-3.0898,-3.0898,-3.0898,-3.0898,-3.0898,-3.0898,-3.0898,-3.0898,-3.0898,-3.0898,-3.0898,-3.0898,-3.0898,-3.0898,-3.0898,-3.0898,-3.0898,-3.0898,-3.0898,-3.0898,-3.0898,-3.0898,-3.0898,-3.0898,-3.0898,-3.0898,-3.0898,-3.0898,-3.0898,-3.0898,-3.0898,-3.0898,-3.0898,-3.0898,-3.0898,-1.0002,-1.0002,-1.0288,-1.156,-1.2716,-1.3932,-1.5439,-1.5784,-1.5784,-1.5784,-1.5784,-1.5798,-1.5899,-1.6112,-1.638,-1.6727,-1.7085,-1.7435,-1.7982,-1.8384,-1.8677,-1.8958,-1.9674,-2.0167,-2.0167,-2.0762,-2.1109,-2.1109,-2.1109,-2.1109,-2.1109,-2.1109,-2.1109,-2.1109,-2.1109,-2.1109,-2.1109,-2.1109,-2.1109,-2.1109,-2.1109,-2.1109,-2.1109,-2.1109,-2.1109,-2.1109,-2.1109,0.0,-2.1109,-2.1109,-2.1109,-2.1109,-2.1109,-2.1109,-2.1109,-2.1109,-2.1109,-2.1109,-2.1109,-2.1109,-2.1109,-2.1109,-2.1109,-2.1362,-2.2779,-2.3387,-2.4178,-2.7151,-2.817,-2.8783,-3.045,-3.0898,-3.0898,-3.0898,-3.0898,-3.0898,-3.0898,-3.0898,-3.0898,-3.0898,-3.0898,-3.0898,-3.0898,-3.0898,-3.0898,-3.0898,-3.0898,-3.0898,-3.0898,-3.0898,-3.0898,-3.0898,-3.0898,-3.0898,-3.0898,-3.0898,-3.0898,-3.0898,-3.0898,-3.0898,-3.0898,-3.0898,-3.0898,-3.0898,-3.0898,-3.0898,-3.0898,-3.0898,-3.0898,-3.0898,-3.0898,-3.0898,-1.0632,-1.0485,-1.0485,-1.2474,-1.344,-1.422,-1.5486,-1.5784,-1.5784,-1.5784,-1.5784,-1.5784,-1.5784,-1.5952,-1.6139,-1.6433,-1.6727,-1.7128,-1.7716,-1.8196,-1.8597,-1.8891,-1.9693,-2.0167,-2.0167,-2.0762,-2.1109,-2.1109,-2.1109,-2.1109,-2.1109,-2.1109,-2.1109,-2.1109,-2.1109,-2.1109,-2.1109,-2.1109,-2.1109,-2.1109,-2.1109,-2.1109,-2.1109,-2.1109,-2.1109,-2.1109,-2.1109,0.0,-2.1109,-2.1109,-2.1109,-2.1109,-2.1109,-2.1109,-2.1109,-2.1109,-2.1109,-2.1109,-2.1109,-2.1109,-2.1109,-2.1109,-2.1109,-2.1235,-2.2041,-2.3497,-2.5208,-2.6712,-2.8367,-2.9903,-3.0704,-3.0898,-3.0898,-3.0898,-3.0898,-3.0898,-3.0898,-3.0898,-3.0898,-3.0898,-3.0898,-3.0898,-3.0898,-3.0898,-3.0898,-3.0898,-3.0898,-3.0898,-3.0898,-3.0898,-3.0898,-3.0898,-3.0898,-3.0898,-3.0898,-3.0898,-3.0898,-3.0898,-3.0898,-3.0898,-3.0898,-3.0898,-3.0898,-3.0898,-3.0898,-3.0898,-3.0898,-3.0898,-3.0898,-3.0898,-3.0898,-3.0898,-1.1365,-1.117,-1.0974,-1.3343,-1.4124,-1.4543,-1.5502,-1.5691,-1.5712,-1.5658,-1.5645,-1.5645,-1.5645,-1.5698,-1.5832,-1.6126,-1.642,-1.682,-1.7408,-1.8009,-1.8504,-1.8798,-1.9607,-2.0167,-2.0167,-2.0762,-2.1109,-2.1109,-2.1109,-2.1109,-2.1109,-2.1109,-2.1109,-2.1109,-2.1109,-2.1109,-2.1109,-2.1109,-2.1109,-2.1109,-2.1109,-2.1109,-2.1109,-2.1109,-2.1109,-2.1109,-2.1109,0.0,0.0,-2.1109,-2.1109,-2.1109,-2.1109,-2.1109,-2.1109,-2.1109,-2.1109,-2.1109,-2.1109,-2.1109,-2.1109,-2.1109,-2.1109,-2.1172,-2.1538,-2.3435,-2.5619,-2.6349,-2.8367,-3.045,-3.082,-3.0898,-3.0898,-3.0898,-3.0898,-3.0898,-3.0898,-3.0898,-3.0898,-3.0898,-3.0898,-3.0898,-3.0898,-3.0898,-3.0898,-3.0898,-3.0898,-3.0898,-3.0898,-3.0898,-3.0898,-3.0898,-3.0898,-3.0898,-3.0898,-3.0898,-3.0898,-3.0898,-3.0898,-3.0898,-3.0898,-3.0898,-3.0898,-3.0898,-3.0898,-3.0898,-3.0898,-3.0898,-3.0898,-3.0898,-3.0898,-3.0898,-1.1853,-1.1804,-1.2086,-1.3536,-1.4758,-1.5563,-1.5451,-1.5431,-1.5364,-1.5142,-1.5089,-1.5089,-1.5089,-1.5257,-1.5524,-1.5818,-1.6126,-1.6563,-1.7152,-1.7702,-1.8142,-1.849,-1.9533,-2.0167,-2.0167,-2.0762,-2.1109,-2.1109,-2.1109,-2.1109,-2.1109,-2.1109,-2.1109,-2.1109,-2.1109,-2.1109,-2.1109,-2.1109,-2.1109,-2.1109,-2.1109,-2.1109,-2.1109,-2.1109,-2.1109,-2.1109,-2.1109,0.0,0.0,-2.1109,-2.1109,-2.1109,-2.1109,-2.1109,-2.1109,-2.1109,-2.1109,-2.1109,-2.1109,-2.1109,-2.1109,-2.1109,-2.1109,-2.1362,-2.2889,-2.3574,-2.4425,-2.7391,-2.8426,-2.8979,-3.0509,-3.0898,-3.0898,-3.0898,-3.0898,-3.0898,-3.0898,-3.0898,-3.0898,-3.0898,-3.0898,-3.0898,-3.0898,-3.0898,-3.0898,-3.0898,-3.0898,-3.0898,-3.0898,-3.0898,-3.0898,-3.0898,-3.0898,-3.0898,-3.0898,-3.0898,-3.0898,-3.0898,-3.0898,-3.0898,-3.0898,-3.0898,-3.0898,-3.0898,-3.0898,-3.0898,-3.0898,-3.0898,-3.0898,-3.0898,-3.0898,-3.0898,-1.1463,-1.1901,-1.2425,-1.4519,-1.5308,-1.5538,-1.5418,-1.5257,-1.5156,-1.5035,-1.5008,-1.5008,-1.5008,-1.5204,-1.5431,-1.5551,-1.5965,-1.6469,-1.682,-1.7542,-1.8143,-1.845,-1.9519,-2.0167,-2.0167,-2.0762,-2.1109,-2.1109,-2.1109,0.0,-2.1109,-2.1109,-2.1109,-2.1109,-2.1109,-2.1109,-2.1109,-2.1109,-2.1109,-2.1109,-2.1109,-2.1109,-2.1109,-2.1109,-2.1109,-2.1109,-2.1109,0.0,0.0,-2.1109,-2.1109,-2.1109,-2.1109,-2.1109,-2.1109,-2.1109,-2.1109,-2.1109,-2.1109,-2.1109,-2.1109,-2.1109,-2.1109,-2.1235,-2.1915,-2.2779,-2.3884,-2.5146,-2.691,-2.8545,-2.9216,-3.0138,-3.0898,-3.0898,-3.0898,-3.0898,-3.0898,-3.0898,-3.0898,-3.0898,-3.0898,-3.0898,-3.0898,-3.0898,-3.0898,-3.0898,-3.0898,-3.0898,-3.0898,-3.0898,-3.0898,-3.0898,-3.0898,-3.0898,-3.0898,-3.0898,-3.0898,-3.0898,-3.0898,-3.0898,-3.0898,-3.0898,-3.0898,-3.0898,-3.0898,-3.0898,-3.0898,-3.0898,-3.0898,-3.0898,-3.0898,-3.0898,-1.1414,-1.2183,-1.3006,-1.5248,-1.5618,-1.5378,-1.5284,-1.5044,-1.479,-1.4603,-1.4643,-1.4683,-1.4589,-1.495,-1.5271,-1.5271,-1.5765,-1.6273,-1.6647,-1.7382,-1.8036,-1.8437,-1.9519,-2.0167,-2.0167,-2.0762,-2.1109,-2.1109,-2.1109,0.0,-2.1109,-2.1109,-2.1109,-2.1109,-2.1109,-2.1109,-2.1109,-2.1109,-2.1109,-2.1109,-2.1109,-2.1109,-2.1109,-2.1109,-2.1109,-2.1109,-2.1109,0.0,0.0,-2.1109,-2.1109,-2.1109,-2.1109,-2.1109,-2.1109,-2.1109,-2.1109,-2.1109,-2.1109,-2.1109,-2.1109,-2.1109,-2.1109,-2.1109,-2.1109,-2.1915,-2.2952,-2.345,-2.594,-2.8486,-2.9039,-3.002,-3.0898,-3.0898,-3.0898,-3.0898,-3.0898,-3.0898,-3.0898,-3.0898,-3.0898,-3.0898,-3.0898,-3.0898,-3.0898,-3.0898,-3.0898,-3.0898,-3.0898,-3.0898,-3.0898,-3.0898,-3.0898,-3.0898,-3.0898,-3.0898,-3.0898,-3.0898,-3.0898,-3.0898,-3.0898,-3.0898,-3.0898,-3.0898,-3.0898,-3.0898,-3.0898,-3.0898,-3.0898,-3.0898,-3.0898,-3.0898,-1.1901,-1.2861,-1.4172,-1.5486,-1.5618,-1.5324,-1.5075,-1.4736,-1.4362,-1.3733,-1.3895,-1.4001,-1.3666,-1.4376,-1.5008,-1.5008,-1.5458,-1.5984,-1.662,-1.7208,-1.7809,-1.8424,-1.9519,-2.0167,-2.0167,-2.0762,-2.1109,-2.1109,-2.1109,0.0,-2.1109,-2.1109,-2.1109,-2.1109,-2.1109,-2.1109,-2.1109,-2.1109,-2.1109,-2.1109,-2.1109,-2.1109,-2.1109,-2.1109,-2.1109,0.0,0.0,0.0,0.0,-2.1109,-2.1109,-2.1109,-2.1109,-2.1109,-2.1109,-2.1109,-2.1109,-2.1109,-2.1109,-2.1109,-2.1109,-2.1109,-2.1109,-2.1109,-2.1109,-2.1109,-2.1475,-2.3139,-2.594,-2.8783,-3.045,-3.0898,-3.0898,-3.0898,-3.0898,-3.0898,-3.0898,-3.0898,-3.0898,-3.0898,-3.0898,-3.0898,-3.0898,-3.0898,-3.0898,-3.0898,-3.0898,-3.0898,-3.0898,-3.0898,-3.0898,-3.0898,-3.0898,-3.0898,-3.0898,-3.0898,-3.0898,-3.0898,-3.0898,-3.0898,-3.0898,-3.0898,-3.0898,-3.0898,-3.0898,-3.0898,-3.0898,-3.0898,-3.0898,-3.0898,-3.0898,-3.0898,-1.0029,-1.1157,-1.2428,-1.3691,-1.4417,-1.4776,-1.4683,-1.3741,-1.3008,-1.3517,-1.3131,-1.2908,-1.349,-1.4362,-1.5008,-1.5008,-1.5444,-1.6032,-1.662,-1.7208,-1.7809,-1.8424,-1.9519,-2.0388,-2.0788,-2.1002,-2.1109,-2.1109,0.0,0.0,-2.1109,-2.1109,-2.1109,-2.1109,-2.1109,-2.1109,-2.1109,-2.1109,-2.1109,-2.1109,-2.1109,-2.1109,-2.1109,-2.1109,-2.1109,0.0,0.0,0.0,0.0,-2.1109,-2.1109,-2.1109,-2.1109,-2.1109,-2.1109,-2.1109,-2.1109,-2.1109,-2.1109,-2.1109,-2.1109,-2.1109,-2.1109,-2.1109,-2.1109,-2.1109,-2.1664,-2.4471,-2.5984,-2.7391,-3.0216,-3.0898,-3.0898,-3.0898,-3.0898,-3.0898,-3.0898,-3.0898,-3.0898,-3.0898,-3.0898,-3.0898,-3.0898,-3.0898,-3.0898,-3.0898,-3.0898,-3.0898,-3.0898,-3.0898,-3.0898,-3.0898,-3.0898,-3.0898,-3.0898,-3.0898,-3.0898,-3.0898,-3.0898,-3.0898,-3.0898,-3.0898,-3.0898,-3.0898,-3.0898,-3.0898,-3.0898,-3.0898,-3.0898,-3.0898,-3.0898,-3.0898,-0.9099,-1.0398,-1.1548,-1.2381,-1.3189,-1.3842,-1.3842,-1.3315,-1.3016,-1.3503,-1.3185,-1.3016,-1.3503,-1.4362,-1.5008,-1.5008,-1.5538,-1.6166,-1.6633,-1.7315,-1.8103,-1.9038,-1.9786,-2.0468,-2.1056,-2.1109,-2.1109,0.0,0.0,0.0,-2.1109,-2.1109,-2.1109,-2.1109,-2.1109,-2.1109,-2.1109,-2.1109,-2.1109,-2.1109,-2.1109,-2.1109,-2.1109,-2.1109,-2.1109,0.0,0.0,0.0,0.0,-2.1109,-2.1109,-2.1109,-2.1109,-2.1109,-2.1109,-2.1109,-2.1109,-2.1109,-2.1109,-2.1109,-2.1109,-2.1109,-2.1109,-2.1109,-2.1109,-2.1109,-2.1776,-2.5069,-2.5984,-2.6772,-3.002,-3.0898,-3.0898,-3.0898,-3.0898,-3.0898,-3.0898,-3.0898,-3.0898,-3.0898,-3.0898,-3.0898,-3.0898,-3.0898,-3.0898,-3.0898,-3.0898,-3.0898,-3.0898,-3.0898,-3.0898,-3.0898,-3.0898,-3.0898,-3.0898,-3.0898,-3.0898,-3.0898,-3.0898,-3.0898,-3.0898,-3.0898,-3.0898,-3.0898,-3.0898,-3.0898,-3.0898,-3.0898,-3.0898,-3.0898,-3.0898,-3.0898,0.0,-1.0297,-1.1314,-1.1405,-1.2104,-1.2774,-1.2774,-1.3329,0.0,-1.353,-1.3701,-1.3833,-1.3639,-1.4402,-1.5035,-1.5035,-1.5759,-1.638,-1.6687,-1.7476,-1.8582,-2.0007,-2.0167,-2.0468,-2.1056,-2.1109,-2.1109,0.0,0.0,0.0,-2.1109,-2.1109,-2.1109,-2.1109,-2.1109,-2.1109,-2.1109,-2.1109,-2.1109,-2.1109,-2.1109,-2.1109,-2.1109,-2.1109,-2.1109,0.0,0.0,0.0,0.0,-2.1109,-2.1109,-2.1109,-2.1109,-2.1109,-2.1109,-2.1109,-2.1109,-2.1109,-2.1109,-2.1109,-2.1109,-2.1109,-2.1109,-2.1109,-2.1109,-2.1109,-2.1776,-2.4947,-2.5924,-2.6712,-2.9903,-3.082,-3.0898,-3.0898,-3.0898,-3.0898,-3.0898,-3.0898,-3.0898,-3.0898,-3.0898,-3.0898,-3.0898,-3.0898,-3.0898,-3.0898,-3.0898,-3.0898,-3.0898,-3.0898,-3.0898,-3.0898,-3.0898,-3.0898,-3.0898,-3.0898,-3.0898,-3.0898,-3.0898,-3.0898,-3.0898,-3.0898,-3.0898,-3.0898,-3.0898,-3.0898,-3.0898,-3.0898,-3.0898,-3.0898,-3.0898,-3.0898,-0.7396,0.0,-0.9721,-1.0592,-1.1641,-1.2416,0.0,-1.1835,-1.1475,-1.2176,-1.1893,-1.2054,-1.3694,-1.4696,-1.5297,-1.5297,-1.5845,-1.6509,-1.7018,-1.8009,-1.9034,-2.0047,-2.0167,-2.0468,-2.1056,-2.1109,0.0,0.0,0.0,-2.1109,-2.1109,-2.1109,-2.1109,-2.1109,-2.1109,-2.1109,-2.1109,-2.1109,-2.1109,-2.1109,-2.1109,-2.1109,-2.1109,-2.1109,-2.1109,0.0,0.0,0.0,-2.1109,-2.1109,-2.1109,-2.1109,-2.1109,-2.1109,-2.1109,-2.1109,-2.1109,-2.1109,-2.1109,-2.1109,-2.1109,-2.1109,-2.1109,-2.1109,-2.1109,-2.1109,-2.1538,-2.3559,-2.5069,-2.647,-2.8486,-2.9962,-3.0898,-3.0898,-3.0898,-3.0898,-3.0898,-3.0898,-3.0898,-3.0898,-3.0898,-3.0898,-3.0898,-3.0898,-3.0898,-3.0898,-3.0898,-3.0898,-3.0898,-3.0898,-3.0898,-3.0898,-3.0898,-3.0898,-3.0898,-3.0898,-3.0898,-3.0898,-3.0898,-3.0898,-3.0898,-3.0898,-3.0898,-3.0898,-3.0898,-3.0898,-3.0898,-3.0898,-3.0898,-3.0898,-3.0898,-3.0898,-0.6849,-0.7462,-0.836,-0.9531,-1.0269,-1.0864,-1.1381,-1.1026,-1.093,-1.2085,-1.2022,-1.2378,-1.4178,-1.499,-1.5444,-1.5578,-1.6086,-1.678,-1.7688,-1.8544,-1.9399,-2.0087,-2.0361,-2.0615,0.0,0.0,0.0,0.0,0.0,-2.1109,-2.1109,-2.1109,-2.1109,-2.1109,-2.1109,-2.1109,-2.1109,-2.1109,-2.1109,-2.1109,-2.1109,-2.1109,-2.1109,-2.1109,-2.1109,0.0,0.0,0.0,-2.1109,-2.1109,-2.1109,-2.1109,-2.1109,-2.1109,-2.1109,-2.1109,-2.1109,-2.1109,-2.1109,-2.1109,-2.1109,-2.1109,-2.1109,-2.1109,-2.1109,-2.1109,-2.1475,-2.3139,-2.4778,-2.6349,-2.7991,-2.9648,-3.0898,-3.0898,-3.0898,-3.0898,-3.0898,-3.0898,-3.0898,-3.0898,-3.0898,-3.0898,-3.0898,-3.0898,-3.0898,-3.0898,-3.0898,-3.0898,-3.0898,-3.0898,-3.0898,-3.0898,-3.0898,-3.0898,-3.0898,-3.0898,-3.0898,-3.0898,-3.0898,-3.0898,-3.0898,-3.0898,-3.0898,-3.0898,-3.0898,-3.0898,-3.0898,-3.0898,-3.0898,-3.0898,-3.0898,-3.0898,-0.6824,-0.6991,-0.748,-0.8807,-0.9017,-0.92,-1.0352,-1.072,-1.1182,-1.2326,-1.2845,-1.3498,-1.4837,-1.5297,-1.5605,-1.5858,-1.6473,-1.7301,-1.8397,-1.9065,-1.9626,-2.0174,-2.0494,0.0,-2.1082,0.0,0.0,0.0,0.0,-2.1109,-2.1109,-2.1109,-2.1109,-2.1109,-2.1109,-2.1109,-2.1109,-2.1109,-2.1109,-2.1109,-2.1109,-2.1109,-2.1109,-2.1109,-2.1109,-2.1109,0.0,0.0,-2.1109,-2.1109,-2.1109,-2.1109,-2.1109,-2.1109,-2.1109,-2.1109,-2.1109,-2.1109,-2.1109,-2.1109,-2.1109,-2.1109,-2.1109,-2.1109,-2.1109,-2.1109,-2.1425,-2.2841,-2.4348,-2.5924,-2.7331,-2.892,-3.0216,-3.045,-3.0528,-3.0587,-3.082,-3.0898,-3.0898,-3.0898,-3.0898,-3.0898,-3.0898,-3.0898,-3.0898,-3.0898,-3.0898,-3.0898,-3.0898,-3.0898,-3.0898,-3.0898,-3.0898,-3.0898,-3.0898,-3.0898,-3.0898,-3.0898,-3.0898,-3.0898,-3.0898,-3.0898,-3.0898,-3.0898,-3.0898,-3.0898,-3.0898,-3.0898,-3.0898,-3.0898,-3.0898,-3.0898,-0.6722,-0.7027,-0.784,-0.9839,-0.9618,-0.9235,-1.0504,-1.0919,-1.1134,-1.1465,-1.2618,-1.396,-1.514,-1.5778,-1.6201,-1.6206,-1.7128,-1.8022,-1.8758,-1.9359,-1.9853,-2.0127,0.0,-2.0788,0.0,0.0,0.0,0.0,0.0,-2.1109,-2.1109,-2.1109,-2.1109,-2.1109,-2.1109,-2.1109,-2.1109,-2.1109,-2.1109,-2.1109,-2.1109,-2.1109,-2.1109,-2.1109,-2.1109,-2.1109,0.0,-2.1109,-2.1109,-2.1109,-2.1109,-2.1109,-2.1109,-2.1109,-2.1109,-2.1109,-2.1109,-2.1109,-2.1109,-2.1109,-2.1109,-2.1109,-2.1109,-2.1109,-2.1109,-2.1109,-2.1172,-2.1411,-2.2702,-2.4054,-2.424,-2.5574,-2.7073,-2.8486,-2.8783,-2.9157,-3.0587,-3.0898,-3.0898,-3.0898,-3.0898,-3.0898,-3.0898,-3.0898,-3.0898,-3.0898,-3.0898,-3.0898,-3.0898,-3.0898,-3.0898,-3.0898,-3.0898,-3.0898,-3.0898,-3.0898,-3.0898,-3.0898,-3.0898,-3.0898,-3.0898,-3.0898,-3.0898,-3.0898,-3.0898,-3.0898,-3.0898,-3.0898,-3.0898,-3.0898,-3.0898,-3.0898,-0.6675,-0.6966,-0.7826,-1.026,-1.0035,-0.9741,-1.1653,-1.1769,-1.1656,-1.242,-1.3251,-1.423,-1.5642,-1.6086,-1.6433,-1.6951,-1.7849,-1.8677,-1.9105,-1.9666,-2.0147,-2.0441,0.0,0.0,0.0,0.0,0.0,0.0,0.0,0.0,-2.1109,-2.1109,-2.1109,-2.1109,-2.1109,-2.1109,-2.1109,-2.1109,-2.1109,-2.1109,-2.1109,-2.1109,-2.1109,-2.1109,-2.1109,-2.1109,0.0,-2.1109,-2.1109,-2.1109,-2.1109,-2.1109,-2.1109,-2.1109,-2.1109,-2.1109,-2.1109,-2.1109,-2.1109,-2.1109,-2.1109,-2.1109,-2.1109,-2.1109,-2.1109,-2.1109,-2.1109,-2.1109,-2.2278,-2.3574,-2.3574,-2.4778,-2.6409,-2.7991,-2.8426,-2.8842,-3.0528,-3.0898,-3.0898,-3.0898,-3.0898,-3.0898,-3.0898,-3.0898,-3.0898,-3.0898,-3.0898,-3.0898,-3.0898,-3.0898,-3.0898,-3.0898,-3.0898,-3.0898,-3.0898,-3.0898,-3.0898,-3.0898,-3.0898,-3.0898,-3.0898,-3.0898,-3.0898,-3.0898,-3.0898,-3.0898,-3.0898,-3.0898,-3.0898,-3.0898,-3.0898,-3.0898,-0.6756,-0.7021,-0.7773,-1.0193,-1.0131,-1.0177,-1.2688,-1.2707,-1.2498,-1.3614,-1.4172,-1.4885,-1.6166,-1.6486,-1.6874,-1.7756,-1.8531,-1.9132,-1.9426,-1.9973,-2.0414,-2.0655,-2.0935,0.0,0.0,0.0,0.0,0.0,0.0,0.0,-2.1109,-2.1109,-2.1109,-2.1109,-2.1109,-2.1109,-2.1109,-2.1109,-2.1109,-2.1109,-2.1109,-2.1109,-2.1109,-2.1109,-2.1109,-2.1109,-2.1109,-2.1109,-2.1109,-2.1109,-2.1109,-2.1109,-2.1109,-2.1109,-2.1109,-2.1109,-2.1109,-2.1109,-2.1109,-2.1109,-2.1109,-2.1109,-2.1109,-2.1109,-2.1109,-2.1109,-2.1109,-2.1109,-2.2027,-2.3014,-2.3014,-2.3915,-2.5253,-2.6893,-2.7271,-2.7811,-2.9844,-3.0333,-3.045,-3.082,-3.0898,-3.0898,-3.0898,-3.0898,-3.0898,-3.0898,-3.0898,-3.0898,-3.0898,-3.0898,-3.0898,-3.0898,-3.0898,-3.0898,-3.0898,-3.0898,-3.0898,-3.0898,-3.0898,-3.0898,-3.0898,-3.0898,-3.0898,-3.0898,-3.0898,-3.0898,-3.0898,-3.0898,-3.0898,-3.0898,-3.0898,-3.0898,-0.6991,-0.7333,-0.7926,-0.9488,-0.9686,-1.0167,-1.2798,-1.3485,-1.3685,-1.4156,-1.5267,-1.6228,-1.662,-1.7114,-1.7782,-1.8677,-1.9118,-1.9439,-1.9733,0.0,-2.0655,-2.0668,0.0,0.0,0.0,0.0,0.0,0.0,0.0,0.0,-2.1109,-2.1109,-2.1109,-2.1109,-2.1109,-2.1109,-2.1109,-2.1109,-2.1109,-2.1109,-2.1109,-2.1109,-2.1109,-2.1109,-2.1109,-2.1109,-2.1109,-2.1109,-2.1109,-2.1109,-2.1109,-2.1109,-2.1109,-2.1109,-2.1109,-2.1109,-2.1109,-2.1109,-2.1109,-2.1109,-2.1109,-2.1109,-2.1109,-2.1109,-2.1109,-2.1109,-2.1109,-2.1109,-2.1172,-2.1299,-2.1299,-2.1348,-2.1839,-2.3574,-2.3931,-2.4794,-2.7931,-2.8605,-2.9039,-3.0587,-3.0898,-3.0898,-3.0898,-3.0898,-3.0898,-3.0898,-3.0898,-3.0898,-3.0898,-3.0898,-3.0898,-3.0898,-3.0898,-3.0898,-3.0898,-3.0898,-3.0898,-3.0898,-3.0898,-3.0898,-3.0898,-3.0898,-3.0898,-3.0898,-3.0898,-3.0898,-3.0898,-3.0898,-3.0898,-3.0898,-3.0898,-3.0898,-0.7018,-0.7943,-0.8925,-0.9625,-1.0509,-1.1395,-1.2262,-1.3273,-1.3879,-1.3127,-1.4898,-1.6687,-1.7168,-1.7889,-1.8584,-1.9118,-1.9439,-1.98,-2.0281,-2.0535,-2.0748,0.0,0.0,0.0,0.0,0.0,0.0,0.0,0.0,0.0,-2.1109,-2.1109,-2.1109,-2.1109,-2.1109,-2.1109,-2.1109,-2.1109,-2.1109,-2.1109,-2.1109,-2.1109,-2.1109,-2.1109,-2.1109,-2.1109,-2.1109,-2.1109,-2.1109,-2.1109,-2.1109,-2.1109,-2.1109,-2.1109,-2.1109,-2.1109,-2.1109,-2.1109,-2.1109,-2.1109,-2.1109,-2.1109,-2.1109,-2.1109,-2.1109,-2.1109,-2.1109,-2.1109,-2.1109,-2.1109,-2.1109,-2.1109,-2.1538,-2.3201,-2.3574,-2.424,-2.6409,-2.7692,-2.8605,-2.9216,-2.9335,-2.9648,-3.0704,-3.002,-2.9707,-3.0762,-3.0898,-3.0898,-3.0898,-3.0898,-3.0898,-3.0898,-3.0898,-3.0898,-3.0898,-3.0898,-3.0898,-3.0898,-3.0898,-3.0898,-3.0898,-3.0898,-3.0898,-3.0898,-3.0898,-3.0898,-3.0898,-3.0898,-3.0898,-3.0898,-3.0898,-3.0898,-0.7657,-0.8383,-0.9074,-0.9692,-1.043,-1.0934,-1.0807,-1.266,-1.4152,-1.3276,-1.5321,-1.7422,-1.7916,-1.8664,-1.9265,-1.9466,-1.9826,-2.0214,-2.0615,-2.0762,0.0,0.0,0.0,0.0,0.0,0.0,0.0,0.0,0.0,0.0,0.0,-2.1109,-2.1109,-2.1109,-2.1109,-2.1109,-2.1109,-2.1109,-2.1109,-2.1109,-2.1109,-2.1109,-2.1109,-2.1109,-2.1109,-2.1109,-2.1109,-2.1109,-2.1109,-2.1109,-2.1109,-2.1109,-2.1109,-2.1109,-2.1109,-2.1109,-2.1109,-2.1109,-2.1109,-2.1109,-2.1109,-2.1109,-2.1109,-2.1109,-2.1109,-2.1109,-2.1109,-2.1109,-2.1109,-2.1109,-2.1109,-2.1109,-2.1411,-2.2529,-2.2841,-2.3263,-2.4901,-2.6106,-2.703,-2.7572,-2.7632,-2.7991,-2.9157,-2.8783,-2.8783,-2.9962,-3.0587,-3.0898,-3.0898,-3.0898,-3.0898,-3.0898,-3.0898,-3.0898,-3.0898,-3.0898,-3.0898,-3.0898,-3.0898,-3.0898,-3.0898,-3.0898,-3.0898,-3.0898,-3.0898,-3.0898,-3.0898,-3.0898,-3.0898,-3.0898,-3.0898,-3.0898,-0.896,-0.8559,-0.8004,-0.9567,-0.9152,-0.8327,-0.8327,-1.1541,-1.4691,-1.4988,-1.6883,-1.8584,-1.8878,-1.9412,-1.98,-1.9813,-2.0294,-2.0681,-2.0681,0.0,0.0,0.0,0.0,0.0,0.0,0.0,0.0,0.0,0.0,0.0,0.0,-2.1109,-2.1109,-2.1109,-2.1109,-2.1109,-2.1109,-2.1109,-2.1109,-2.1109,-2.1109,-2.1109,-2.1109,-2.1109,-2.1109,-2.1109,-2.1109,-2.1109,-2.1109,-2.1109,-2.1109,-2.1109,-2.1109,-2.1109,-2.1109,-2.1109,-2.1109,-2.1109,-2.1109,-2.1109,-2.1109,-2.1109,-2.1109,-2.1109,-2.1109,-2.1109,-2.1109,-2.1109,-2.1109,-2.1109,-2.1109,-2.1109,-2.1109,-2.1109,-2.1109,-2.1538,-2.3201,-2.3574,-2.4054,-2.568,-2.5984,-2.5984,-2.5984,-2.7314,-2.8367,-2.8426,-2.9844,-3.0898,-3.0898,-3.0898,-3.0898,-3.0898,-3.0898,-3.0898,-3.0898,-3.0898,-3.0898,-3.0898,-3.0898,-3.0898,-3.0898,-3.0898,-3.0898,-3.0898,-3.0898,-3.0898,-3.0898,-3.0898,-3.0898,-3.0898,-3.0898,-3.0898,-0.7915,-0.8651,-0.9076,-0.8674,-0.9186,-0.9546,-0.8626,-1.123,-1.4509,-1.693,-1.7315,-1.7647,-1.8999,-1.9546,-1.9933,-2.0347,-2.0561,-2.0748,0.0,0.0,0.0,0.0,0.0,0.0,0.0,0.0,0.0,0.0,0.0,0.0,0.0,-2.1109,-2.1109,-2.1109,-2.1109,-2.1109,-2.1109,-2.1109,-2.1109,-2.1109,-2.1109,-2.1109,-2.1109,-2.1109,-2.1109,-2.1109,-2.1109,-2.1109,-2.1109,-2.1109,-2.1109,-2.1109,-2.1109,-2.1109,-2.1109,-2.1109,-2.1109,-2.1109,-2.1109,-2.1109,-2.1109,-2.1109,-2.1109,-2.1109,-2.1109,-2.1109,-2.1109,-2.1109,-2.1109,-2.1109,-2.1109,-2.1109,-2.1109,-2.1109,-2.1109,-2.1235,-2.1727,-2.2779,-2.376,-2.424,-2.4301,-2.4655,-2.5802,-2.5452,-2.5818,-2.8051,-2.8842,-2.9589,-3.0762,-3.0898,-3.0898,-3.0898,-3.0898,-3.0898,-3.0898,-3.0898,-3.0898,-3.0898,-3.0898,-3.0898,-3.0898,-3.0898,-3.0898,-3.0898,-3.0898,-3.0898,-3.0898,-3.0898,-3.0898,-3.0898,-3.0898,-3.0898,-0.8107,-0.8689,-0.8995,-0.8829,-0.9216,-0.9692,-0.98,-1.1746,-1.4571,-1.7961,-1.8275,-1.8235,-1.9376,-1.9973,-2.0401,-2.0641,-2.0775,-2.0909,0.0,0.0,0.0,0.0,0.0,0.0,0.0,0.0,0.0,0.0,0.0,0.0,0.0,-2.1109,-2.1109,-2.1109,-2.1109,-2.1109,-2.1109,-2.1109,-2.1109,-2.1109,-2.1109,-2.1109,-2.1109,-2.1109,-2.1109,-2.1109,-2.1109,-2.1109,-2.1109,-2.1109,-2.1109,-2.1109,-2.1109,-2.1109,-2.1109,-2.1109,-2.1109,-2.1109,-2.1109,-2.1109,-2.1109,-2.1109,-2.1109,-2.1109,-2.1109,-2.1109,-2.1109,-2.1109,-2.1109,-2.1109,-2.1109,-2.1109,-2.1109,-2.1109,-2.1109,-2.1109,-2.1109,-2.1915,-2.2591,-2.2591,-2.2591,-2.2889,-2.3915,-2.3807,-2.424,-2.6183,-2.7572,-2.8783,-2.9766,-3.0509,-3.0898,-3.0898,-3.0898,-3.0898,-3.0898,-3.0898,-3.0898,-3.0898,-3.0898,-3.0898,-3.0898,-3.0898,-3.0898,-3.0898,-3.0898,-3.0898,-3.0898,-3.0898,-3.0898,-3.0898,-3.0898,-3.0898,-0.8872,-0.8587,-0.8139,-0.9461,-0.9173,-0.9115,-1.1498,-1.2824,-1.4532,-1.8032,-1.9296,-1.9813,-1.984,-2.0508,-2.0989,-2.0762,0.0,0.0,0.0,0.0,0.0,0.0,0.0,0.0,0.0,0.0,0.0,0.0,0.0,0.0,0.0,-2.1109,-2.1109,-2.1109,-2.1109,-2.1109,-2.1109,-2.1109,-2.1109,-2.1109,-2.1109,-2.1109,-2.1109,-2.1109,-2.1109,-2.1109,-2.1109,-2.1109,-2.1109,-2.1109,-2.1109,-2.1109,-2.1109,-2.1109,-2.1109,-2.1109,-2.1109,-2.1109,-2.1109,-2.1109,-2.1109,-2.1109,-2.1109,-2.1109,-2.1109,-2.1109,-2.1109,-2.1109,-2.1109,-2.1109,-2.1109,-2.1109,-2.1109,-2.1109,-2.1109,-2.1109,-2.1109,-2.1109,-2.1109,-2.1109,-2.1109,-2.1109,-2.1109,-2.2341,-2.3387,-2.3574,-2.6365,-2.8426,-2.8426,-2.9844,-3.0898,-3.0898,-3.0898,-3.0898,-3.0898,-3.0898,-3.0898,-3.0898,-3.0898,-3.0898,-3.0898,-3.0898,-3.0898,-3.0898,-3.0898,-3.0898,-3.0898,-3.0898,-3.0898,-3.0898,-3.0898,-3.0898,-0.7791,-0.7889,-0.7897,-0.8343,-0.8466,-0.9374,-1.2824,-1.2871,-1.3193,-1.6658,-1.8698,-1.9867,-2.0094,-2.0481,-2.0828,0.0,0.0,0.0,0.0,0.0,0.0,0.0,0.0,0.0,0.0,0.0,0.0,0.0,0.0,0.0,-2.1109,-2.1109,-2.1109,-2.1109,-2.1109,-2.1109,-2.1109,-2.1109,-2.1109,0.0,-2.1109,-2.1109,-2.1109,-2.1109,-2.1109,-2.1109,-2.1109,-2.1109,-2.1109,-2.1109,-2.1109,-2.1109,-2.1109,-2.1109,-2.1109,-2.1109,-2.1109,-2.1109,-2.1109,-2.1109,-2.1109,-2.1109,-2.1109,-2.1109,-2.1109,-2.1109,-2.1109,-2.1109,-2.1109,-2.1109,-2.1109,-2.1109,-2.1109,-2.1109,-2.1109,-2.1109,-2.1109,-2.1109,-2.1109,-2.1109,-2.1109,-2.1109,-2.1109,-2.1425,-2.209,-2.3387,-2.6365,-2.8426,-2.8426,-2.9844,-3.0898,-3.0898,-3.0898,-3.0898,-3.0898,-3.0898,-3.0898,-3.0898,-3.0898,-3.0898,-3.0898,-3.0898,-3.0898,-3.0898,-3.0898,-3.0898,-3.0898,-3.0898,-3.0898,-3.0898,-3.0898,-3.0898,-0.7475,-0.7706,-0.7882,-0.818,-0.8364,-0.9268,-1.2327,-1.2404,-1.2578,-1.5274,-1.7458,-1.8981,-1.9136,-2.011,-2.0935,0.0,0.0,0.0,0.0,0.0,0.0,0.0,0.0,0.0,0.0,0.0,0.0,0.0,0.0,-2.1109,-2.1109,-2.1109,-2.1109,-2.1109,-2.1109,-2.1109,-2.1109,-2.1109,-2.1109,-2.1109,-2.1109,-2.1109,-2.1109,-2.1109,-2.1109,-2.1109,-2.1109,-2.1109,-2.1109,-2.1109,-2.1109,-2.1109,-2.1109,-2.1109,-2.1109,-2.1109,-2.1109,-2.1109,-2.1109,-2.1109,-2.1109,-2.1109,-2.1109,-2.1109,-2.1109,-2.1109,-2.1109,-2.1109,-2.1109,-2.1109,-2.1109,-2.1109,-2.1109,-2.1109,-2.1109,-2.1109,-2.1109,-2.1109,-2.1109,-2.1109,-2.1109,-2.1109,-2.1109,-2.1109,-2.1425,-2.2278,-2.4532,-2.6365,-2.7134,-2.8664,-3.002,-3.082,-3.0898,-3.0898,-3.0898,-3.0898,-3.0898,-3.0898,-3.0898,-3.0898,-3.0898,-3.0898,-3.0898,-3.0898,-3.0898,-3.0898,-3.0898,-3.0898,-3.0898,-3.0898,-3.0898,-3.0898,-0.7434,-0.7699,-0.795,-0.8343,-0.8465,-0.9048,-1.1245,-1.1568,-1.1943,-1.3798,-1.5924,-1.7549,-1.8019,0.0,0.0,0.0,0.0,0.0,0.0,0.0,0.0,0.0,0.0,0.0,0.0,0.0,0.0,0.0,0.0,-2.1109,-2.1109,-2.1109,-2.1109,-2.1109,-2.1109,-2.1109,-2.1109,-2.1109,-2.1109,-2.1109,-2.1109,-2.1109,-2.1109,-2.1109,-2.1109,-2.1109,-2.1109,-2.1109,-2.1109,-2.1109,-2.1109,-2.1109,-2.1109,-2.1109,-2.1109,-2.1109,-2.1109,-2.1109,-2.1109,-2.1109,-2.1109,-2.1109,-2.1109,-2.1109,-2.1109,-2.1109,-2.1109,-2.1109,-2.1109,-2.1109,-2.1109,-2.1109,-2.1109,-2.1109,-2.1109,-2.1109,-2.1109,-2.1109,-2.1109,-2.1109,-2.1109,-2.1109,-2.1109,-2.1109,-2.1109,-2.1109,-2.2529,-2.4054,-2.5436,-2.7254,-2.892,-3.0333,-3.0704,-3.0898,-3.0898,-3.0898,-3.0898,-3.0898,-3.0898,-3.0898,-3.0898,-3.0898,-3.0898,-3.0898,-3.0898,-3.0898,-3.0898,-3.0898,-3.0898,-3.0898,-3.0898,-3.0898,-0.7278,-0.7699,-0.8008,-0.8248,-0.8391,-0.8991,-1.0912,-1.0537,-1.0273,-1.2141,-1.4211,-1.6124,0.0,0.0,0.0,0.0,0.0,0.0,0.0,0.0,0.0,0.0,0.0,0.0,0.0,0.0,0.0,0.0,-2.1109,-2.1109,-2.1109,-2.1109,-2.1109,-2.1109,-2.1109,-2.1109,-2.1109,-2.1109,-2.1109,-2.1109,-2.1109,-2.1109,-2.1109,-2.1109,-2.1109,-2.1109,-2.1109,-2.1109,-2.1109,-2.1109,-2.1109,-2.1109,-2.1109,-2.1109,-2.1109,-2.1109,-2.1109,-2.1109,-2.1109,-2.1109,-2.1109,-2.1109,-2.1109,-2.1109,-2.1109,-2.1109,-2.1109,-2.1109,-2.1109,-2.1109,-2.1109,-2.1109,-2.1109,-2.1109,-2.1109,-2.1109,-2.1109,-2.1109,-2.1109,-2.1109,-2.1109,-2.1109,-2.1109,-2.1109,-2.1109,-2.1109,-2.2529,-2.3698,-2.3869,-2.6547,-2.8486,-2.8724,-3.002,-3.0898,-3.0898,-3.0898,-3.0898,-3.0898,-3.0898,-3.0898,-3.0898,-3.0898,-3.0898,-3.0898,-3.0898,-3.0898,-3.0898,-3.0898,-3.0898,-3.0898,-3.0898,-3.0898,-0.7353,-0.7699,-0.797,-0.8208,-0.8377,-0.8977,-1.0854,-1.0337,-0.9902,-1.171,-1.2231,-1.2923,0.0,0.0,0.0,0.0,0.0,0.0,0.0,0.0,0.0,0.0,0.0,0.0,0.0,0.0,0.0,0.0,-2.1109,-2.1109,-2.1109,-2.1109,-2.1109,-2.1109,-2.1109,-2.1109,-2.1109,-2.1109,-2.1109,-2.1109,-2.1109,-2.1109,-2.1109,-2.1109,-2.1109,-2.1109,-2.1109,-2.1109,-2.1109,-2.1109,-2.1109,-2.1109,-2.1109,-2.1109,-2.1109,-2.1109,-2.1109,-2.1109,-2.1109,-2.1109,-2.1109,-2.1109,-2.1109,-2.1109,-2.1109,-2.1109,-2.1109,-2.1109,-2.1109,-2.1109,-2.1109,-2.1109,-2.1109,-2.1109,-2.1109,-2.1109,-2.1109,-2.1109,-2.1109,-2.1109,-2.1109,-2.1109,-2.1109,-2.1109,-2.1109,-2.1109,-2.1727,-2.2529,-2.345,-2.4855,-2.6062,-2.6953,-2.8545,-2.953,-2.953,-3.0333,-3.0898,-3.0898,-3.0898,-3.0898,-3.0898,-3.0898,-3.0898,-3.0898,-3.0898,-3.0898,-3.0898,-3.0898,-3.0898,-3.0898,-3.0898,-3.0898,-0.7353,-0.7645,-0.7868,-0.8092,-0.8289,-0.8808,-1.0246,-0.9935,-0.9659,0.0,-1.0612,0.0,0.0,0.0,0.0,0.0,0.0,0.0,0.0,0.0,0.0,0.0,0.0,0.0,0.0,0.0,0.0,0.0,0.0,-2.0652,-2.1109,-2.1109,-2.1109,-2.1109,-2.1109,-2.1109,-2.1109,-2.1109,-2.1109,-2.1109,-2.1109,-2.1109,-2.1109,-2.1109,-2.1109,-2.1109,-2.1109,-2.1109,-2.1109,-2.1109,-2.1109,-2.1109,-2.1109,-2.1109,-2.1109,-2.1109,-2.1109,-2.1109,-2.1109,-2.1109,-2.1109,-2.1109,-2.1109,-2.1109,-2.1109,-2.1109,-2.1109,-2.1109,-2.1109,-2.1109,-2.1109,-2.1109,-2.1109,-2.1109,-2.1109,-2.1109,-2.1109,-2.1109,-2.1109,-2.1109,-2.1109,-2.1109,-2.1109,-2.1109,-2.1109,-2.1109,-2.1109,-2.1538,-2.2779,-2.3325,-2.4054,-2.5253,-2.7194,-2.8426,-2.8426,-2.9962,-3.0898,-3.0898,-3.0898,-3.0898,-3.0898,-3.0898,-3.0898,-3.0898,-3.0898,-3.0898,-3.0898,-3.0898,-3.0898,-3.0898,-3.0898,-3.0898,-0.7078,-0.7435,-0.7814,-0.7828,-0.8058,-0.8374,-0.8577,-0.8798,-0.9042,-0.9449,-0.9685,0.0,0.0,0.0,0.0,0.0,0.0,0.0,0.0,0.0,0.0,0.0,0.0,0.0,0.0,0.0,0.0,0.0,0.0,-1.9355,-2.0982,-2.1109,-2.1109,-2.1109,-2.1109,-2.1109,-2.1109,-2.1109,-2.1109,-2.1109,-2.1109,-2.1109,-2.1109,-2.1109,-2.1109,-2.1109,-2.1109,-2.1109,-2.1109,-2.1109,-2.1109,-2.1109,-2.1109,-2.1109,-2.1109,-2.1109,-2.1109,-2.1109,-2.1109,-2.1109,-2.1109,-2.1109,-2.1109,-2.1109,-2.1109,-2.1109,-2.1109,-2.1109,-2.1109,-2.1109,-2.1109,-2.1109,-2.1109,-2.1109,-2.1109,-2.1109,-2.1109,-2.1109,-2.1109,-2.1109,-2.1109,-2.1109,-2.1109,-2.1109,-2.1109,-2.1109,-2.1109,-2.1109,-2.1235,-2.2654,-2.3636,-2.3698,-2.6547,-2.8426,-2.8426,-2.9962,-3.0898,-3.0898,-3.0898,-3.0898,-3.0898,-3.0898,-3.0898,-3.0898,-3.0898,-3.0898,-3.0898,-3.0898,-3.0898,-3.0898,-3.0898,-3.0898,-0.7004,-0.7333,-0.7577,-0.7767,-0.8045,-0.8333,-0.8388,-0.8655,-0.8912,-0.9076,0.0,0.0,0.0,0.0,0.0,0.0,0.0,0.0,0.0,0.0,0.0,0.0,0.0,0.0,0.0,0.0,0.0,0.0,0.0,0.0,-1.9419,-2.0526,-2.1109,-2.1109,-2.1109,-2.1109,-2.1109,-2.1109,-2.1109,-2.1109,-2.1109,-2.1109,-2.1109,-2.1109,-2.1109,-2.1109,-2.1109,-2.1109,-2.1109,-2.1109,-2.1109,-2.1109,-2.1109,-2.1109,-2.1109,-2.1109,-2.1109,-2.1109,-2.1109,-2.1109,-2.1109,-2.1109,-2.1109,-2.1109,-2.1109,-2.1109,-2.1109,-2.1109,-2.1109,-2.1109,-2.1109,-2.1109,-2.1109,-2.1109,-2.1109,-2.1109,-2.1109,-2.1109,-2.1109,-2.1109,-2.1109,-2.1109,-2.1109,-2.1109,-2.1109,-2.1109,-2.1109,-2.1109,-2.1109,-2.1601,-2.1978,-2.1978,-2.4885,-2.6832,-2.6832,-2.9353,-3.0898,-3.0898,-3.0898,-3.0898,-3.0898,-3.0898,-3.0898,-3.0898,-3.0898,-3.0898,-3.0898,-3.0898,-3.0898,-3.0898,-3.0898,-3.0898,-0.6912,-0.7136,-0.7366,-0.7665,-0.7929,-0.8147,-0.8299,-0.8499,-0.8757,-0.8851,0.0,0.0,0.0,0.0,0.0,0.0,0.0,0.0,0.0,0.0,0.0,0.0,0.0,0.0,0.0,0.0,0.0,0.0,0.0,0.0,-1.8448,-2.0132,-2.1109,-2.1109,-2.1109,-2.1109,-2.1109,-2.1109,-2.1109,-2.1109,-2.1109,-2.1109,-2.1109,-2.1109,-2.1109,-2.1109,-2.1109,-2.1109,-2.1109,-2.1109,-2.1109,-2.1109,-2.1109,-2.1109,-2.1109,-2.1109,-2.1109,-2.1109,-2.1109,-2.1109,-2.1109,-2.1109,-2.1109,-2.1109,-2.1109,-2.1109,-2.1109,-2.1109,-2.1109,-2.1109,-2.1109,-2.1109,-2.1109,-2.1109,-2.1109,-2.1109,-2.1109,-2.1109,-2.1109,-2.1109,-2.1109,-2.1109,-2.1109,-2.1109,-2.1109,-2.1109,-2.1109,-2.1109,-2.1109,-2.1109,-2.1109,-2.1109,-2.4039,-2.5984,-2.5984,-2.8979,-3.0898,-3.0898,-3.0898,-3.0898,-3.0898,-3.0898,-3.0898,-3.0898,-3.0898,-3.0898,-3.0898,-3.0898,-3.0898,-3.0898,-3.0898,-3.0898,0.0,0.0,0.0,-0.7516,-0.7706,-0.7889,-0.8187,-0.8313,-0.8391,-0.8777,0.0,0.0,0.0,0.0,0.0,0.0,0.0,0.0,0.0,0.0,0.0,0.0,0.0,0.0,0.0,0.0,0.0,0.0,0.0,-1.6689,-1.8308,-2.0132,-2.1109,-2.1109,-2.1109,-2.1109,-2.1109,-2.1109,-2.1109,-2.1109,-2.1109,-2.1109,-2.1109,-2.1109,-2.1109,-2.1109,-2.1109,-2.1109,-2.1109,-2.1109,-2.1109,-2.1109,-2.1109,-2.1109,-2.1109,-2.1109,-2.1109,-2.1109,-2.1109,-2.1109,-2.1109,-2.1109,-2.1109,-2.1109,-2.1109,-2.1109,-2.1109,-2.1109,-2.1109,-2.1109,-2.1109,-2.1109,-2.1109,-2.1109,-2.1109,-2.1109,-2.1109,-2.1109,-2.1109,-2.1109,-2.1109,-2.1109,-2.1109,-2.1109,-2.1109,-2.1109,-2.1109,-2.1109,-2.1109,-2.1109,-2.1109,-2.1109,-2.4039,-2.5984,-2.5984,-2.8979,-3.0898,-3.0898,-3.0898,-3.0898,-3.0898,-3.0898,-3.0898,-3.0898,-3.0898,-3.0898,-3.0898,-3.0898,-3.0898,-3.0898,-3.0898,-3.0898,-0.6803,0.0,0.0,0.0,0.0,0.0,-0.7916,-0.8113,-0.8354,-0.8431,0.0,0.0,0.0,0.0,0.0,0.0,0.0,0.0,0.0,0.0,0.0,0.0,0.0,0.0,0.0,0.0,0.0,0.0,-1.6108,-1.7474,-1.6625,-1.9483,-2.1109,-2.1109,-2.1109,-2.1109,-2.1109,-2.1109,-2.1109,-2.1109,-2.1109,-2.1109,-2.1109,-2.1109,-2.1109,-2.1109,-2.1109,-2.1109,-2.1109,-2.1109,-2.1109,-2.1109,-2.1109,-2.1109,-2.1109,-2.1109,-2.1109,-2.1109,-2.1109,-2.1109,-2.1109,-2.1109,-2.1109,-2.1109,-2.1109,-2.1109,-2.1109,-2.1109,-2.1109,-2.1109,-2.1109,-2.1109,-2.1109,-2.1109,-2.1109,-2.1109,-2.1109,-2.1109,-2.1109,-2.1109,-2.1109,-2.1109,-2.1109,-2.1109,-2.1109,-2.1109,-2.1109,-2.1109,-2.1109,-2.1109,-2.1109,-2.1109,-2.4039,-2.5984,-2.5984,-2.8979,-3.0898,-3.0898,-3.0898,-3.0898,-3.0898,-3.0898,-3.0898,-3.0898,-3.0898,-3.0898,-3.0898,-3.0898,-3.0898,-3.0898,-3.0898,-3.0898,-0.6822,-0.6836,-0.6919,-0.7278,0.0,0.0,-0.778,-0.795,-0.8113,0.0,0.0,0.0,0.0,0.0,0.0,0.0,0.0,0.0,0.0,0.0,0.0,0.0,0.0,0.0,0.0,0.0,0.0,-1.3198,-1.6413,-1.8267,-1.8116,-2.0005,-2.1109,-2.1109,-2.1109,-2.1109,-2.1109,-2.1109,-2.1109,-2.1109,-2.1109,-2.1109,-2.1109,-2.1109,-2.1109,-2.1109,-2.1109,-2.1109,-2.1109,-2.1109,-2.1109,-2.1109,-2.1109,-2.1109,-2.1109,-2.1109,-2.1109,-2.1109,-2.1109,-2.1109,-2.1109,-2.1109,-2.1109,-2.1109,-2.1109,-2.1109,-2.1109,-2.1109,-2.1109,-2.1109,-2.1109,-2.1109,-2.1109,-2.1109,-2.1109,-2.1109,-2.1109,-2.1109,-2.1109,-2.1109,-2.1109,-2.1109,-2.1109,-2.1109,-2.1109,-2.1109,-2.1109,-2.1109,-2.1109,-2.1109,-2.1109,-2.1109,-2.4039,-2.5984,-2.5984,-2.8979,-3.0898,-3.0898,-3.0898,-3.0898,-3.0898,-3.0898,-3.0898,-3.0898,-3.0898,-3.0898,-3.0898,-3.0898,-3.0898,-3.0898,-3.0898,-3.0898,-0.6869,-0.6844,-0.6824,-0.7244,-0.7405,0.0,-0.7699,-0.7787,-0.7889,0.0,0.0,0.0,0.0,0.0,0.0,0.0,0.0,0.0,0.0,0.0,0.0,0.0,0.0,0.0,0.0,-1.1878,-1.2897,-1.3314,-1.6329,-1.901,-2.0969,-2.1109,-2.1109,-2.1109,-2.1109,-2.1109,-2.1109,-2.1109,-2.1109,-2.1109,-2.1109,-2.1109,-2.1109,-2.1109,-2.1109,-2.1109,-2.1109,-2.1109,-2.1109,-2.1109,-2.1109,-2.1109,-2.1109,-2.1109,-2.1109,-2.1109,-2.1109,-2.1109,-2.1109,-2.1109,-2.1109,-2.1109,-2.1109,-2.1109,-2.1109,-2.1109,-2.1109,-2.1109,-2.1109,-2.1109,-2.1109,-2.1109,-2.1109,-2.1109,-2.1109,-2.1109,-2.1109,-2.1109,-2.1109,-2.1109,-2.1109,-2.1109,-2.1109,-2.1109,-2.1109,-2.1109,-2.1109,-2.1109,-2.1109,-2.1109,-2.1109,-2.1109,-2.4039,-2.5984,-2.5984,-2.8979,-3.0898,-3.0898,-3.0898,-3.0898,-3.0898,-3.0898,-3.0898,-3.0898,-3.0898,-3.0898,-3.0898,-3.0898,-3.0898,-3.0898,-3.0898,-3.0898,-0.7045,-0.695,-0.6889,-0.7092,-0.7278,0.0,-0.7441,-0.7638,-0.7828,0.0,-0.7997,0.0,0.0,0.0,0.0,0.0,0.0,0.0,0.0,0.0,0.0,0.0,0.0,0.0,0.0,-1.2535,-1.3412,-1.4755,-1.6871,-1.901,-2.0969,-2.1109,-2.1109,-2.1109,-2.1109,-2.1109,-2.1109,-2.1109,-2.1109,-2.1109,-2.1109,-2.1109,-2.1109,-2.1109,-2.1109,-2.1109,-2.1109,-2.1109,-2.1109,-2.1109,-2.1109,-2.1109,-2.1109,-2.1109,-2.1109,-2.1109,-2.1109,-2.1109,-2.1109,-2.1109,-2.1109,-2.1109,-2.1109,-2.1109,-2.1109,-2.1109,-2.1109,-2.1109,-2.1109,-2.1109,-2.1109,-2.1109,-2.1109,-2.1109,-2.1109,-2.1109,-2.1109,-2.1109,-2.1109,-2.1109,-2.1109,-2.1109,-2.1109,-2.1109,-2.1109,-2.1109,-2.1109,-2.1109,-2.1109,-2.1109,-2.1109,-2.1109,-2.4039,-2.5984,-2.5984,-2.8979,-3.0898,-3.0898,-3.0898,-3.0898,-3.0898,-3.0898,-3.0898,-3.0898,-3.0898,-3.0898,-3.0898,-3.0898,-3.0898,-3.0898,-3.0898,-3.0898,-0.7258,-0.7149,-0.7011,-0.7078,-0.7152,0.0,0.0,-0.7489,-0.7611,-0.7692,-0.7767,-0.7868,0.0,0.0,0.0,0.0,0.0,0.0,0.0,0.0,0.0,0.0,0.0,0.0,0.0,-1.1831,-1.3517,-1.6176,-1.8223,-1.9837,-2.0819,-2.1029,-2.1109,-2.1109,-2.1109,-2.1109,-2.1109,-2.1109,-2.1109,-2.1109,-2.1109,-2.1109,-2.1109,-2.1109,-2.1109,-2.1109,-2.1109,-2.1109,-2.1109,-2.1109,-2.1109,-2.1109,-2.1109,-2.1109,-2.1109,-2.1109,-2.1109,-2.1109,-2.1109,-2.1109,-2.1109,-2.1109,-2.1109,-2.1109,-2.1109,-2.1109,-2.1109,-2.1109,-2.1109,-2.1109,-2.1109,-2.1109,-2.1109,-2.1109,-2.1109,-2.1109,-2.1109,-2.1109,-2.1109,-2.1109,-2.1109,-2.1109,-2.1109,-2.1109,-2.1109,-2.1109,-2.1109,-2.1109,-2.1109,-2.1109,-2.1109,-2.1109,-2.3311,-2.4778,-2.4778,-2.7769,-2.9648,-2.9648,-3.045,-3.0898,-3.0898,-3.0898,-3.0898,-3.0898,-3.0898,-3.0898,-3.0898,-3.0898,-3.0898,-3.0898,-3.0898,-3.0898,-0.7434,-0.7326,-0.7186,-0.7186,-0.7159,-0.7217,0.0,0.0,0.0,-0.7529,0.0,0.0,0.0,0.0,0.0,0.0,0.0,0.0,0.0,0.0,0.0,0.0,0.0,0.0,0.0,-1.0922,-1.3367,-1.6635,-1.8886,-2.024,-2.0668,-2.0895,-2.1056,-2.1109,-2.1109,-2.1109,-2.1109,-2.1109,-2.1109,-2.1109,-2.1109,-2.1109,-2.1109,-2.1109,-2.1109,-2.1109,-2.1109,-2.1109,-2.1109,-2.1109,-2.1109,-2.1109,-2.1109,-2.1109,-2.1109,-2.1109,-2.1109,-2.1109,-2.1109,-2.1109,-2.1109,-2.1109,-2.1109,-2.1109,-2.1109,-2.1109,-2.1109,-2.1109,-2.1109,-2.1109,-2.1109,-2.1109,-2.1109,-2.1109,-2.1109,-2.1109,-2.1109,-2.1109,-2.1109,-2.1109,-2.1109,-2.1109,-2.1109,-2.1109,-2.1109,-2.1109,-2.1109,-2.1109,-2.1109,-2.1109,-2.1109,-2.1109,-2.2591,-2.3574,-2.3574,-2.6547,-2.8426,-2.8426,-2.9962,-3.0898,-3.0898,-3.0898,-3.0898,-3.0898,-3.0898,-3.0898,-3.0898,-3.0898,-3.0898,-3.0898,-3.0898,-3.0898,-0.7645,-0.7563,-0.755,-0.755,-0.7448,-0.7353,-0.7412,0.0,-0.7419,-0.7439,0.0,-0.7604,-0.7617,0.0,0.0,0.0,0.0,0.0,-0.728,-0.7651,0.0,0.0,0.0,0.0,0.0,0.0,-1.284,-1.4966,-1.6729,-1.8629,-2.058,-2.0708,-2.0842,-2.1096,-2.1109,-2.1109,-2.1109,-2.1109,-2.1109,-2.1109,-2.1109,-2.1109,-2.1109,-2.1109,-2.1109,-2.1109,-2.1109,-2.1109,-2.1109,-2.1109,-2.1109,-2.1109,-2.1109,-2.1109,-2.1109,-2.1109,-2.1109,-2.1109,-2.1109,-2.1109,-2.1109,-2.1109,-2.1109,-2.1109,-2.1109,-2.1109,-2.1109,-2.1109,-2.1109,-2.1109,-2.1109,-2.1109,-2.1109,-2.1109,-2.1109,-2.1109,-2.1109,-2.1109,-2.1109,-2.1109,-2.1109,-2.1109,-2.1109,-2.1109,-2.1109,-2.1109,-2.1109,-2.1109,-2.1109,-2.1109,-2.1109,-2.1109,-2.2591,-2.3574,-2.3574,-2.6547,-2.8426,-2.8426,-2.9962,-3.0898,-3.0898,-3.0898,-3.0898,-3.0898,-3.0898,-3.0898,-3.0898,-3.0898,-3.0898,-3.0898,-3.0898,-3.0898,-0.7957,-0.7855,-0.7814,-0.7645,-0.755,-0.7502,-0.7502,-0.7502,-0.7482,-0.7433,0.0,0.0,0.0,0.0,0.0,0.0,-0.7475,0.0,0.0,0.0,-0.7855,0.0,0.0,0.0,0.0,0.0,0.0,0.0,0.0,-1.8077,-1.9847,-2.0401,-2.0735,-2.0855,-2.1029,-2.1109,-2.1109,-2.1109,-2.1109,-2.1109,-2.1109,-2.1109,-2.1109,-2.1109,-2.1109,-2.1109,-2.1109,-2.1109,-2.1109,-2.1109,-2.1109,-2.1109,-2.1109,-2.1109,-2.1109,-2.1109,-2.1109,-2.1109,-2.1109,-2.1109,-2.1109,-2.1109,-2.1109,-2.1109,-2.1109,-2.1109,-2.1109,-2.1109,-2.1109,-2.1109,-2.1109,-2.1109,-2.1109,-2.1109,-2.1109,-2.1109,-2.1109,-2.1109,-2.1109,-2.1109,-2.1109,-2.1109,-2.1109,-2.1109,-2.1109,-2.1109,-2.1109,-2.1109,-2.1109,-2.1109,-2.1109,-2.1109,-2.1727,-2.2153,-2.2153,-2.4286,-2.5635,-2.5635,-2.8009,-2.9903,-3.084,-3.0898,-3.0898,-3.0898,-3.0898,-3.0898,-3.0898,-3.0898,-3.0898,-3.0898,-3.0898,-3.0898,-0.8271,-0.8143,-0.8099,-0.7848,-0.7753,-0.7706,-0.7665,-0.7631,-0.7556,-0.7446,-0.7419,0.0,0.0,0.0,-0.7244,-0.7238,0.0,-0.7326,0.0,-0.7339,0.0,0.0,0.0,0.0,0.0,0.0,0.0,0.0,0.0,0.0,-1.9301,-2.004,-2.0508,-2.0668,-2.0882,-2.1029,-2.1109,-2.1109,-2.1109,-2.1109,-2.1109,-2.1109,-2.1109,-2.1109,-2.1109,-2.1109,-2.1109,-2.1109,-2.1109,-2.1109,-2.1109,-2.1109,-2.1109,-2.1109,-2.1109,-2.1109,-2.1109,-2.1109,-2.1109,-2.1109,-2.1109,-2.1109,-2.1109,-2.1109,-2.1109,-2.1109,-2.1109,-2.1109,-2.1109,-2.1109,-2.1109,-2.1109,-2.1109,-2.1109,-2.1109,-2.1109,-2.1109,-2.1109,-2.1109,-2.1109,-2.1109,-2.1109,-2.1109,-2.1109,-2.1109,-2.1109,-2.1109,-2.1109,-2.1109,-2.1109,-2.1109,-2.1109,-2.1109,-2.1109,-2.1109,-2.2654,-2.3822,-2.424,-2.647,-2.8486,-3.0138,-3.0216,-3.045,-3.0898,-3.0898,-3.0898,-3.0898,-3.0898,-3.0898,-3.0898,-3.0898,-3.0898,-0.873,-0.8581,-0.8431,-0.8289,-0.8133,-0.7934,-0.7834,-0.7699,-0.7556,-0.7446,-0.7419,-0.7326,-0.7132,-0.6991,-0.6803,-0.6416,-0.6546,0.0,0.0,0.0,0.0,0.0,0.0,0.0,0.0,0.0,0.0,0.0,0.0,0.0,-1.9229,-1.9653,-2.0094,-2.0655,-2.0681,-2.0828,-2.1109,-2.1109,-2.1109,-2.1109,-2.1109,-2.1109,-2.1109,-2.1109,-2.1109,-2.1109,-2.1109,-2.1109,-2.1109,-2.1109,-2.1109,-2.1109,-2.1109,-2.1109,-2.1109,-2.1109,-2.1109,-2.1109,-2.1109,-2.1109,-2.1109,-2.1109,-2.1109,-2.1109,-2.1109,-2.1109,-2.1109,-2.1109,-2.1109,-2.1109,-2.1109,-2.1109,-2.1109,-2.1109,-2.1109,-2.1109,-2.1109,-2.1109,-2.1109,-2.1109,-2.1109,-2.1109,-2.1109,-2.1109,-2.1109,-2.1109,-2.1109,-2.1109,-2.1109,-2.1109,-2.1109,-2.1109,-2.1109,-2.1109,-2.1109,-2.2654,-2.424,-2.5802,-2.6045,-2.6832,-2.8426,-2.8486,-2.9216,-3.0879,-3.0898,-3.0898,-3.0898,-3.0898,-3.0898,-3.0898,-3.0898,-3.0898,0.0,0.0,-0.875,-0.8601,0.0,-0.8296,-0.8147,-0.8079,-0.797,-0.7712,-0.7658,-0.759,-0.7339,-0.7251,-0.7136,-0.6885,-0.6851,-0.6817,0.0,0.0,0.0,0.0,0.0,0.0,0.0,0.0,0.0,0.0,0.0,0.0,0.0,-1.9252,-1.9773,-2.0361,-2.0575,-2.0815,-2.1109,-2.1109,-2.1109,-2.1109,-2.1109,-2.1109,-2.1109,-2.1109,-2.1109,-2.1109,-2.1109,-2.1109,-2.1109,-2.1109,-2.1109,-2.1109,-2.1109,-2.1109,-2.1109,-2.1109,-2.1109,-2.1109,-2.1109,-2.1109,-2.1109,-2.1109,-2.1109,-2.1109,-2.1109,-2.1109,-2.1109,-2.1109,-2.1109,-2.1109,-2.1109,-2.1109,-2.1109,-2.1109,-2.1109,-2.1109,-2.1109,-2.1109,-2.1109,-2.1109,-2.1109,-2.1109,-2.1109,-2.1109,-2.1109,-2.1109,-2.1109,-2.1109,-2.1109,-2.1109,-2.1109,-2.1109,-2.1109,-2.1109,-2.1109,-2.1601,-2.264,-2.4301,-2.4409,-2.5146,-2.6772,-2.7811,-2.8664,-2.9216,-3.0333,-3.0333,-2.9216,-3.0333,-3.0333,-2.9216,-2.9216,-2.9844,-0.9483,-0.9286,0.0,-0.892,-0.8757,0.0,-0.8459,-0.8384,-0.8262,-0.7957,-0.7889,-0.7801,-0.7509,-0.7453,-0.7319,-0.7119,-0.6977,-0.6849,0.0,-0.6641,0.0,0.0,0.0,0.0,0.0,0.0,0.0,0.0,0.0,0.0,0.0,0.0,-1.9426,-1.9907,-2.0307,-2.0655,-2.0949,-2.1056,-2.1109,-2.1109,-2.1109,-2.1109,-2.1109,-2.1109,-2.1109,-2.1109,-2.1109,-2.1109,-2.1109,-2.1109,-2.1109,-2.1109,-2.1109,-2.1109,-2.1109,-2.1109,-2.1109,-2.1109,-2.1109,-2.1109,-2.1109,-2.1109,-2.1109,-2.1109,-2.1109,-2.1109,-2.1109,-2.1109,-2.1109,-2.1109,-2.1109,-2.1109,-2.1109,-2.1109,-2.1109,-2.1109,-2.1109,-2.1109,-2.1109,-2.1109,-2.1109,-2.1109,-2.1109,-2.1109,-2.1109,-2.1109,-2.1109,-2.1109,-2.1109,-2.1109,-2.1109,-2.1109,-2.1109,-2.1109,-2.1109,-2.1109,-2.1538,-2.2654,-2.2716,-2.3435,-2.5085,-2.6106,-2.7323,-2.8625,-2.9546,-2.9546,-2.8625,-2.9546,-2.9157,-2.7572,-2.7572,-2.8426]}]]